[[{"header":{"parameterUnit":"m.s-1","parameterCategory":1,"la1":30.6,"la2":29.2853,"lo1":-89.7004,"lo2":-87.6739,"dy":0.0162,"dx":0.0183,"nx":112,"ny":82,"refTime":"2026-04-21T00:00:00:Z","depth":0,"parameterNumber":2,"parameterNumberName":"U-component_of_WINDS"},"data":[0.0,0.0,0.0,0.0,0.0,0.0,0.0,0.0,0.0,0.0,0.0,0.0,0.0,0.0,0.0,0.0,0.0,0.0,0.0,0.0,0.0,0.0,0.0,0.0,0.0,0.0,0.0,0.0,0.0,0.0,0.0,0.0,0.0,0.0,0.0,0.0,0.0,0.0,0.0,0.0,0.0,0.0,0.0,0.0,0.0,0.0,0.0,0.0,0.0,0.0,0.0,0.0,0.0,0.0,0.0,0.0,0.0,0.0,0.0,0.0,0.0,0.0,0.0,0.0,0.0,0.0,0.0,0.0,0.0,0.0,0.0,0.0,0.0,0.0,0.0,0.0,0.0,0.0,0.0,0.0,0.0,0.0,0.0,0.0,0.0,0.0,0.0,0.0,0.0,0.0,0.0,-0.2602,-0.1787,-0.1287,-0.1323,-0.0505,0.03,0.0987,0.0,0.0,0.0,0.0,0.0,0.0,0.0,0.0,0.0,0.0,0.0,0.0,0.0,0.0,0.0,0.0,0.0,0.0,0.0,0.0,0.0,0.0,0.0,0.0,0.0,0.0,0.0,0.0,0.0,0.0,0.0,0.0,0.0,0.0,0.0,0.0,0.0,0.0,0.0,0.0,0.0,0.0,0.0,0.0,0.0,0.0,0.0,0.0,0.0,0.0,0.0,0.0,0.0,0.0,0.0,0.0,0.0,0.0,0.0,0.0,0.0,0.0,0.0,0.0,0.0,0.0,0.0,0.0,0.0,0.0,0.0,0.0,0.0,0.0,0.0,0.0,0.0,0.0,0.0,0.0,0.0,0.0,0.0,0.0,0.0,0.0,0.0,0.0,0.0,0.0,0.0,0.0,0.0,0.0,0.0,0.0,0.0,0.0,0.0,0.0,0.0,0.0,0.0,0.0,-0.325,-0.4219,-0.296,-0.2088,-0.2264,-0.0881,0.0462,0.1593,0.0,0.0,0.0,0.0,0.0,0.0,0.0,0.0,0.0,0.0,0.0,0.0,0.0,0.0,0.0,0.0,0.0,0.0,0.0,0.0,0.0,0.0,0.0,0.0,0.0,0.0,0.0,0.0,0.0,0.0,0.0,0.0,0.0,0.0,0.0,0.0,0.0,0.0,0.0,0.0,0.0,0.0,0.0,0.0,0.0,0.0,0.0,0.0,0.0,0.0,0.0,0.0,0.0,0.0,0.0,0.0,0.0,0.0,0.0,0.0,0.0,0.0,0.0,0.0,0.0,0.0,0.0,0.0,0.0,0.0,0.0,0.0,0.0,0.0,0.0,0.0,0.0,0.0,0.0,0.0,0.0,0.0,0.0,0.0,0.0,0.0,0.0,0.0,0.0,0.0,0.0,0.0,0.0,0.0,0.0,0.0,0.0,0.0,0.0,0.0,0.0,0.0,0.0,-0.3458,-0.3798,-0.3938,-0.2997,-0.2206,-0.179,-0.0667,0.0389,0.1267,0.1124,0.0,0.0,0.0,0.0,0.0,0.0,0.0,0.0,0.0,0.0,0.0,0.0,0.0,0.0,0.0,0.0,0.0,0.0,0.0,0.0,0.0,0.0,0.0,0.0,0.0,0.0,0.0,0.0,0.0,0.0,0.0,0.0,0.0,0.0,0.0,0.0,0.0,0.0,0.0,0.0,0.0,0.0,0.0,0.0,0.0,0.0,0.0,0.0,0.0,0.0,0.0,0.0,0.0,0.0,0.0,0.0,0.0,0.0,0.0,0.0,0.0,0.0,0.0,0.0,0.0,0.0,0.0,0.0,0.0,0.0,0.0,0.0,0.0,0.0,0.0,0.0,0.0,0.0,0.0,0.0,0.0,0.0,0.0,0.0,0.0,0.0,0.0,0.0,0.0,0.0,0.0,0.0,0.0,0.0,0.0,0.0,0.0,0.0,0.0,0.0,0.0,0.0,-0.4382,-0.4267,-0.3485,-0.2859,-0.2137,-0.1233,-0.0442,0.0253,0.0873,0.1144,0.0,0.0,0.0,0.0,0.0,0.0,0.0,0.0,0.0,0.0,0.0,0.0,0.0,0.0,0.0,0.0,0.0,0.0,0.0,0.0,0.0,0.0,0.0,0.0,0.0,0.0,0.0,0.0,0.0,0.0,0.0,0.0,0.0,0.0,0.0,0.0,0.0,0.0,0.0,0.0,0.0,0.0,0.0,0.0,0.0,0.0,0.0,0.0,0.0,0.0,0.0,0.0,0.0,0.0,0.0,0.0,0.0,0.0,0.0,0.0,0.0,0.0,0.0,0.0,0.0,0.0,0.0,0.0,0.0,0.0,0.0,0.0,0.0,0.0,0.0,0.0,0.0,0.0,0.0,0.0,0.0,0.0,0.0,0.0,0.0,0.0,0.0,0.0,0.0,0.0,0.0,0.0,0.0,0.0,0.0,0.0,0.0,0.0,0.0,0.0,0.0,0.0,-0.4409,-0.445,-0.383,-0.2993,-0.2175,-0.1342,-0.0503,0.0249,0.0851,0.1154,0.0,0.0,0.0,0.0,0.0,0.0,0.0,0.0,0.0,0.0,0.0,0.0,0.0,0.0,0.0,0.0,0.0,0.0,0.0,0.0,0.0,0.0,0.0,0.0,0.0,0.0,0.0,0.0,0.0,0.0,0.0,0.0,0.0,0.0,0.0,0.0,0.0,0.0,0.0,0.0,0.0,0.0,0.0,0.0,0.0,0.0,0.0,0.0,0.0,0.0,0.0,0.0,0.0,0.0,0.0,0.0,0.0,0.0,0.0,0.0,0.0,0.0,0.0,0.0,0.0,0.0,0.0,0.0,0.0,0.0,0.0,0.0,0.0,0.0,0.0,0.0,0.0,0.0,0.0,0.0,0.0,0.0,0.0,0.0,0.0,0.0,0.0,0.0,0.0,0.0,0.0,0.0,0.0,0.0,0.0,0.0,0.0,0.0,0.0,0.0,0.0,0.0,-0.3938,-0.36,0.0,-0.2262,-0.1394,-0.0548,-0.0185,0.026,0.0856,0.0,0.0,0.0,0.0,0.0,0.0,0.0,0.0,0.0,0.0,0.0,0.0,0.0,0.0,0.0,0.0,0.0,0.0,0.0,0.0,0.0,0.0,0.0,0.0,0.0,0.0,0.0,0.0,0.0,0.0,0.0,0.0,0.0,0.0,0.0,0.0,0.0,0.0,0.0,0.0,0.0,0.0,0.0,0.0,0.0,0.0,0.0,0.0,0.0,0.0,0.0,0.0,0.0,0.0,0.0,0.0,0.0,0.0,0.0,0.0,0.0,0.0,0.0,0.0,0.0,0.0,0.0,0.0,0.0,0.0,0.0,0.0,0.0,0.0,0.0,0.0,0.0,0.0,0.0,0.0,0.0,0.0,0.0,0.0,0.0,0.0,0.0,0.0,0.0,0.0,0.0,0.0,0.0,0.0,0.0,0.0,0.0,0.0,0.0,0.0,0.0,0.0,-0.4108,-0.3772,-0.3166,0.0,-0.1822,-0.0932,-0.0066,0.0,0.0265,0.087,0.0,0.0,0.0,0.0,0.0,0.0,0.0,0.0,0.0,0.0,0.0,0.0,0.0,0.0,0.0,0.0,0.0,0.0,0.0,0.0,0.0,0.0,0.0,0.0,0.0,0.0,0.0,0.0,0.0,0.0,0.0,0.0,0.0,0.0,0.0,0.0,0.0,0.0,0.0,0.0,0.0,0.0,0.0,0.0,0.0,0.0,0.0,0.0,0.0,0.0,0.0,0.0,0.0,0.0,0.0,0.0,0.0,0.0,0.0,0.0,0.0,0.0,0.0,0.0,0.0,0.0,0.0,0.0,0.0,0.0,0.0,0.0,0.0,0.0,0.0,0.0,0.0,0.0,0.0,0.0,0.0,0.0,0.0,0.0,0.0,0.0,0.0,0.0,0.0,0.0,0.0,0.0,0.0,0.0,0.0,0.0,0.0,0.0,0.0,0.0,0.0,0.0,-0.4301,-0.396,-0.3362,-0.2762,-0.1841,-0.094,-0.0067,0.0,0.0261,0.0,0.0,0.0,0.0,0.0,0.0,0.0,0.0,0.0,0.0,0.0,0.0,0.0,0.0,0.0,0.0,0.0,0.0,0.0,0.0,0.0,0.0,0.0,0.0,0.0,0.0,0.0,0.0,0.0,0.0,0.0,0.0,0.0,0.0,0.0,0.0,0.0,0.0,0.0,0.0,0.0,0.0,0.0,0.0,0.0,0.0,0.0,0.0,0.0,0.0,0.0,0.0,0.0,0.0,0.0,0.0,0.0,0.0,0.0,0.0,0.0,0.0,0.0,0.0,0.0,0.0,0.0,0.0,0.0,0.0,0.0,0.0,0.0,0.0,0.0,0.0,0.0,0.0,0.0,0.0,0.0,0.0,0.0,0.0,0.0,0.0,0.0,0.0,0.0,0.0,0.0,0.0,0.0,0.0,0.0,0.0,0.0,0.0,0.0,0.0,0.0,0.0,0.0,-0.4341,-0.3525,-0.2798,-0.2699,-0.1309,-0.0269,-0.0034,0.0,0.0446,0.1459,0.0,0.0,0.0,0.0,0.0,0.0,0.0,0.0,0.0,0.0,0.0,0.0,0.0,0.0,0.0,0.0,0.0,0.0,0.0,0.0,0.0,0.0,0.0,0.0,0.0,0.0,0.0,0.0,0.0,0.0,0.0,0.0,0.0,0.0,0.0,0.0,0.0,0.0,0.0,0.0,0.0,0.0,0.0,0.0,0.0,0.0,0.0,0.0,0.0,0.0,0.0,0.0,0.0,0.0,0.0,0.0,0.0,0.0,0.0,0.0,0.0,0.0,0.0,0.0,0.0,0.0,0.0,0.0,0.0,0.0,0.0,0.0,0.0,0.0,0.0,0.0,0.0,0.0,0.0,0.0,0.0,0.0,0.0,0.0,0.0,0.0,0.0,0.0,0.0,0.0,0.0,0.0,0.0,0.0,0.0,0.0,0.0,0.0,0.0,0.0,0.0,0.0,-0.4515,-0.3737,-0.302,-0.2792,-0.1491,-0.045,-0.0034,0.0,0.0398,0.1374,0.0,0.0,0.0,0.0,0.0,0.0,0.0,0.0,0.0,0.0,0.0,0.0,0.0,0.0,0.0,0.0,0.0,0.0,0.0,0.0,0.0,0.0,0.0,0.0,0.0,0.0,0.0,0.0,0.0,0.0,0.0,0.0,0.0,0.0,0.0,0.0,0.0,0.0,0.0,0.0,0.0,0.0,0.0,0.0,0.0,0.0,0.0,0.0,0.0,0.0,0.0,0.0,0.0,0.0,0.0,0.0,0.0,0.0,0.0,0.0,0.0,0.0,0.0,0.0,0.0,0.0,0.0,0.0,0.0,0.0,0.0,0.0,0.0,0.0,0.0,0.0,0.0,0.0,0.0,0.0,0.0,0.0,0.0,0.0,0.0,0.0,0.0,0.0,0.0,0.0,0.0,0.0,0.0,0.0,0.0,0.0,0.0,0.0,0.0,0.0,0.0,0.0,-0.4763,-0.4373,-0.3773,-0.3107,-0.2179,-0.1189,-0.0247,-0.0067,0.0253,0.0859,0.0,0.0,0.0,0.0,0.0,0.0,0.0,0.0,0.0,0.0,0.0,0.0,0.0,0.0,0.0,0.0,0.0,0.0,0.0,0.0,0.0,0.0,0.0,0.0,0.0,0.0,0.0,0.0,0.0,0.0,0.0,0.0,0.0,0.0,0.0,0.0,0.0,0.0,0.0,0.0,0.0,0.0,0.0,0.0,0.0,0.0,0.0,0.0,0.0,0.0,0.0,0.0,0.0,0.0,0.0,0.0,0.0,0.0,0.0,0.0,-0.4484,0.0,0.0,0.0,0.0,0.0,0.0,0.0,0.0,0.0,0.0,0.0,0.0,0.0,0.0,0.0,0.0,0.0,0.0,0.0,0.0,0.0,0.0,0.0,0.0,0.0,0.0,0.0,0.0,0.0,0.0,0.0,0.0,0.0,0.0,0.0,0.0,0.0,0.0,0.0,0.0,0.0,-0.482,-0.4453,-0.4166,-0.4154,-0.2614,-0.1524,-0.1263,-0.0482,0.026,0.0857,0.0,0.0,0.0,0.0,0.0,0.0,0.0,0.0,0.0,0.0,0.0,0.0,0.0,0.0,0.0,0.0,0.0,0.0,0.0,0.0,0.0,0.0,0.0,0.0,0.0,0.0,0.0,0.0,0.0,0.0,0.0,0.0,0.0,0.0,0.0,0.0,0.0,0.0,0.0,0.0,0.0,0.0,0.0,0.0,0.0,0.0,0.0,0.0,0.0,0.0,0.0,0.0,0.0,0.0,0.0,0.0,0.0,0.0,0.0,0.0,0.0,-0.6537,0.0,0.0,0.0,0.0,0.0,0.0,0.0,0.0,0.0,0.0,0.0,0.0,0.0,0.0,0.0,0.0,0.0,0.0,0.0,0.0,0.0,0.0,0.0,0.0,0.0,0.0,0.0,0.0,0.0,0.0,0.0,0.0,0.0,0.0,0.0,0.0,0.0,0.0,0.0,0.0,-0.5067,-0.5105,-0.4941,-0.4646,-0.3235,-0.2136,-0.1631,-0.0608,0.0137,0.0452,0.0611,0.0,0.0,0.0,0.0,0.0,0.0,0.0,0.0,0.0,0.0,0.0,0.0,0.0,0.0,0.0,0.0,0.0,0.0,0.0,0.0,0.0,0.0,0.0,0.0,0.0,0.0,0.0,0.0,0.0,0.0,0.0,0.0,0.0,0.0,0.0,0.0,0.0,0.0,0.0,0.0,0.0,0.0,0.0,0.0,0.0,0.0,0.0,0.0,0.0,0.0,0.0,0.0,0.0,-1.7094,-1.7661,-1.7757,-1.8204,-1.7713,-1.624,-1.269,-1.0561,-0.9518,-0.8363,0.0,0.0,0.0,0.0,0.0,0.0,0.0,0.0,0.0,0.0,0.0,0.0,0.0,0.0,0.0,0.0,0.0,0.0,0.0,0.0,0.0,0.0,0.0,0.0,-0.6071,-0.522,0.0,0.0,0.0,0.0,0.0,0.0,0.0,0.0,0.0,0.0,0.0,0.0,-0.5358,-0.5772,-0.5745,-0.5063,-0.3865,-0.275,-0.194,-0.0707,0.0,0.0,0.0371,0.0629,0.0,0.0,0.0,0.0,0.0,0.0,0.0,0.0,0.0,0.0,0.0,0.0,0.0,0.0,0.0,0.0,0.0,0.0,0.0,0.0,0.0,0.0,0.0,0.0,0.0,0.0,0.0,0.0,0.0,0.0,0.0,0.0,-0.7186,-0.5766,0.0,0.0,0.0,0.0,0.0,0.0,0.0,0.0,0.0,0.0,0.0,0.0,0.0,-1.7459,-1.7981,-1.8927,-1.9112,-1.8549,-1.9218,-1.9557,-1.9557,-1.9614,-1.9541,-1.9296,-1.8737,0.0,-1.1633,-1.0583,0.0,0.0,0.0,0.0,0.0,0.0,0.0,0.0,0.0,0.0,0.0,0.0,0.0,0.0,0.0,0.0,0.0,0.0,0.0,0.0,0.0,0.0,-0.9734,-0.9884,-0.9875,-0.9654,0.0,-0.5259,-0.217,-0.2425,-0.195,0.0,0.0,0.0,0.0,0.0,0.0,0.0,-0.5501,-0.5833,-0.6016,-0.6086,-0.4297,-0.3041,-0.2914,-0.1105,0.0,0.0,0.0068,0.039,0.1009,0.0983,0.0,0.0,0.0,0.0,0.0,0.0,0.0,0.0,0.0,0.0,0.0,0.0,0.0,0.0,0.0,0.0,0.0,0.0,0.0,0.0,0.0,0.0,0.0,0.0,0.0,0.0,0.0,0.0,0.0,-0.9814,-1.0748,-1.0135,-0.9345,-0.8466,0.0,0.0,0.0,0.0,0.0,0.0,0.0,0.0,0.0,-1.9316,-1.9984,-2.073,-2.1568,-2.1992,-2.2422,-2.2751,-2.3027,-2.3433,-2.3858,-2.3684,-2.3123,-2.2364,-2.2105,-2.0212,-1.7131,-1.5846,-1.4882,-1.4193,0.0,0.0,0.0,0.0,-1.3587,-1.3579,-1.4663,-1.5128,0.0,-1.369,0.0,0.0,0.0,0.0,0.0,0.0,0.0,0.0,0.0,0.0,-1.0774,-1.0953,-1.1047,-1.1047,-1.0752,-0.8834,-0.6677,0.0,-0.406,-0.3278,-0.2707,0.0,0.0,0.0,0.0,0.0,-0.58,-0.5555,-0.5428,-0.5485,-0.3575,-0.2265,-0.2237,-0.0872,0.0,0.0,0.0,0.0139,0.0474,0.078,0.1052,0.0,0.0,0.0,0.0,0.0,0.0,0.0,0.0,0.0,0.0,0.0,0.0,0.0,0.0,0.0,0.0,0.0,0.0,0.0,0.0,0.0,0.0,0.0,0.0,0.0,0.0,0.0,0.0,-1.3736,-1.4406,-1.4323,-1.4053,-1.3532,0.0,0.0,0.0,0.0,0.0,0.0,-2.0843,-2.1254,-2.1957,-2.3125,-2.3759,-2.4422,-2.5125,-2.5145,-2.5409,-2.6005,-2.6005,-2.6356,-2.7012,-2.6699,-2.597,-2.4983,-2.4688,-2.3827,-2.2539,-2.0366,-1.9101,-1.8477,-1.7923,-1.6957,-1.605,-1.7479,-1.7517,-1.7147,-1.8969,-1.9692,-1.9609,-1.8202,-1.7613,-1.7115,-1.5336,0.0,0.0,0.0,0.0,-1.2873,-1.2223,-1.2197,-1.2406,-1.2609,-1.2754,-1.2752,-1.2507,-1.2115,-1.0889,0.0,-0.6693,-0.5705,-0.4252,0.0,0.0,0.0,0.0,-0.5969,-0.6125,-0.5416,-0.4902,-0.4902,-0.2932,-0.1583,-0.1598,-0.0612,0.0,0.0,0.0,0.0,0.0,0.0543,0.0772,0.0671,0.0,0.0,0.0,0.0,0.0,0.0,0.0,0.0,0.0,0.0,0.0,0.0,0.0,0.0,0.0,0.0,0.0,0.0,0.0,0.0,0.0,0.0,0.0,0.0,0.0,0.0,0.0,0.0,0.0,-1.7913,-1.9771,0.0,0.0,0.0,0.0,-2.1451,-2.3024,-2.4324,-2.5158,-2.6512,-2.7657,-2.8476,-2.9442,-2.9569,-2.8775,-2.8726,-2.8143,-2.6953,-2.6953,-2.6973,-2.7012,-2.6992,-2.6922,-2.6871,-2.6851,-2.6781,-2.6403,-2.2355,-2.0352,-1.9799,-1.9499,-1.9126,-1.8837,-1.9228,-2.0219,-2.1246,-2.0245,-2.0839,-2.1825,-2.0559,-1.9586,-1.8922,-1.9133,-1.8557,0.0,0.0,-1.6846,-1.6919,-1.6191,-1.6042,-1.6087,-1.6378,-1.6457,-1.6262,-1.5695,-1.4744,-1.3205,0.0,-0.9883,-0.9207,-0.7769,0.0,-0.7007,-0.6052,-0.6118,-0.6327,-0.647,-0.5565,-0.4902,-0.4902,-0.2932,-0.1591,-0.159,-0.0617,0.0,0.0,0.0,0.0,0.0,0.0036,0.0069,0.0033,0.1348,0.0,0.0,0.0,0.0,0.0,0.0,0.0,0.0,0.0,0.0,0.0,0.0,0.0,0.0,0.0,0.0,0.0,0.0,0.0,0.0,0.0,0.0,0.0,0.0,0.0,0.0,0.0,0.0,-2.2688,-2.3542,0.0,-2.2581,-2.3933,-2.5325,-2.6311,-2.7281,-2.8221,-2.9108,-2.932,-2.9693,-3.0232,-3.0616,-3.0647,-3.0295,-3.0295,-3.0204,-3.0035,-2.9152,-2.886,-2.9075,-2.7954,-2.7441,-2.7422,-2.7129,-2.7012,-2.6922,-2.5409,-2.4678,-2.4391,-2.3738,-2.2942,-2.2214,-2.2852,-2.2973,-2.2793,-2.3399,-2.3984,-2.4317,-2.3617,-2.2795,-2.1987,-2.1419,-2.0927,-2.0218,-1.8348,-1.802,-1.7941,-1.6648,-1.6321,-1.6246,-1.6166,-1.6139,-1.6037,-1.5872,-1.5486,-1.4876,-1.3817,-1.2092,-1.0533,-0.9725,-0.9009,-0.8348,-0.774,-0.7291,-0.6959,-0.6905,-0.5982,-0.5009,-0.4154,-0.2665,-0.1393,-0.0645,-0.0213,0.0,0.0,0.0,0.0,0.0,0.0,0.0,0.0,0.1515,0.2134,0.0,0.0,0.0,0.0,0.0,0.0,0.0,0.0,0.0,0.0,0.0,0.0,0.0,0.0,0.0,0.0,0.0,0.0,0.0,0.0,0.0,0.0,0.0,0.0,0.0,0.0,-2.4587,-2.6126,-2.7018,-2.7334,-2.692,-2.8194,-2.947,-3.0518,-3.1097,-3.1714,-3.2374,-3.2199,-3.2324,-3.2816,-3.3004,-3.2975,-3.2699,-3.2699,-3.2613,-3.2454,-3.1051,-3.0548,-3.0769,-2.9093,-2.8354,-2.8335,-2.7851,-2.7656,-2.7637,-2.75,-2.7441,-2.7363,-2.6504,-2.5637,-2.5033,-2.5527,-2.5216,-2.4714,-2.5759,-2.6025,-2.5898,-2.5605,-2.5039,-2.4295,-2.3598,-2.3299,-2.2811,-2.0682,-1.9922,-1.9372,-1.7789,-1.705,-1.6633,-1.6353,-1.6273,-1.6219,-1.6019,-1.6059,-1.6005,-1.5618,-1.3985,-1.2449,-1.1612,-1.0559,-0.964,-0.8991,-0.8094,-0.7414,-0.7305,-0.6322,-0.5322,-0.4427,-0.2857,-0.153,-0.0755,-0.0261,0.0,0.0,0.0,0.0,0.0,0.0,0.0,0.0,0.1284,0.1914,0.1788,0.0,0.0,0.0,0.0,0.0,0.0,0.0,0.0,0.0,0.0,0.0,0.0,0.0,0.0,0.0,0.0,0.0,0.0,0.0,0.0,0.0,0.0,0.0,-2.4825,-2.6339,-2.7595,-2.8197,-3.0156,-3.106,-3.0055,-3.1888,-3.3345,-3.3897,-3.4424,-3.4705,-3.4731,-3.5257,-3.5855,-3.643,-3.6935,-3.685,-3.6036,-3.606,-3.5423,-3.4102,-3.2588,-3.1855,-3.1801,-3.0274,-2.9626,-2.9551,-2.9121,-2.8945,-2.8961,-2.8496,-2.8393,-2.8295,-2.7383,-2.7031,-2.7031,-2.7031,-2.7012,-2.7012,-2.7012,-2.6738,-2.6406,-2.6406,-2.6113,-2.5732,-2.5713,-2.5713,-2.545,-2.4097,-2.2717,-2.1389,-1.9973,-1.8589,-1.7502,-1.7259,-1.7192,-1.7032,-1.6442,-1.6486,-1.6513,-1.5939,-1.5605,-1.4943,-1.351,-1.2221,-1.0971,-0.9769,-0.8488,0.0,-0.7604,-0.6596,-0.5837,-0.5784,-0.3592,-0.208,-0.2078,-0.0875,-0.0084,-0.0042,-0.004,-0.0039,0.0,0.0,0.0,0.0035,0.0599,0.1208,0.1816,0.0,0.0,0.0,0.0,0.0,0.0,0.0,0.0,0.0,0.0,0.0,0.0,0.0,0.0,0.0,0.0,0.0,0.0,0.0,0.0,0.0,0.0,-2.7017,-2.7168,-2.8649,-3.0206,-3.1537,-3.2591,-3.3244,-3.3345,-3.3922,-3.4324,-3.4474,-3.4956,-3.5458,-3.5881,-3.6433,-3.6985,-3.7538,-3.7688,-3.7691,-3.7469,-3.7469,-3.7269,-3.6894,-3.4439,-3.3228,-3.3175,-3.075,-2.9626,-2.957,-2.9453,-3.0018,-3.0928,-2.9754,-2.9859,-3.0619,-2.8403,-2.748,-2.7441,-2.7129,-2.7012,-2.7012,-2.7012,-2.6934,-2.6836,-2.6836,-2.6758,-2.6602,-2.6309,-2.6211,-2.5885,-2.417,-2.2717,-2.134,-1.9735,-1.8329,-1.7246,-1.6901,-1.6834,-1.6727,-1.6402,-1.6388,-1.6286,-1.5899,-1.5718,-1.5544,-1.517,-1.4051,-1.276,-1.1423,-1.018,0.0,-0.7863,-0.7459,-0.6888,-0.5889,-0.519,-0.4352,-0.3368,-0.295,-0.2336,-0.1347,-0.1286,-0.0897,-0.004,0.0,0.0315,0.0914,0.0995,0.1383,0.0,0.0,0.0,0.0,0.0,0.0,0.0,0.0,0.0,0.0,0.0,0.0,0.0,0.0,0.0,0.0,0.0,0.0,0.0,0.0,0.0,0.0,-2.7494,-2.9402,-3.0105,-3.1035,-3.2089,-3.3269,-3.3897,-3.4449,-3.4956,-3.5031,-3.5207,-3.5705,-3.6056,-3.6458,-3.701,-3.7362,-3.7789,-3.8341,-3.8366,-3.8467,-3.8718,-3.8718,-3.8718,-3.8718,-3.6417,-3.5343,-3.5237,-3.2369,-3.1095,-3.1019,-3.0184,-3.031,-3.105,-3.002,-3.0107,0.0,0.0,0.0,0.0,0.0,-2.7539,-2.7539,-2.7539,-2.7441,-2.7285,-2.7285,-2.7168,-2.6973,-2.6719,-2.6641,-2.6431,-2.5409,-2.3556,-2.1738,-2.0778,-1.8949,-1.7313,-1.6954,-1.6887,-1.6807,-1.6513,-1.6603,-1.6603,-1.6259,-1.6192,0.0,-1.6032,-1.4833,-1.3632,-1.2861,-1.117,-0.9665,-0.8837,-0.8244,-0.7576,-0.681,-0.6224,-0.5588,-0.4772,-0.415,0.0,0.0,0.0,-0.224,-0.1543,-0.1526,0.0,0.0,0.0,0.0,0.0,0.0,0.0,0.0,0.1709,0.1874,0.0,0.0,0.0,0.0,0.0,0.0,0.0,0.0,0.0,0.0,0.0,0.0,0.0,0.0,0.0,0.0,-2.9528,-3.1436,-3.3043,-3.3319,-3.3545,-3.4022,-3.4525,-3.5006,-3.5633,-3.5683,-3.6157,-3.7186,-3.7287,-3.7513,-3.8065,0.0,0.0,0.0,0.0,-3.9195,-3.9697,-3.9697,-3.9697,-3.9697,-3.819,-3.74,-3.7133,-3.457,-3.3191,-3.2773,-3.1211,-3.0539,-3.0519,-2.9976,-2.9783,-2.9763,-2.9665,-2.9336,-2.8945,-2.8574,-2.8398,-2.8359,-2.8359,0.0,0.0,-2.7787,-2.748,-2.7148,-2.7109,-2.709,-2.709,-2.7031,-2.4896,-2.2582,-2.2324,-2.0106,-1.7818,-1.7365,-1.7246,-1.7166,-1.682,-1.7018,-1.7112,-1.6767,-1.67,-1.662,-1.6366,-1.5103,-1.4076,-1.392,-1.194,-1.0337,-1.0051,-0.8973,-0.8187,-0.8038,0.0,0.0,-0.6203,-0.5023,-0.4185,-0.4032,-0.3808,-0.3653,-0.3661,-0.3626,-0.314,-0.2055,-0.2051,-0.1506,-0.0436,-0.0481,-0.0395,-0.0175,0.1167,0.1481,0.0,0.0,0.0,0.0,0.0,0.0,0.0,0.0,0.0,0.0,0.0,0.0,0.0,0.0,0.0,-3.0156,-3.1738,-3.3018,-3.4223,-3.4731,-3.5056,-3.5182,-3.5282,-3.5734,-3.6759,-3.686,-3.7136,-3.7789,-3.7839,-3.809,-3.8668,-3.8718,-3.8969,-3.9521,-3.9546,-3.9597,-3.9697,-3.9697,-3.9697,-3.9697,0.0,0.0,-3.5727,-3.5123,-3.3586,-3.1383,-3.2219,-3.2556,-3.2442,-3.1164,-3.0644,-3.0566,-2.9844,-2.9512,-2.9434,-2.9355,-2.9101,-2.8789,-2.8789,-2.8516,-2.8164,-2.8164,-2.8105,-2.7988,-2.7637,-2.7539,0.0,-2.7109,-2.5769,-2.4156,-2.2703,-2.106,-1.943,-1.7871,-1.7502,-1.7474,-1.7179,-1.7166,-1.7112,-1.6767,-1.67,-1.6687,-1.6633,-1.5985,-1.5092,-1.4064,-1.3488,-1.2377,-1.0288,-0.9756,-0.9213,-0.8137,-0.7763,-0.755,-0.7482,-0.72,-0.6579,-0.5496,-0.4497,-0.3931,-0.3913,-0.3942,-0.3808,-0.3599,-0.3581,-0.3476,-0.3241,-0.3342,-0.2759,-0.1589,-0.022,0.0343,0.0,0.0,0.0,0.0,0.0,0.0,0.0,0.0,0.0,0.0,0.0,-2.4556,-2.648,0.0,-2.998,-3.1913,-3.3169,-3.4198,-3.4981,-3.5332,-3.5508,-3.5508,-3.5984,-3.6584,-3.7136,-3.7437,-3.7839,-3.8391,-3.8442,-3.8693,-3.9245,-3.927,-3.9396,-3.9697,-3.9697,-3.9697,-3.9697,-3.9697,-3.9697,-3.9697,-3.8973,-3.7796,-3.6379,-3.5617,-3.409,-3.1977,-3.1977,-3.1977,-3.192,-3.1228,-3.0898,-3.084,-3.041,-3.0078,-2.9863,-2.9648,-2.9434,-2.9238,-2.9238,-2.9101,-2.8887,-2.8672,-2.8613,-2.8535,-2.8105,-2.7988,-2.793,-2.7715,-2.6503,-2.4897,-2.3277,-2.166,-2.0018,-1.825,-1.7809,-1.7729,-1.7487,-1.742,-1.738,-1.7168,-1.7034,-1.6927,-1.6927,-1.6567,-1.5963,-1.5225,-1.4401,-1.344,-1.2134,-1.0828,-0.9756,-0.9065,-0.8379,-0.7961,-0.788,-0.7874,-0.7618,-0.6936,-0.6351,-0.6016,-0.6016,-0.6016,-0.5729,-0.5154,-0.5151,-0.4862,-0.4238,-0.4328,-0.3949,-0.3218,-0.2569,-0.1456,0.0,0.0,0.0,0.0,0.0,0.0,0.0,0.0,-2.4545,-2.6747,-2.7044,-2.7449,-2.9202,-3.0733,-3.2114,-3.3345,-3.4299,-3.5031,-3.5583,-3.5658,-3.5658,-3.5658,-3.6584,-3.7236,-3.7337,-3.7839,-3.8417,-3.8994,-3.907,-3.922,-3.9672,-3.9697,-3.9697,-3.9697,-3.9697,-3.9697,-3.9697,-3.9798,-3.9798,-3.9697,-3.9798,-3.9019,-3.7477,-3.6271,-3.4792,-3.3021,-3.1556,-3.0898,-3.0898,-3.0898,-3.0898,-3.0898,-3.0898,-3.0664,-3.0293,-2.9961,-2.9766,-2.9744,-2.9744,-2.9704,-2.9567,-2.916,-2.8984,-2.8848,-2.8516,-2.8359,-2.8301,-2.8301,-2.7264,-2.5772,-2.4233,-2.2521,-2.0777,-1.893,-1.8239,-1.7929,-1.7729,-1.7622,-1.7582,-1.7582,-1.7447,-1.7286,-1.7286,-1.6994,-1.6673,-1.6375,-1.5177,-1.4268,-1.3932,-1.2086,-1.0583,-1.0043,-0.9023,-0.83,-0.8079,-0.8035,-0.8049,-0.8076,-0.8076,-0.8076,-0.8076,-0.8076,-0.7667,-0.6754,-0.6704,-0.6241,-0.5292,-0.5313,-0.5151,-0.4904,-0.4923,-0.3289,-2.1875,-2.2666,-2.351,-2.4612,-2.4717,-2.5659,0.0,0.0,-2.9117,-3.0468,-3.1098,-3.1562,-3.1776,-3.2416,-3.342,-3.4956,-3.5332,-3.5608,-3.6229,-3.6329,-3.6329,-3.6329,-3.681,-3.7387,-3.7864,-3.8442,-3.8994,-3.9572,-3.9597,-3.9622,-3.9697,-3.9697,-3.9697,-3.9697,-3.9697,-3.9697,-3.9697,-4.0174,-4.0174,-3.9697,-4.0199,-3.9389,-3.7506,-3.7346,-3.5704,-3.3021,-3.1556,-3.0898,-3.0898,-3.0898,-3.0898,-3.0898,-3.0898,-3.0859,-3.082,-3.0762,-3.0488,-3.0137,-3.0137,-2.9883,-2.957,-2.9567,-2.9238,-2.8906,-2.8867,-2.8594,-2.8301,-2.8301,-2.8135,-2.7573,-2.5808,-2.4235,-2.2657,-2.0846,-1.9175,-1.7982,-1.7955,-1.7782,-1.7582,-1.7582,-1.7555,-1.7542,-1.7542,-1.734,-1.6965,-1.6402,-1.6149,-1.5531,-1.41,-1.3632,-1.2571,-1.0239,-0.9854,-0.9375,-0.833,-0.8241,-0.8296,-0.8425,-0.8431,-0.8431,-0.8431,-0.8431,-0.8379,-0.8275,-0.8275,-0.8177,-0.8033,-0.8162,-0.7582,-0.6295,-0.6394,-0.4858,-2.5614,-2.5753,0.0,0.0,-2.8355,-2.9364,-3.3136,-3.3033,-3.2567,-3.4192,-3.3783,-3.333,-3.3975,-3.4675,-3.54,0.0,-3.7419,-3.7889,-3.7468,-3.7356,-3.7021,-3.6024,-3.6659,-3.7387,-3.7939,-3.8542,-3.9094,-3.9647,-3.9697,-3.9697,-3.9697,-3.9697,-3.9848,-4.0174,-4.0174,-4.0325,-4.0651,-4.0824,-4.0824,-4.0651,-4.0824,-4.0079,-3.8435,-3.8435,-3.6789,-3.3817,-3.2315,-3.1641,-3.1641,-3.1641,-3.1484,-3.125,-3.125,-3.1113,-3.0898,-3.0898,-3.0762,-3.0605,-3.0605,-3.0488,-3.0293,-3.0019,-2.9805,-2.9609,-2.9375,-2.9004,-2.8652,-2.8652,-2.8476,-2.7921,-2.6333,-2.5414,-2.4493,-2.2711,-2.1012,-1.9785,-1.9599,-1.8629,-1.7849,-1.7849,-1.7702,-1.7582,-1.7582,-1.7527,-1.7313,-1.6898,-1.6633,-1.6275,-1.5603,-1.412,-1.2074,-0.9326,-0.8885,-0.8729,-0.8422,-0.8391,-0.8492,-0.873,-0.875,-0.875,-0.875,-0.8662,-0.8655,-0.8743,-0.8662,-0.8662,-0.875,-0.8811,-0.851,-0.7901,-0.7962,-0.6874,-2.8298,0.0,0.0,-3.0537,-3.1288,-3.2186,-3.4864,-3.5091,-3.5116,-3.6408,-3.5471,-3.4673,-3.5378,-3.5808,-3.6297,-3.7157,-3.8495,-3.9227,-3.8693,-3.8201,-3.7422,-3.6151,-3.6548,-3.7093,-3.7536,-3.8341,-3.9044,-3.9446,-3.9622,-3.9697,-3.9697,-3.9848,-4.0099,-4.0501,-4.0651,-4.0874,-4.1275,-4.1505,-4.148,-4.1275,-4.1505,-4.0913,-3.9709,-3.9299,-3.7406,-3.4442,-3.3295,-3.2573,-3.2229,-3.2229,-3.1992,-3.168,-3.1562,-3.1328,-3.1055,-3.0937,-3.0898,-3.0898,-3.0898,-3.0898,-3.084,-3.0488,-3.0293,-3.0137,-2.9844,-2.9434,-2.9082,-2.8945,-2.8711,-2.8203,-2.7025,-2.6372,-2.5755,-2.4493,-2.2592,-2.1073,-2.0848,-1.937,-1.8115,-1.8115,-1.7916,-1.7716,-1.7716,-1.7635,-1.7515,-1.7353,-1.7088,-1.6887,-1.6727,-1.4281,-1.1821,-0.9709,-0.8678,-0.8269,-0.852,-0.8547,-0.8655,-0.8865,-0.8885,-0.8885,-0.8885,-0.8832,-0.8825,-0.8885,-0.8832,-0.8825,-0.8885,-0.8885,-0.8885,-0.8885,-0.8885,-0.8325,0.0,0.0,-3.1105,-3.2491,-3.3059,-3.3596,-3.4996,-3.6043,-3.6625,-3.6281,-3.6184,-3.6018,-3.5584,-3.5095,-3.5327,-3.7024,-3.7783,-3.8559,-3.9667,-3.8387,-3.7307,-3.7237,-3.67,-3.6371,0.0,-3.7964,-3.8919,-3.8944,-3.9396,-3.9697,-3.9697,-4.0199,-4.0501,-4.0526,-4.0974,-4.1275,-4.1275,-4.1856,-4.1856,-4.13,-4.1882,-4.1856,-4.1168,-3.9764,-3.7406,-3.448,-3.4442,-3.3593,-3.2229,-3.2229,-3.2168,-3.2109,-3.168,-3.1504,-3.1445,-3.1035,-3.0898,-3.0898,-3.0898,-3.0898,-3.0898,-3.0879,-3.0566,-3.0195,-3.0176,-2.9883,-2.9453,-2.9043,-2.8906,-2.8809,-2.8345,-2.7168,-2.61,-2.6027,-2.3541,-2.1203,-2.1077,-1.9695,-1.8477,-1.8477,-1.8237,-1.7982,-1.7982,-1.7782,-1.7582,-1.7569,-1.7555,-1.7355,-1.678,-1.4281,-1.2587,-1.2485,-1.0067,-0.8533,-0.8689,-0.8703,-0.8771,-0.8871,-0.8885,-0.8885,-0.8885,-0.8878,-0.8878,-0.8885,-0.8878,-0.8878,-0.8885,-0.8885,-0.8885,-0.8885,-0.8885,-0.8885,0.0,0.0,-3.2257,-3.3517,-3.3728,-3.4053,-3.5546,-3.6711,-3.7442,-3.73,-3.6912,-3.6646,-3.6906,-3.6829,-3.7219,-3.8615,-4.0019,-4.0974,-4.1028,-3.9865,-3.8717,-3.7927,-3.7624,0.0,0.0,0.0,0.0,-3.8894,-3.9095,-3.9295,-3.9672,-4.0224,-4.0676,-4.1,-4.158,-4.2057,-4.2434,-4.261,-4.261,-4.2434,-4.261,-4.261,-4.2379,-4.0829,-3.9531,-3.8468,-3.7414,-3.6665,-3.6089,-3.5001,-3.441,-3.4083,-3.283,-3.2187,-3.1894,-3.1465,-3.1309,-3.1269,-3.0996,-3.0898,-3.0898,-3.0898,-3.0781,-3.0664,-3.0664,-3.0351,-2.9961,-2.9805,-2.957,-2.9258,-2.8828,-2.8311,-2.7889,-2.7622,-2.5937,-2.4137,-2.3141,-2.1501,-1.996,-1.894,-1.8544,-1.8343,-1.8343,-1.825,-1.8116,-1.7916,-1.7716,-1.7187,-1.5974,-1.4115,-1.2496,-1.1563,-0.9684,-0.8547,-0.8696,-0.871,-0.8777,-0.8871,-0.8885,-0.8885,-0.8885,-0.8838,-0.8832,-0.8885,-0.8838,-0.8838,-0.8885,-0.8885,-0.8885,-0.8885,-0.8885,-0.8885,-3.0792,-3.1763,-3.2688,-3.453,-3.4246,-3.3834,-3.4872,-3.6172,-3.7157,-3.6959,-3.6682,-3.6589,-3.702,-3.6712,-3.7082,-3.9021,-4.05,-4.1587,-4.2117,-4.1053,-3.9915,-3.917,-3.9057,0.0,0.0,0.0,0.0,-3.8591,-3.8944,-3.9396,-3.9948,-4.0501,-4.1053,-4.1605,-4.2158,-4.2665,-4.2986,-4.2986,-4.2986,-4.2986,-4.2986,-4.2986,-4.2961,-4.1899,-4.1133,-4.0534,-3.9522,-3.8757,-3.8104,-3.7062,-3.6164,-3.5305,-3.4146,-3.315,-3.2344,-3.1914,-3.1758,-3.166,-3.1094,-3.0898,-3.0898,-3.0898,-3.0898,-3.0898,-3.0898,-3.0684,-3.041,-3.0234,-3.0,-2.9687,-2.9258,-2.9043,-2.8848,-2.8574,-2.7262,-2.5827,-2.482,-2.2847,-2.0991,-2.0061,-1.9219,-1.8651,-1.8651,-1.8557,-1.8424,-1.8237,-1.7943,-1.7383,-1.6299,-1.4836,-1.3519,-1.2617,-1.0654,-0.9479,-0.9529,-0.9056,-0.8832,-0.8878,-0.8885,-0.8885,-0.8885,-0.8845,-0.8838,-0.8885,-0.8845,-0.8838,-0.8885,-0.8885,-0.8885,-0.8885,-0.8885,-0.8967,-3.2942,-3.2891,-3.2604,-3.5338,-3.4568,-3.3111,-3.3111,-3.4706,-3.5991,-3.5372,-3.5563,-3.5834,0.0,0.0,-3.5179,-3.8227,-3.9265,-4.0535,-4.3021,-4.1928,-4.0914,0.0,0.0,0.0,0.0,0.0,0.0,-3.8162,0.0,-3.9873,-4.0475,-4.1,-4.1605,-4.2187,-4.274,-4.2986,-4.2986,-4.2986,-4.2986,-4.2986,-4.2986,-4.2986,-4.2986,-4.2986,-4.215,-4.0707,-4.0707,-3.9896,-3.8461,-3.8342,-3.7424,-3.6009,-3.5504,-3.441,-3.3021,-3.2527,-3.237,-3.2191,-3.1309,-3.0937,-3.0918,-3.0898,-3.0898,-3.0898,-3.0898,-3.0898,-3.0801,-3.0351,-3.0234,-3.0137,-2.9707,-2.9297,-2.8984,-2.8965,-2.7542,-2.6245,-2.6136,-2.3822,-2.1699,-2.1643,-2.0132,-1.8945,-1.8945,-1.8704,-1.8517,-1.8517,-1.8263,-1.7902,-1.7649,-1.634,-1.5411,-1.5411,-1.2886,-1.1219,-1.1219,-0.9864,-0.8995,-0.8995,-0.894,-0.8885,-0.8885,-0.8885,-0.8885,-0.8885,-0.8885,-0.8885,-0.8885,-0.8892,-0.8892,-0.8892,-0.8905,-0.9035,-3.142,-3.3233,-3.4846,-3.4116,-3.3471,-3.3111,-3.3111,-3.4374,-3.5344,-3.4689,-3.4695,-3.4685,0.0,0.0,0.0,-3.7464,-3.9543,0.0,-4.3768,-4.2943,0.0,0.0,0.0,-4.2137,-4.0237,-4.115,0.0,0.0,-3.8517,-3.9044,-4.045,-4.1,-4.1605,-4.2187,-4.274,-4.2986,-4.2986,-4.2986,-4.2986,-4.2986,-4.2986,-4.2986,-4.2986,-4.2986,-4.2793,-4.2375,-4.2375,-4.215,-4.1672,-4.0476,-3.9756,-3.9265,-3.7948,-3.721,-3.6604,-3.5014,-3.4447,-3.4183,-3.2494,-3.1621,-3.1309,-3.0996,-3.0898,-3.0898,-3.0898,-3.0898,-3.0859,-3.0742,-3.0703,-3.0605,-3.0156,-2.9961,-2.9785,-2.9473,-2.8787,-2.7912,-2.6792,-2.4804,-2.2927,-2.1813,-2.0358,-1.9252,-1.9252,-1.9011,-1.8811,-1.8811,-1.8571,-1.8263,-1.7969,-1.6411,-1.5411,-1.5411,-1.3804,-1.2724,-1.2724,-1.1374,-1.0562,-1.0562,-0.9533,-0.8885,-0.8885,-0.8885,-0.8885,-0.8885,-0.8885,-0.8885,-0.8885,-0.9049,-0.9096,-0.9103,-0.9218,-0.9286,-3.1914,-3.3404,-3.4692,-3.3995,-3.3428,-3.2893,-3.2164,-3.3026,-3.3485,-3.1829,-3.2146,0.0,0.0,0.0,0.0,0.0,0.0,0.0,-4.3599,-4.3548,-4.3691,0.0,-4.4761,0.0,-4.2495,-4.2453,-4.1883,0.0,-3.9474,-3.9622,-4.0802,-4.1404,-4.1957,-4.2564,-4.2811,-4.2986,-4.2986,-4.2986,-4.2986,-4.2986,-4.2986,-4.2986,-4.2986,-4.2986,-4.2986,-4.2986,0.0,-4.2986,-4.2905,-4.2012,-4.1248,-4.0534,-3.9581,-3.8817,-3.806,-3.6959,-3.6093,-3.5305,-3.3983,-3.2853,-3.2012,-3.1582,-3.1328,-3.1172,-3.1172,-3.1035,-3.0898,-3.0898,-3.0898,-3.084,-3.0566,-3.0351,-3.0137,-2.9902,-2.9512,-2.8978,-2.8182,-2.5916,-2.34,-2.106,-1.9982,-1.943,-1.943,-1.9225,-1.9118,-1.9118,-1.8865,-1.8624,-1.8395,-1.7447,-1.6755,-1.6755,-1.4823,-1.3558,-1.3558,-1.2238,-1.1131,-1.0411,-1.0242,-0.9856,-0.913,-0.913,-0.913,-0.913,-0.913,-0.913,-0.913,-0.9211,-0.9309,-0.9309,-0.934,-0.9415,-3.3259,-3.3524,-3.3513,-3.4262,-3.3733,-3.2541,-3.0959,-3.1242,-3.1066,-2.8319,0.0,-2.9492,-2.8508,0.0,-3.3512,-3.513,0.0,-4.0876,-4.2991,-4.3898,-4.4586,-4.5334,-4.6022,-4.5941,-4.4671,-4.3515,-4.2507,-4.1769,-4.1029,-4.0774,-4.125,-4.1856,-4.2464,-4.2961,-4.2986,-4.2986,-4.2986,-4.2986,-4.2986,-4.2986,-4.2986,-4.2986,-4.2986,-4.2986,-4.2986,-4.2986,-4.2986,-4.2986,-4.2986,-4.2986,-4.2206,-4.0937,-4.0937,-4.0071,-3.8817,-3.858,-3.7604,-3.6353,-3.5526,-3.435,-3.3102,-3.2446,-3.1875,-3.1523,-3.1523,-3.123,-3.0898,-3.0898,-3.0898,-3.0898,-3.0898,-3.0586,-3.0293,-3.0293,-2.9961,-2.9592,-2.9424,-2.6661,-2.3362,-2.0324,-1.96,-1.9412,-1.943,-1.943,-1.943,-1.943,-1.9145,-1.8985,-1.8985,-1.8691,-1.849,-1.849,-1.6086,-1.4441,-1.4215,-1.2918,-1.138,-0.978,-1.0813,-1.087,-0.9439,-0.9381,-0.9381,-0.9381,-0.9381,-0.9381,-0.9381,-0.9401,-0.9408,-0.9415,-0.9429,-0.951,-3.3476,-3.3791,-3.422,-3.3556,-3.2887,-3.2064,-3.0884,-3.0275,0.0,0.0,0.0,-2.6606,-2.6895,-2.8765,0.0,-3.42,0.0,0.0,0.0,0.0,-4.4766,0.0,0.0,0.0,0.0,0.0,0.0,0.0,0.0,-4.1175,-4.1275,-4.1856,-4.2464,-4.2961,-4.2986,-4.2986,-4.2986,-4.2986,-4.2986,-4.2986,-4.2986,-4.2986,-4.2986,-4.2986,-4.2986,-4.2986,-4.2986,0.0,-4.2986,-4.2986,-4.2849,-4.2544,-4.2544,-4.2375,-4.2012,-4.065,-3.9989,-3.9382,-3.6674,-3.5517,-3.4964,-3.2891,-3.1875,-3.1523,-3.1523,-3.123,-3.0898,-3.0898,-3.0898,-3.0898,-3.0898,-3.084,-3.0762,-3.0762,-3.043,-2.9736,-2.8378,-2.5311,-2.2644,-2.1875,-2.0634,-1.9653,-1.947,-1.943,-1.943,-1.943,-1.9319,-1.9292,-1.9292,-1.8824,-1.849,-1.849,-1.8033,-1.7173,-1.5805,-1.4385,-1.2851,-1.1257,-1.0293,-0.9671,-0.9439,-0.9381,-0.9381,-0.9381,-0.9381,-0.9381,-0.9381,-0.951,-0.9571,-0.9571,-0.9693,-0.9761,-3.4048,-3.3911,-3.3768,-3.324,-3.2416,-3.126,-2.9327,0.0,0.0,0.0,0.0,-2.3985,-2.364,0.0,0.0,0.0,0.0,0.0,0.0,0.0,0.0,0.0,0.0,0.0,0.0,0.0,0.0,0.0,0.0,-4.2153,-4.181,-4.2283,-4.271,-4.2961,-4.2986,-4.2986,-4.2986,-4.2986,-4.2986,-4.2986,-4.2986,-4.2986,-4.2986,-4.2986,-4.2986,-4.2986,-4.2986,0.0,-4.2986,-4.2986,-4.2986,-4.2986,-4.2986,-4.2986,-4.293,-4.2125,-4.1305,-4.0361,-3.8853,-3.7723,-3.6695,-3.4716,-3.3234,-3.2148,-3.1914,-3.1562,-3.1172,-3.0957,-3.0898,-3.0898,-3.0898,-3.0898,-3.0898,-3.0898,-3.0723,-2.9833,-2.7223,-2.5324,-2.3497,-2.152,-2.0539,-1.9987,-1.984,-1.9693,-1.9586,-1.9586,-1.9466,-1.943,-1.943,-1.9118,-1.8945,-1.8945,-1.8236,-1.7068,-1.5445,-1.4692,-1.3227,-1.0776,-1.0783,-1.0487,-0.9671,-0.9612,-0.9612,-0.9612,-0.9612,-0.9612,-0.9612,-0.9686,-0.972,-0.972,-0.9788,-0.9863,-3.4615,-3.4079,-3.3386,-3.3154,-3.2139,-3.0532,-2.7896,-2.6239,0.0,0.0,-2.1376,-2.1799,-2.1139,0.0,0.0,0.0,0.0,0.0,0.0,0.0,0.0,0.0,0.0,0.0,0.0,0.0,0.0,0.0,0.0,0.0,-4.2418,-4.2791,-4.2986,-4.2986,-4.2986,-4.2986,-4.2986,-4.2986,-4.2986,-4.2986,-4.2986,-4.2986,-4.2986,-4.2986,-4.2986,-4.2986,-4.2986,0.0,0.0,-4.2986,-4.2986,-4.2986,-4.2986,-4.2986,-4.2986,-4.2986,-4.2206,-4.1076,-4.0707,-3.9756,-3.8461,-3.682,-3.4963,-3.3208,-3.2525,-3.1934,-3.1445,-3.1113,-3.0957,-3.0898,-3.0898,-3.0898,-3.0898,-3.0898,-3.0645,-2.9691,-2.7246,-2.593,-2.4379,-2.185,-2.0794,-2.0307,-2.018,-2.004,-1.9893,-1.9893,-1.9693,-1.9546,-1.9546,-1.9492,-1.9466,-1.9466,-1.8323,-1.6856,-1.5252,-1.4777,-1.3347,-1.0482,-1.1201,-1.114,-0.9883,-0.9822,-0.9822,-0.9822,-0.9822,-0.9822,-0.9822,-0.9856,-0.9869,-0.9869,-0.9903,-0.9985,-3.5022,-3.4635,-3.4304,-3.3368,-3.1863,-3.008,-2.7795,0.0,0.0,-2.1169,-2.0367,-2.0399,-2.1508,-2.2616,-2.4695,-2.8828,-3.0891,-3.3718,0.0,0.0,0.0,0.0,0.0,0.0,0.0,0.0,0.0,0.0,0.0,0.0,-4.2997,-4.2961,-4.2986,-4.2986,-4.2986,-4.2986,-4.2986,-4.2986,-4.2986,-4.2986,-4.2986,-4.2986,-4.2986,-4.2986,-4.2986,-4.2986,-4.2986,0.0,0.0,-4.2986,-4.2986,-4.2986,-4.2986,-4.2986,-4.2986,-4.2986,-4.293,-4.2569,-4.1133,-4.0476,-4.0105,-3.8521,-3.6638,-3.4712,-3.3228,-3.2168,-3.1504,-3.1465,-3.1191,-3.0898,-3.0898,-3.0898,-3.0898,-3.0898,-2.9707,-2.8961,-3.0158,-2.6936,-2.4024,-2.4859,-2.2657,-2.0548,-2.0281,-2.0153,-2.0127,-2.0127,-2.0113,-2.0147,-2.0147,-1.992,-1.976,-1.976,-1.9402,-1.8519,-1.6915,-1.5429,-1.3825,-1.2097,-1.0778,-0.9943,-0.9822,-0.9822,-0.9822,-0.9822,-0.9822,-0.9822,-0.9822,-0.9896,-0.9963,-0.997,-1.0175,-1.0243,-3.5825,-3.533,-3.4594,-3.4163,-3.2092,-2.9528,-2.7329,0.0,-2.2819,-2.0614,-1.9962,-1.9964,-2.0502,-2.1485,-2.3017,-2.5577,-2.7797,-3.0601,0.0,0.0,0.0,0.0,0.0,0.0,0.0,0.0,0.0,0.0,0.0,0.0,-4.4209,-4.3436,-4.2986,-4.2986,-4.2986,-4.2986,-4.2986,-4.2986,-4.2986,-4.2986,-4.2986,-4.2986,-4.2986,-4.2986,-4.2986,-4.2986,-4.2986,0.0,0.0,-4.2986,-4.2986,-4.2986,-4.2986,-4.2986,-4.2986,-4.2986,-4.2986,-4.2905,-4.2263,-4.2012,-4.1785,-4.0187,-3.8444,-3.6676,-3.4816,-3.3135,-3.1855,-3.1582,-3.1211,-3.0898,-3.0898,-3.0898,-3.0898,-3.0898,-3.0392,-2.9844,-2.9471,-2.7091,-2.4915,-2.4483,-2.2515,-2.0895,-2.0775,-2.0615,-2.0494,-2.0494,-2.0347,-2.0167,-2.0167,-2.0134,-2.0054,-2.0054,-1.9639,-1.8829,-1.7363,-1.6524,-1.5007,-1.2612,-1.1671,-1.0838,-0.9822,-0.991,-0.9896,-0.9896,-1.0053,-1.0093,-1.01,-1.0161,-1.0188,-1.0188,-1.0249,-1.0324,-3.6,-3.5725,-3.4794,-3.4509,-3.1951,-2.895,0.0,0.0,-2.2268,-2.0238,-1.9811,-1.9811,-1.9811,-2.0707,-2.1931,-2.339,-2.5855,-2.8771,-3.222,0.0,0.0,0.0,0.0,0.0,0.0,0.0,0.0,0.0,0.0,0.0,-4.4704,-4.361,-4.2986,-4.2986,-4.2986,-4.2986,-4.2986,-4.2986,-4.2986,-4.2986,-4.2986,-4.2986,-4.2986,-4.2986,-4.2986,-4.2986,-4.2986,0.0,0.0,-4.2986,-4.2986,-4.2986,-4.2986,-4.2986,-4.2986,-4.2986,-4.2986,-4.2986,-4.2986,-4.2986,-4.2793,-4.1672,-4.0245,-3.8571,-3.6671,-3.4327,-3.2285,-3.1992,-3.1504,-3.1055,-3.0918,-3.0898,-3.0898,-3.0898,-3.0898,-3.0587,-2.9394,-2.7512,-2.568,-2.4532,-2.2577,-2.1109,-2.1109,-2.0935,-2.0802,-2.0802,-2.0628,-2.0494,-2.0494,-2.0414,-2.0361,-2.0361,-1.992,-1.9279,-1.8311,-1.7661,-1.6358,-1.4279,-1.3545,-1.2439,-1.0804,-1.0791,-1.0607,-1.012,-1.0222,-1.0283,-1.0283,-1.0324,-1.0344,-1.0344,-1.0392,-1.0466,-3.5456,-3.5629,-3.5045,-3.406,-3.1332,-2.8311,0.0,-2.3904,-2.1845,-2.0162,-1.9811,-1.9811,-1.9811,-2.0289,-2.1369,-2.3307,-2.5792,-2.8896,-3.2825,0.0,0.0,0.0,0.0,0.0,0.0,0.0,0.0,0.0,0.0,0.0,-4.4204,-4.3406,-4.2986,-4.2986,-4.2986,-4.2986,-4.2986,-4.2986,-4.2986,-4.2986,-4.2986,-4.2986,-4.2986,-4.2986,-4.2986,0.0,0.0,0.0,0.0,-4.2986,-4.2986,-4.2986,-4.2986,-4.2986,-4.2986,-4.2986,-4.2986,-4.2986,-4.2986,-4.2986,-4.2986,-4.2986,-4.1899,-4.0303,-3.8698,-3.5613,-3.2793,-3.2793,-3.2168,-3.1406,-3.0996,-3.0898,-3.0898,-3.0898,-3.0898,-3.0898,-3.0898,-2.8307,-2.5984,-2.5984,-2.3373,-2.1109,-2.1109,-2.1109,-2.1109,-2.1109,-2.1096,-2.1096,-2.1096,-2.0855,-2.0668,-2.0668,-2.0401,-2.0167,-2.0167,-1.8789,-1.7848,-1.786,-1.6371,-1.4696,-1.2955,-1.2901,-1.2091,-1.034,-1.0283,-1.0283,-1.0283,-1.0419,-1.0487,-1.0493,-1.0643,-1.0717,-3.261,-3.3248,-3.3381,-3.2131,-2.9893,-2.754,-2.5682,-2.3743,-2.1845,-2.0137,-1.9811,-1.9811,-1.9811,-1.9962,-2.0923,-2.3463,-2.5988,-2.8575,0.0,0.0,0.0,0.0,0.0,0.0,0.0,0.0,0.0,0.0,0.0,0.0,-4.5496,-4.4362,-4.3521,-4.3017,-4.2986,-4.2986,-4.2986,-4.2986,-4.2986,-4.2986,-4.2986,-4.2986,-4.2986,-4.2986,-4.2986,0.0,0.0,0.0,0.0,-4.2986,-4.2986,-4.2986,-4.2986,-4.2986,-4.2986,-4.2986,-4.2986,-4.2986,-4.2986,-4.2986,-4.2986,-4.2986,-4.1899,-4.0303,-3.8698,-3.6458,-3.4146,-3.2789,-3.1953,-3.1484,-3.1348,-3.1113,-3.0898,-3.0898,-3.0898,-3.0898,-3.0898,-2.8307,-2.5984,-2.5984,-2.3373,-2.1109,-2.1109,-2.1109,-2.1109,-2.1109,-2.1109,-2.1109,-2.1109,-2.1029,-2.0975,-2.0975,-2.0882,-2.0748,-2.0548,-1.9907,-1.9122,-1.8232,-1.7522,-1.5876,-1.3026,-1.302,-1.2195,-1.049,-1.0527,-1.0582,-1.0582,-1.0622,-1.0649,-1.0649,-1.0697,-1.0778,0.0,-3.1275,-3.1572,-3.0797,-2.8947,-2.6965,-2.5477,-2.3553,-2.1676,-2.045,-1.9965,-1.9811,-1.9811,-1.9987,-2.0765,-2.2723,-2.5405,-2.7951,0.0,0.0,0.0,0.0,0.0,0.0,0.0,0.0,0.0,0.0,0.0,0.0,-4.6133,-4.463,-4.3676,-4.3409,-4.3139,-4.2986,-4.2986,-4.2986,-4.2986,-4.2986,-4.2986,-4.2986,-4.2986,-4.2986,-4.2986,0.0,0.0,0.0,0.0,-4.2986,-4.2986,-4.2986,-4.2986,-4.2986,-4.2986,-4.2986,-4.2986,-4.2986,-4.2986,-4.2986,-4.2986,-4.2986,-4.1899,-4.0303,-3.8698,-3.6467,-3.4228,-3.2806,-3.2207,-3.1973,-3.1797,-3.1445,-3.1133,-3.1133,-3.0996,-3.0898,-3.0898,-2.8801,-2.6712,-2.6106,-2.3854,-2.1853,-2.1235,-2.1109,-2.1109,-2.1109,-2.1109,-2.1109,-2.1109,-2.1109,-2.1109,-2.1109,-2.1109,-2.1042,-2.0855,-2.0668,-2.0195,-1.9412,-1.92,-1.7906,-1.513,-1.4491,-1.3341,-1.1605,-1.0993,-1.0717,-1.0717,-1.0717,-1.0717,-1.0724,-1.0778,-1.0793,0.0,-2.9314,-2.96,-2.9602,-2.8154,-2.6452,-2.5356,-2.3312,0.0,-2.1002,-2.0321,-1.9913,-1.9989,-2.0391,-2.097,-2.1728,-2.46,0.0,0.0,0.0,0.0,0.0,0.0,0.0,0.0,0.0,0.0,0.0,0.0,0.0,-4.62,-4.4447,-4.3621,-4.3993,-4.3358,-4.2997,-4.2986,-4.2986,-4.2986,-4.2986,-4.2986,-4.2986,-4.2986,-4.2986,-4.2986,0.0,0.0,0.0,-4.2986,-4.2986,-4.2986,-4.2986,-4.2986,-4.2986,-4.2986,-4.2986,-4.2986,-4.2986,-4.2986,-4.2986,-4.2986,-4.2986,-4.1899,-4.0303,-3.8817,-3.6112,-3.3466,-3.3011,-3.2812,-3.2695,-3.2324,-3.1894,-3.1562,-3.1562,-3.1269,-3.0976,-3.0976,-2.9683,-2.808,-2.6537,-2.4857,-2.3212,-2.1606,-2.1226,-2.1176,-2.1176,-2.1149,-2.1149,-2.1149,-2.1122,-2.1109,-2.1109,-2.1109,-2.1109,-2.1109,-2.1109,-2.1109,-2.1109,-2.1109,-2.0322,-1.8576,-1.6947,-1.52,-1.3325,-1.1563,-1.0724,-1.0738,-1.0738,-1.0744,-1.0758,-1.0833,-1.09,-2.2918,0.0,-2.6376,-2.5396,-2.5094,-2.4901,0.0,-2.3178,-2.2212,-2.1609,0.0,-2.0807,-2.1641,-2.119,-2.1741,-2.4961,-2.7332,0.0,0.0,0.0,0.0,0.0,0.0,0.0,0.0,0.0,0.0,0.0,0.0,-4.6784,-4.6217,-4.5751,-4.4836,-4.3466,-4.3258,-4.3087,-4.3017,-4.2986,-4.2986,-4.2986,-4.2986,-4.2986,-4.2986,-4.2986,-4.2986,0.0,0.0,-4.2986,-4.2986,-4.2986,-4.2986,-4.2986,-4.2986,-4.2986,-4.2986,-4.2986,-4.2986,-4.2986,-4.2986,-4.2986,-4.2986,-4.2986,-4.1899,-4.0534,-4.0187,-3.7783,-3.4943,-3.3658,-3.3047,-3.2773,-3.2676,-3.2324,-3.2012,-3.2012,-3.1934,-3.1875,-3.1875,-3.0588,-2.9249,-2.8879,-2.6433,-2.4242,-2.3872,-2.266,-2.1777,-2.1777,-2.159,-2.1443,-2.1443,-2.1256,-2.1109,-2.1109,-2.1109,-2.1109,-2.1109,-2.1109,-2.1109,-2.1109,-2.1109,-2.0322,-1.8576,-1.8116,-1.6431,-1.339,-1.1563,-1.0778,-1.0826,-1.0826,-1.0948,-1.1056,-1.1097,-1.1179,-2.0457,-2.2921,-2.4963,-2.4246,-2.4562,-2.4921,-2.4646,-2.3569,0.0,0.0,0.0,-2.148,-2.2371,-2.1957,-2.2463,-2.5472,-2.7265,0.0,0.0,0.0,0.0,0.0,0.0,0.0,0.0,0.0,0.0,0.0,0.0,-4.7124,-4.6708,-4.6136,-4.5468,-4.4612,-4.3419,-4.2657,-4.2208,-4.2233,-4.2359,-4.2665,-4.2665,-4.2791,-4.2986,-4.2986,-4.2986,0.0,0.0,-4.2986,-4.2986,-4.2986,-4.2986,-4.2986,-4.2986,-4.2986,-4.2986,-4.2986,-4.2986,-4.2986,-4.2986,-4.2986,-4.2986,-4.2986,-4.2375,-4.1558,-4.0822,-3.9405,-3.7484,-3.515,-3.3786,-3.3086,-3.3086,-3.2773,-3.2461,-3.2461,-3.2305,-3.2229,-3.2229,-3.152,-3.0624,-2.9847,-2.8209,-2.6423,-2.4853,-2.3833,-2.2948,-2.2109,-2.1857,-2.175,-2.175,-2.1617,-2.151,-2.151,-2.151,-2.151,-2.151,-2.151,-2.1403,-2.1122,-2.1109,-2.0652,-1.9737,-1.8896,-1.6872,-1.3451,-1.2472,-1.1694,-1.105,-1.105,-1.1084,-1.1234,-1.1233,-1.1314,-1.9938,-2.2323,-2.4545,-2.4246,-2.4814,-2.5435,-2.5315,0.0,0.0,0.0,0.0,0.0,0.0,0.0,0.0,0.0,0.0,0.0,0.0,0.0,0.0,0.0,0.0,0.0,0.0,0.0,0.0,0.0,0.0,-4.7309,-4.7309,-4.6299,-4.5784,-4.6074,-4.3959,-4.2364,-4.1372,-4.1307,-4.158,-4.2087,-4.2162,-4.2464,-4.2861,-4.2936,-4.2986,-4.2986,0.0,0.0,-4.2986,-4.2986,-4.2986,-4.2986,-4.2986,-4.2986,-4.2986,-4.2986,-4.2986,-4.2986,-4.2986,-4.2986,-4.2986,-4.2986,-4.2986,-4.2737,-4.1362,-4.0765,-4.0047,-3.7303,-3.5211,-3.3776,-3.3776,-3.3332,-3.2891,-3.2891,-3.2617,-3.2363,-3.2363,-3.2363,-3.1976,-3.0544,-3.0028,-2.8885,-2.5701,-2.494,-2.4174,-2.2376,-2.2084,-2.2044,-2.2044,-2.2017,-2.1991,-2.1991,-2.1991,-2.1991,-2.1991,-2.1991,-2.1777,-2.1269,-2.1243,-2.1243,-2.1243,-1.9542,-1.7282,-1.4441,-1.3847,-1.2934,-1.1676,-1.14,-1.1212,-1.1233,-1.1362,-1.1423,-2.1634,-2.34,-2.4216,-2.2562,-2.3439,-2.4605,-2.4059,-2.3694,0.0,0.0,0.0,0.0,0.0,0.0,0.0,0.0,0.0,0.0,0.0,0.0,0.0,0.0,0.0,0.0,0.0,0.0,0.0,0.0,0.0,-4.7309,-4.7309,-4.7106,-4.6535,-4.5533,-4.5167,-4.384,-4.1581,-4.1408,-4.1326,-4.1455,-4.1932,-4.2263,-4.2363,-4.276,-4.2986,-4.2986,0.0,-4.2986,-4.2986,-4.2986,-4.2986,-4.2986,-4.2986,-4.2986,-4.2986,-4.2986,-4.2986,-4.2986,-4.2986,-4.2986,-4.2986,-4.2986,-4.2986,-4.2961,-4.2737,-4.1672,-4.0476,-3.9989,-3.7723,-3.5437,-3.5437,-3.4385,-3.332,-3.332,-3.3281,-3.3223,-3.3223,-3.3223,-3.316,-3.2889,-3.1649,-3.0012,-2.7998,-2.6351,-2.4765,-2.2998,-2.2512,-2.2352,-2.2352,-2.2138,-2.1991,-2.1991,-2.1991,-2.1991,-2.1991,-2.1991,-2.1951,-2.1857,-2.1844,-2.1844,-2.1844,-2.0162,-1.9037,-1.8473,-1.5451,-1.3865,-1.3763,-1.2112,-1.1423,-1.1552,-1.1572,-1.1586,-2.0759,-2.2313,-2.343,-2.2862,-2.4777,-2.6692,-2.6363,-2.6004,0.0,0.0,0.0,0.0,0.0,0.0,0.0,0.0,0.0,0.0,0.0,0.0,0.0,0.0,0.0,0.0,0.0,0.0,0.0,0.0,0.0,0.0,-4.7309,-4.7309,-4.7019,-4.6432,-4.5779,-4.4489,-4.2641,-4.1843,-4.1284,-4.0902,-4.1153,-4.143,-4.1731,-4.1982,-4.2082,-4.2108,0.0,-4.259,-4.2615,-4.2861,-4.2986,-4.2986,-4.2986,-4.2986,-4.2986,-4.2986,-4.2986,-4.2986,-4.2986,-4.2986,-4.2986,-4.2986,-4.2986,-4.2986,-4.2986,-4.2488,-4.1899,-4.1899,-3.8971,-3.5806,-3.5806,-3.4612,-3.3418,-3.3418,-3.3418,-3.3418,-3.3418,-3.3418,-3.3418,-3.3418,-3.2765,-3.1643,-2.993,-2.8147,-2.6373,-2.4588,-2.3337,-2.2659,-2.2659,-2.2539,-2.2458,-2.2458,-2.2458,-2.2458,-2.2458,-2.2458,-2.2325,-2.2004,-2.1991,-2.1991,-2.1991,-2.1238,-2.0426,-1.9555,-1.7852,-1.6599,-1.584,-1.4938,-1.4568,-1.4654,-1.4654,-1.4143,-2.0486,-2.1744,-2.3152,-2.4059,-2.6004,-2.7889,-2.8667,-2.8214,-2.7764,0.0,0.0,0.0,0.0,0.0,0.0,0.0,0.0,0.0,0.0,0.0,0.0,0.0,0.0,0.0,0.0,0.0,0.0,0.0,0.0,0.0,-4.7309,-4.7309,-4.7309,-4.7309,-4.6344,-4.5207,-4.3975,-4.2689,-4.1428,-4.0325,-4.045,-4.0752,-4.11,-4.1225,-4.1275,-4.13,-4.1781,-4.2087,-4.2238,-4.2665,-4.2861,-4.2986,-4.2986,-4.2986,-4.2986,-4.2986,-4.2986,-4.2986,-4.2986,-4.2986,-4.2986,-4.2986,-4.2986,-4.2986,-4.2986,-4.2986,-4.2986,-4.2986,-4.0047,-3.682,-3.6478,-3.515,-3.3902,-3.3481,-3.3418,-3.3418,-3.3418,-3.3418,-3.3418,-3.3418,-3.3418,-3.2829,-3.1093,-2.9344,-2.7569,-2.5786,-2.3992,-2.2928,-2.2928,-2.2928,-2.2928,-2.2928,-2.2928,-2.2928,-2.2928,-2.2928,-2.2672,-2.2218,-2.2191,-2.2191,-2.2191,-2.2191,-2.1616,-2.0371,-1.9962,-1.9094,-1.7879,-1.7388,-1.7178,-1.7178,-1.7308,-1.6638,-2.2832,-2.343,-2.3999,-2.5914,-2.5644,-2.5711,-2.8816,-2.8543,0.0,-3.0703,0.0,0.0,0.0,0.0,0.0,0.0,0.0,0.0,0.0,0.0,0.0,0.0,0.0,0.0,0.0,0.0,0.0,0.0,0.0,0.0,-4.7309,-4.7309,-4.7309,-4.7309,-4.7222,-4.655,-4.5252,-4.4022,-4.2133,-3.9747,-4.0275,-4.0551,-4.0601,-4.105,-4.1275,-4.1275,-4.1326,-4.1681,-4.2213,-4.2263,-4.2564,-4.2986,-4.2986,-4.2986,-4.2986,-4.2986,-4.2986,-4.2986,-4.2986,-4.2986,-4.2986,-4.2986,-4.2986,-4.2986,-4.2986,-4.2986,-4.2986,-4.2986,-4.1672,-3.9931,-3.8402,-3.682,-3.5273,-3.3776,-3.3418,-3.3418,-3.3418,-3.3418,-3.3418,-3.3418,-3.3418,-3.2829,-3.1093,-2.9344,-2.7569,-2.5786,-2.3992,-2.2928,-2.2928,-2.2928,-2.2928,-2.2928,-2.2928,-2.2928,-2.2928,-2.2928,-2.2914,-2.2874,-2.2874,-2.2874,-2.2874,-2.2874,-2.2806,-2.2682,-2.0938,-2.0039,-1.9912,-1.8089,-1.7178,-1.7188,-1.7541,-1.7571,-2.1605,-2.296,-2.4485,-2.5674,-2.6841,-2.8248,0.0,-3.1031,-3.1779,-3.3634,-3.3993,0.0,0.0,0.0,0.0,0.0,0.0,0.0,0.0,0.0,0.0,0.0,0.0,0.0,0.0,0.0,0.0,0.0,0.0,0.0,-4.6121,-4.6887,-4.7309,-4.7309,-4.7309,-4.6682,-4.5389,-4.4116,-4.2593,-4.0895,-4.0286,-3.9998,-4.0023,-4.0224,-4.0325,-4.0325,-4.0676,-4.0953,-4.1178,-4.1936,-4.2338,-4.2564,-4.2836,-4.2986,-4.2986,-4.2986,-4.2986,-4.2986,-4.2986,-4.2986,-4.2986,-4.2986,-4.2986,-4.2986,-4.2986,-4.2986,-4.2986,-4.2986,-4.2569,-4.1728,-4.0129,-3.8498,-3.6902,-3.5273,-3.4902,-3.4612,-3.3607,-3.3418,-3.3418,-3.3418,-3.3418,-3.3165,-3.2556,-3.0983,-2.9213,-2.7437,-2.5651,-2.4128,-2.3065,-2.2928,-2.2928,-2.2928,-2.2928,-2.2928,-2.2928,-2.2928,-2.2928,-2.2928,-2.2928,-2.2928,-2.2928,-2.2928,-2.2928,-2.2928,-2.2229,-2.1803,-2.1803,-2.1101,-2.0841,-2.1023,-2.112,-2.0698,-2.1336,-2.293,-2.4814,-2.5704,-2.7919,-3.0313,-3.2078,-3.3155,-3.4412,-3.6596,-3.6896,0.0,0.0,0.0,0.0,0.0,0.0,0.0,0.0,0.0,0.0,0.0,0.0,0.0,0.0,0.0,0.0,0.0,0.0,0.0,0.0,-4.5824,-4.6462,-4.7266,-4.6931,-4.6299,-4.5389,-4.4116,-4.2882,-4.1591,-4.0313,-3.9697,-3.9697,-3.9697,-3.9697,-3.9722,-4.0099,-4.035,-4.0576,-4.1505,-4.2162,-4.2514,-4.2891,-4.2986,-4.2986,-4.2986,-4.2986,-4.2986,-4.2986,-4.2986,-4.2986,-4.2986,-4.2986,-4.2986,-4.2986,-4.2986,-4.2986,-4.2986,-4.2986,-4.2737,-4.1672,-4.0187,-3.858,-3.6941,-3.6173,-3.5499,-3.4383,-3.3776,-3.3418,-3.3418,-3.3418,-3.3418,-3.3418,-3.1963,-3.0384,-2.9213,-2.7039,-2.5046,-2.3856,-2.3256,-2.2928,-2.2928,-2.2928,-2.2928,-2.2928,-2.2928,-2.2928,-2.2928,-2.2928,-2.2928,-2.2928,-2.2928,-2.2928,-2.2928,-2.2928,-2.2913,-2.3006,-2.3006,-2.3166,-2.3474,-2.3567,-2.308,-2.2685,-2.364,-2.4933,-2.6273,0.0,0.0,-3.3934,-3.4533,-3.5642,-3.9589,-3.9888,-3.902,-3.7674,0.0,0.0,0.0,0.0,0.0,0.0,0.0,0.0,0.0,0.0,0.0,0.0,0.0,0.0,0.0,0.0,0.0,0.0,-4.421,-4.4674,-4.7149,-4.6077,-4.5389,-4.5389,-4.4116,-4.2834,-4.1591,-4.0313,-3.9697,-3.9697,-3.9697,-3.9697,-3.9697,-3.9697,-3.9998,-4.0551,-4.105,-4.1982,-4.2961,-4.2986,-4.2986,-4.2986,-4.2986,-4.2986,-4.2986,-4.2986,-4.2986,-4.2986,-4.2986,-4.2986,-4.2986,-4.2986,-4.2986,-4.2986,-4.2986,-4.2986,-4.2986,-4.2986,-4.1842,-4.0245,-3.8639,-3.7002,-3.5806,-3.5806,-3.455,-3.3418,-3.3418,-3.3418,-3.3418,-3.3418,-3.1963,-3.0836,-3.0771,-2.7817,-2.5517,-2.5517,-2.4006,-2.2941,-2.2941,-2.2941,-2.2941,-2.2941,-2.2941,-2.2941,-2.2941,-2.2941,-2.2941,-2.2928,-2.2928,-2.2928,-2.2928,-2.2941,-2.302,-2.3327,-2.3327,-2.3487,-2.3781,-2.4075,-2.4209,-2.198,-2.3969,0.0,-2.7679,0.0,0.0,0.0,-3.6537,0.0,0.0,-4.0247,-3.9858,0.0,0.0,0.0,0.0,0.0,0.0,0.0,0.0,0.0,0.0,0.0,0.0,0.0,0.0,0.0,0.0,0.0,0.0,0.0,-4.4069,-4.4794,-4.4627,-4.5115,-4.5389,-4.5389,-4.3266,-4.2398,-4.293,-4.0743,-3.9697,-3.9697,-3.9697,-3.9697,-3.9697,-3.9697,-3.9798,-4.0023,-4.0899,-4.1756,-4.2489,-4.2836,-4.2986,-4.2986,-4.2986,-4.2986,-4.2986,-4.2986,-4.2986,-4.2986,-4.2986,-4.2986,-4.2986,-4.2986,-4.2986,-4.2986,-4.2986,-4.2986,-4.2986,-4.2986,-4.2681,-4.1899,-4.0303,-3.8698,-3.7183,-3.6051,-3.455,-3.3418,-3.3418,-3.3418,-3.3418,-3.3418,-3.2956,-3.2218,-3.0964,-2.9023,-2.6889,-2.4638,-2.3839,-2.35,-2.35,-2.35,-2.35,-2.35,-2.35,-2.35,-2.35,-2.35,-2.3313,-2.2954,-2.3073,-2.3193,-2.3193,-2.3394,-2.3554,-2.3634,-2.3634,-2.3794,-2.4075,-2.4168,-2.4315,-2.3002,-2.5456,0.0,-3.0073,-3.3036,-3.5968,-3.7793,0.0,0.0,0.0,0.0,0.0,0.0,0.0,0.0,0.0,0.0,0.0,0.0,0.0,0.0,0.0,0.0,0.0,0.0,0.0,0.0,0.0,0.0,0.0,0.0,-4.2938,-4.4022,-4.4256,-4.4489,-4.4627,-4.4627,-4.2593,-4.1985,-4.2738,-4.1169,-4.0465,-4.0465,-3.9929,-3.9697,-3.9697,-3.9697,-3.9823,-4.0074,-4.0752,-4.1455,-4.2238,-4.2564,-4.2785,-4.2986,-4.2986,-4.2986,-4.2986,-4.2986,-4.2986,-4.2986,-4.2986,-4.2986,-4.2986,-4.2986,-4.2986,-4.2986,-4.2986,-4.2986,-4.2986,-4.2986,-4.2986,-4.2737,-4.1785,-4.0303,-3.8876,-3.7903,-3.5928,-3.4383,-3.4383,-3.3839,-3.3476,-3.3652,-3.3691,-3.3392,-3.2496,-3.038,-2.7915,-2.5242,-2.4252,-2.3768,-2.3768,-2.3768,-2.3768,-2.3768,-2.3768,-2.3768,-2.3768,-2.3768,-2.3607,-2.3233,-2.3407,-2.35,-2.35,-2.3674,-2.3834,-2.3941,-2.3941,-2.4088,-2.4382,-2.4382,-2.4476,-2.4848,-2.7375,0.0,-3.2826,-3.4651,0.0,-3.8835,0.0,0.0,0.0,0.0,0.0,0.0,0.0,0.0,0.0,0.0,0.0,0.0,0.0,0.0,0.0,0.0,0.0,0.0,0.0,0.0,0.0,0.0,0.0,0.0,-4.1293,-4.2656,-4.5075,-4.3948,-4.3456,-4.3693,-4.2301,-4.1739,-4.1936,-4.1838,-4.1789,-4.1739,-4.0465,-3.98,-3.9697,-3.9697,-3.9973,-4.045,-4.0501,-4.1128,-4.2137,-4.2187,-4.2539,-4.2986,-4.2986,-4.2986,-4.2986,-4.2986,-4.2986,-4.2986,-4.2986,-4.2986,-4.2986,-4.2986,-4.2986,-4.2986,-4.2986,-4.2986,-4.2986,-4.2986,-4.2986,-4.2986,-4.2986,-4.1785,-4.0592,-4.0592,-3.8082,-3.5806,-3.5869,-3.4548,-3.3613,-3.4043,-3.4121,-3.4212,-3.4491,-3.146,-2.8599,-2.6913,-2.5017,-2.3848,-2.3848,-2.3848,-2.3848,-2.3848,-2.3848,-2.3848,-2.3848,-2.3848,-2.3848,-2.3848,-2.3821,-2.3808,-2.3808,-2.3834,-2.3981,-2.4249,-2.4249,-2.4382,-2.4636,-2.4636,-2.4649,-2.3602,-2.6358,0.0,0.0,-3.5639,-3.8063,-3.917,0.0,0.0,0.0,0.0,0.0,0.0,0.0,0.0,0.0,0.0,0.0,0.0,0.0,0.0,0.0,0.0,0.0,0.0,0.0,0.0,0.0,0.0,0.0,-4.1295,-4.1117,-4.163,-4.3064,-4.2397,-4.2978,-4.4978,-4.2738,-4.2593,-4.4581,-4.3551,-4.3074,-4.3074,-4.1789,-4.0642,-3.9697,-3.9697,-3.9772,-3.9898,-4.035,-4.0902,-4.1555,-4.2037,-4.2539,-4.2986,-4.2986,-4.2986,-4.2986,-4.2986,-4.2986,-4.2986,-4.2986,-4.2986,-4.2986,-4.2986,-4.2986,-4.2986,-4.2986,-4.2986,-4.2986,-4.2986,-4.2986,-4.2986,-4.2986,-4.1785,-4.0592,-4.0592,-3.8082,-3.5911,-3.6247,-3.5032,-3.4062,-3.4492,-3.457,-3.4228,-3.3139,-3.1047,-2.9067,-2.7538,-2.559,-2.4449,-2.4449,-2.4449,-2.4449,-2.4449,-2.4449,-2.4449,-2.4449,-2.4449,-2.4449,-2.4449,-2.4235,-2.4115,-2.4115,-2.4329,-2.4476,-2.4543,-2.4543,-2.4569,-2.4636,-2.4636,-2.4756,-2.3427,0.0,0.0,-3.476,0.0,0.0,0.0,0.0,0.0,0.0,0.0,0.0,0.0,0.0,0.0,0.0,0.0,0.0,0.0,0.0,0.0,0.0,0.0,0.0,0.0,0.0,0.0,0.0,0.0,-4.1058,-4.1121,-4.1727,-4.2334,-4.2924,-4.2336,-4.2968,-4.4912,-4.2698,-4.2882,-4.5389,-4.472,-4.4396,-4.4349,-4.2447,-4.0895,-3.9697,-3.9697,-3.9697,-3.9722,-3.9998,-4.045,-4.1003,-4.1555,-4.2108,-4.2665,-4.2942,-4.2986,-4.2986,-4.2986,-4.2986,-4.2986,-4.2986,-4.2986,-4.2986,-4.2986,-4.2986,-4.2986,-4.2986,-4.2986,-4.2986,-4.2986,-4.2986,-4.2986,-4.2986,-4.2375,-4.1728,-4.1728,-4.0001,-3.8325,-3.7758,-3.6583,-3.5509,-3.5073,-3.5195,-3.5056,-3.4301,-3.257,-3.0744,-2.9028,-2.7128,-2.5639,-2.471,-2.4636,-2.4636,-2.4636,-2.5419,-2.5566,-2.4636,-2.5492,-2.5566,-2.4636,-2.4489,-2.4409,-2.4409,-2.4556,-2.4636,-2.4636,-2.4636,-2.4636,-2.4562,-2.4783,-2.493,-2.3229,0.0,-3.2092,-3.6976,-3.8704,0.0,0.0,0.0,0.0,0.0,0.0,0.0,0.0,0.0,0.0,0.0,0.0,0.0,0.0,0.0,0.0,0.0,0.0,0.0,0.0,0.0,0.0,0.0,0.0,-4.1939,-4.1175,-4.2291,-4.3113,-4.3531,-4.2579,-4.2869,-4.4515,-4.2704,-4.3053,-4.556,-4.5676,-4.5598,-4.5298,-4.2978,-4.1219,-4.0032,-3.98,-3.9697,-3.9697,-3.9697,-4.0023,-4.0576,-4.1075,-4.1681,-4.2263,-4.2816,-4.2986,-4.2986,-4.2986,-4.2986,-4.2986,-4.2986,-4.2986,-4.2986,-4.2986,-4.2986,-4.2986,-4.2986,-4.2986,-4.2986,-4.2986,-4.2986,-4.2986,-4.2986,-4.3062,-4.3112,-4.3112,-4.2217,-4.0952,-3.9431,-3.7992,-3.6749,-3.5697,-3.5801,-3.6016,-3.6016,-3.4383,-3.2525,-3.0522,-2.8629,-2.6794,-2.4784,-2.4636,-2.4636,-2.4636,-2.6357,-2.6648,-2.471,-2.643,-2.6648,-2.471,-2.4636,-2.4663,-2.4716,-2.4663,-2.4636,-2.4636,-2.469,-2.4716,-2.4716,-2.501,-2.5184,-2.1685,0.0,-3.3042,0.0,-3.7853,0.0,0.0,0.0,0.0,0.0,0.0,0.0,0.0,0.0,0.0,0.0,0.0,0.0,0.0,0.0,0.0,0.0,0.0,0.0,0.0,0.0,0.0,0.0,-4.224,-4.2063,-4.2898,-4.1725,-4.2022,-4.4121,-4.1578,-4.1773,-4.5173,-4.3432,-4.3789,-4.6185,-4.6751,-4.6462,-4.5343,-4.3882,-4.2544,-4.1269,-4.016,-3.9697,-3.9697,-3.9697,-4.0023,-4.0576,-4.1075,-4.1681,-4.2263,-4.2816,-4.2986,-4.2986,-4.2986,-4.2986,-4.2986,-4.2986,-4.2986,-4.2986,-4.2986,-4.2986,-4.2986,-4.2986,-4.2986,-4.2986,-4.2986,-4.2986,-4.2986,-4.2986,-4.3338,-4.3689,-4.3689,-4.2485,-4.1163,-4.031,-3.7963,-3.613,-3.5918,-3.5976,-3.6016,-3.6016,-3.4383,-3.2525,-3.0522,-2.8629,-2.6794,-2.4784,-2.4636,-2.4636,-2.4636,-2.6357,-2.6648,-2.471,-2.643,-2.6648,-2.471,-2.4636,-2.4756,-2.5024,-2.477,-2.4636,-2.4636,-2.489,-2.5024,-2.5024,-2.5317,-2.5598,-2.3175,-2.7431,-3.1372,0.0,0.0,0.0,0.0,0.0,0.0,0.0,0.0,0.0,0.0,0.0,0.0,0.0,0.0,0.0,0.0,0.0,0.0,0.0,0.0,0.0,0.0,0.0,0.0,0.0,-4.286,-4.278,-4.325,-4.2567,-4.2631,-4.3738,-4.2124,-4.2378,-4.4695,-4.3618,-4.4181,-4.6279,-4.698,-4.7019,-4.6388,-4.5161,-4.3504,-4.1541,-4.0262,-3.9697,-3.9697,-3.9697,-3.9848,-4.0149,-4.0949,-4.148,-4.1806,-4.266,-4.2986,-4.2986,-4.2986,-4.2986,-4.2986,-4.2986,-4.2986,-4.2986,-4.2986,-4.2986,-4.2986,-4.2986,-4.2986,-4.2986,-4.2986,-4.3212,-4.3438,-4.3438,-4.3865,-4.4342,-4.4669,-4.4193,-4.312,-4.1153,-3.8976,-3.7126,-3.6152,-3.6016,-3.6016,-3.6016,-3.5314,-3.4089,-3.2158,-3.0255,-2.8341,-2.643,-2.5286,-2.4636,-2.4636,-2.7582,-2.8619,-2.6688,-2.959,-3.0575,-2.8618,-2.8544,-2.8044,-2.7087,-2.5623,-2.4957,-2.513,-2.5264,-2.5317,-2.5331,-2.5625,-2.5825,-2.3389,-2.6472,-2.9006,-3.2946,0.0,0.0,0.0,0.0,0.0,0.0,0.0,0.0,0.0,0.0,0.0,0.0,0.0,0.0,0.0,0.0,0.0,0.0,0.0,0.0,0.0,0.0,0.0,0.0,-4.329,-4.329,-4.329,-4.329,-4.329,-4.329,-4.2578,-4.2769,-4.4007,-4.3776,-4.451,-4.6322,-4.683,-4.716,-4.7266,-4.5958,-4.4349,-4.2496,-4.0895,-3.9981,-3.9697,-3.9697,-3.9697,-3.9798,-4.0752,-4.1175,-4.1401,-4.2409,-4.2861,-4.2986,-4.2986,-4.2986,-4.2986,-4.2986,-4.2986,-4.2986,-4.2986,-4.2986,-4.2986,-4.2986,-4.2986,-4.3011,-4.3162,-4.3489,-4.384,-4.3966,-4.4443,-4.497,-4.5397,-4.5276,-4.4402,-4.2259,-4.0083,-3.8221,-3.6856,-3.6287,-3.6016,-3.6016,-3.6016,-3.5295,-3.3448,-3.1948,-3.031,-2.8413,-2.6983,-2.6251,-2.6251,-2.9704,-3.1075,-2.9121,-3.2433,-3.3621,-3.1709,-3.1563,-3.0949,-2.9482,-2.7773,-2.6405,-2.5518,-2.5585,-2.5625,-2.5625,-2.5932,-2.6066,-2.016,-2.3339,0.0,-2.9293,0.0,0.0,0.0,0.0,0.0,0.0,0.0,0.0,0.0,0.0,0.0,0.0,0.0,0.0,0.0,0.0,0.0,0.0,0.0,0.0,0.0,0.0,0.0,0.0,-4.329,-4.329,-4.329,-4.329,-4.329,-4.329,-4.2222,-4.2211,-4.3349,-4.3937,-4.4923,-4.6279,-4.6309,-4.6711,-4.7266,-4.5958,-4.5343,-4.507,-4.2593,-4.0844,-3.9697,-3.9697,-3.9697,-3.9747,-4.0325,-4.0824,-4.1351,-4.1982,-4.259,-4.2986,-4.2986,-4.2986,-4.2986,-4.2986,-4.2986,-4.2986,-4.2986,-4.2986,-4.2986,-4.2986,-4.2986,-4.3112,-4.3614,-4.379,-4.394,-4.4468,-4.502,-4.5447,-4.5472,-4.4621,-4.3745,-4.3583,-4.0902,-3.8531,-3.8465,-3.7126,-3.6016,-3.6016,-3.6016,-3.5295,-3.3448,-3.3101,-3.2316,-3.038,-3.048,-3.0677,-3.0677,-3.2907,-3.3513,-3.1546,-3.3386,-3.3621,-3.1709,-3.1563,-3.1655,-3.1836,-3.1687,-2.9577,-2.5518,-2.5798,-2.5932,-2.5945,-2.6226,-2.6373,-1.9091,-2.1471,0.0,0.0,0.0,0.0,0.0,0.0,0.0,0.0,0.0,0.0,0.0,0.0,0.0,0.0,0.0,0.0,0.0,0.0,0.0,0.0,0.0,0.0,0.0,0.0,0.0,0.0,0.0,-4.329,-4.329,-4.329,-4.329,-4.329,-4.29,-4.2548,-4.2193,-4.2877,-4.3432,-4.3943,-4.5535,-4.6441,-4.6638,-4.6636,-4.6166,-4.5298,-4.3551,-4.2133,-4.0844,-4.0032,-3.9697,-3.9798,-4.0701,-4.1125,-4.1401,-4.2359,-4.2866,-4.2986,-4.2986,-4.2986,-4.2986,-4.2986,-4.2986,-4.2986,-4.2986,-4.2986,-4.2986,-4.2986,-4.3237,-4.3564,-4.374,-4.4342,-4.502,-4.5573,-4.5874,-4.6024,-4.6024,-4.5643,-4.5013,-4.3917,-4.1861,-3.9888,-3.8795,-3.7126,-3.6016,-3.6016,-3.6016,-3.5743,-3.5089,-3.4172,-3.332,-3.2597,-3.1871,-3.1364,-3.1364,-3.3526,-3.4576,-3.3901,-3.5923,-3.6837,-3.609,-3.609,-3.554,-3.4241,-3.4241,-3.2225,-2.8043,-2.8158,-2.7529,-2.6239,-2.6346,-2.6386,-1.8139,0.0,0.0,0.0,0.0,0.0,0.0,0.0,0.0,0.0,0.0,0.0,0.0,0.0,0.0,0.0,0.0,0.0,0.0,0.0,0.0,0.0,0.0,0.0,0.0,0.0,0.0,0.0,0.0,0.0,-4.329,-4.329,-4.329,-4.329,-4.329,-4.278,-4.1587,-4.2032,-4.218,-4.1995,-4.4309,-4.55,-4.5779,-4.6808,-4.6844,-4.5913,-4.4256,-4.2786,-4.1518,-4.0211,-3.9697,-3.9798,-4.0701,-4.1125,-4.1401,-4.2359,-4.2866,-4.2986,-4.2986,-4.2986,-4.2986,-4.2986,-4.2986,-4.2986,-4.2986,-4.2986,-4.3011,-4.3212,-4.3514,-4.389,-4.4267,-4.507,-4.5849,-4.6225,-4.6301,-4.6301,-4.6301,-4.6301,-4.5999,-4.4829,-4.3208,-4.1501,-3.9758,-3.8021,-3.6714,-3.6279,-3.623,-3.6289,-3.6426,-3.5597,-3.4956,-3.4956,-3.4234,-3.3742,-3.3742,-3.5285,-3.6254,-3.6254,-3.7724,-3.8574,-3.8574,-3.8574,-3.7951,-3.6571,-3.6571,-3.4826,-3.1421,-3.0053,-2.8374,-2.6386,-2.6386,-2.6386,0.0,0.0,0.0,0.0,0.0,0.0,0.0,0.0,0.0,0.0,0.0,0.0,0.0,0.0,0.0,0.0,0.0,0.0,0.0,0.0,0.0,0.0,0.0,0.0,0.0,0.0,0.0,0.0,-4.329,-4.329,-4.329,-4.329,-4.329,-4.329,-4.325,-4.271,-4.1587,-4.1545,-4.1284,-4.0786,-4.2693,-4.3921,-4.4644,-4.6474,-4.7309,-4.7149,-4.4581,-4.2786,-4.1541,-4.0211,-3.9697,-3.9747,-4.0325,-4.0824,-4.1351,-4.1982,-4.2564,-4.2986,-4.2986,-4.2986,-4.2986,-4.2986,-4.2986,-4.2986,-4.2986,-4.2986,-4.3087,-4.3639,-4.3815,-4.4091,-4.5221,-4.5899,-4.6301,-4.6301,-4.6301,-4.6301,-4.6301,-4.6301,-4.6301,-4.6301,-4.489,-4.3146,-4.1524,-3.9779,-3.8207,-3.6897,-3.668,-3.6836,-3.7246,-3.7305,-3.7324,-3.7324,-3.7695,-3.7949,-3.7949,-3.834,-3.8574,-3.8574,-3.8574,-3.8574,-3.8574,-3.8574,-3.8574,-3.8574,-3.8574,-3.7585,-3.5458,-3.1497,-2.853,-2.6544,-2.6544,-2.6465,-1.676,0.0,0.0,0.0,0.0,0.0,0.0,0.0,0.0,0.0,0.0,0.0,0.0,0.0,0.0,0.0,0.0,0.0,0.0,0.0,0.0,0.0,0.0,0.0,0.0,0.0,0.0,0.0,-4.329,-4.329,-4.329,-4.329,-4.329,-4.329,-4.2508,-4.1947,-4.1587,-4.0788,-4.0315,-4.0205,-4.2494,-4.3719,-4.3965,-4.6267,-4.7309,-4.7149,-4.4581,-4.3313,-4.2786,-4.0592,-3.9697,-3.9798,-4.0752,-4.115,-4.1401,-4.2409,-4.2836,-4.2986,-4.2986,-4.2986,-4.2986,-4.2986,-4.2986,-4.2986,-4.2986,-4.2986,-4.3087,-4.3639,-4.4091,-4.4644,-4.5799,-4.62,-4.6301,-4.6301,-4.6301,-4.6301,-4.6301,-4.6301,-4.6301,-4.6301,-4.489,-4.3263,-4.1888,-4.0211,-3.8594,-3.733,-3.7129,-3.7168,-3.7285,-3.7559,-3.7754,-3.7754,-3.8144,-3.8398,-3.8398,-3.8496,-3.8574,-3.8574,-3.8574,-3.8574,-3.8574,-3.8574,-3.8574,-3.8574,-3.8574,-3.7585,-3.5515,-3.4376,-3.2776,-3.0746,-2.9293,-2.7762,0.0,0.0,0.0,0.0,0.0,0.0,0.0,-2.5397,0.0,0.0,0.0,0.0,0.0,0.0,0.0,0.0,0.0,0.0,0.0,0.0,0.0,0.0,0.0,0.0,0.0,-4.2231,-4.256,-4.291,-4.314,-4.329,-4.329,-4.329,-4.329,-4.329,-4.267,-4.207,-4.1587,-4.0958,-4.0145,-3.921,-4.1383,-4.2575,-4.2947,-4.5157,-4.6577,-4.7222,-4.5161,-4.3975,-4.3361,-4.1319,-4.016,-3.9798,-4.0849,-4.1275,-4.1426,-4.2585,-4.2986,-4.2986,-4.2986,-4.2986,-4.2986,-4.2986,-4.2986,-4.2986,-4.2986,-4.2986,-4.3137,-4.3915,-4.4719,-4.5472,-4.615,-4.6301,-4.6301,-4.6301,-4.6301,-4.6301,-4.6301,-4.6301,-4.6301,-4.6301,-4.5662,-4.441,-4.2178,-4.1155,-3.9913,-3.7834,-3.7559,-3.7617,-3.7812,-3.8047,-3.8203,-3.8203,-3.8418,-3.8574,-3.8574,-3.8574,-3.8574,-3.8574,-3.8574,-3.8574,-3.8574,-3.8574,-3.8574,-3.8574,-3.8574,-3.8024,-3.6811,-3.5886,-3.4451,-3.2429,-3.0361,-2.8749,-1.9712,-2.0218,0.0,0.0,0.0,0.0,-2.4789,-2.4714,0.0,0.0,0.0,0.0,0.0,0.0,0.0,0.0,0.0,0.0,0.0,0.0,0.0,0.0,0.0,0.0,-4.1265,-4.1841,-4.2201,-4.2291,-4.2851,-4.323,-4.329,-4.329,-4.329,-4.329,-4.329,-4.282,-4.1794,-4.1545,-4.0376,-3.8289,-3.9924,-4.1083,-4.1862,-4.3808,-4.561,-4.7222,-4.5958,-4.4794,-4.3598,-4.2181,-4.0844,-3.9798,-4.0849,-4.1275,-4.1426,-4.2585,-4.2986,-4.2986,-4.2986,-4.2986,-4.2986,-4.2986,-4.2986,-4.2986,-4.2986,-4.2986,-4.3212,-4.4317,-4.5447,-4.6301,-4.6301,-4.6301,-4.6301,-4.6301,-4.6301,-4.6301,-4.6301,-4.6301,-4.6326,-4.6401,-4.6803,-4.6031,-4.2746,-4.2457,-4.1673,-3.8746,-3.8132,-3.8144,-3.8535,-3.8574,-3.8574,-3.8574,-3.8574,-3.8574,-3.8574,-3.8574,-3.8574,-3.8574,-3.8574,-3.8574,-3.8574,-3.8574,-3.8574,-3.8574,-3.8574,-3.8574,-3.8574,-3.6737,-3.4826,-3.2792,-3.0961,-2.9975,-2.2221,-2.2538,-2.2853,0.0,0.0,0.0,0.0,-2.1543,0.0,0.0,0.0,0.0,0.0,0.0,0.0,0.0,0.0,0.0,0.0,0.0,0.0,0.0,0.0,0.0,-4.0546,-4.0696,-4.0995,-4.1572,-4.2231,-4.2791,-4.326,-4.329,-4.329,-4.329,-4.329,-4.321,-4.2981,-4.1155,-4.0015,-3.9563,-3.9903,-4.0673,-4.1862,-4.4219,-4.6004,-4.7222,-4.5958,-4.5252,-4.484,-4.2544,-4.0844,-3.9798,-4.0849,-4.1275,-4.1426,-4.2585,-4.2986,-4.2986,-4.2986,-4.2986,-4.2986,-4.2986,-4.2986,-4.2986,-4.2986,-4.2986,-4.3212,-4.4317,-4.5447,-4.6301,-4.6301,-4.6301,-4.6301,-4.6301,-4.6301,-4.6301,-4.6301,-4.6301,-4.6451,-4.6878,-4.7054,-4.6551,-4.4806,-4.3771,-4.2584,-4.0855,-3.941,-3.8476,-3.8555,-3.8574,-3.8574,-3.8574,-3.8574,-3.8574,-3.8574,-3.8574,-3.8574,-3.8574,-3.8574,-3.8574,-3.8574,-3.8574,-3.8574,-3.8574,-3.8574,-3.8574,-3.8574,-3.819,-3.6959,-3.49,-3.4526,-3.3473,-2.3815,-2.4282,-2.494,-2.4751,0.0,0.0,0.0,0.0,-2.2196,0.0,0.0,0.0,0.0,0.0,0.0,0.0,0.0,0.0,0.0,0.0,0.0,0.0,0.0,0.0,-3.9379,-4.0008,-4.0666,-4.1324,-4.1722,-4.2201,-4.2821,-4.2851,-4.3,-4.329,-4.329,-4.329,-4.329,-4.2181,-4.1029,-3.9913,-3.9915,-4.024,-4.09,-4.2747,-4.4604,-4.6344,-4.6344,-4.5958,-4.5298,-4.4022,-4.235,-4.072,-4.1168,-4.1275,-4.1426,-4.2585,-4.2986,-4.2986,-4.2986,-4.2986,-4.2986,-4.2986,-4.2986,-4.2986,-4.2986,-4.3363,-4.3915,-4.4468,-4.5447,-4.6301,-4.6301,-4.6301,-4.6301,-4.6301,-4.6301,-4.6301,-4.6301,-4.6301,-4.6476,-4.7029,-4.733,-4.7097,-4.5804,-4.5295,-4.4211,-4.1707,-4.0514,-3.9602,-3.872,-3.8574,-3.8574,-3.8574,-3.8574,-3.8574,-3.8574,-3.8574,-3.8574,-3.8574,-3.8574,-3.8574,-3.8574,-3.8574,-3.8574,-3.8574,-3.8574,-3.8574,-3.8574,-3.8574,-3.8044,-3.7032,-3.5961,-3.4975,0.0,0.0,0.0,0.0,0.0,-2.4978,0.0,0.0,0.0,-2.4754,0.0,0.0,0.0,0.0,0.0,0.0,0.0,0.0,0.0,0.0,0.0,0.0,0.0,0.0,-3.8212,-3.896,-3.9948,-4.1115,-4.0846,-4.1123,-4.2141,-4.2321,-4.265,-4.312,-4.323,-4.329,-4.329,-4.3061,-4.1947,-3.9913,-3.987,-3.9888,-3.9944,-4.1442,-4.3346,-4.5434,-4.6726,-4.6726,-4.5734,-4.5508,-4.421,-4.2289,-4.1852,-4.1544,-4.1426,-4.2585,-4.2986,-4.2986,-4.2986,-4.2986,-4.2986,-4.2986,-4.2986,-4.2986,-4.2986,-4.374,-4.4618,-4.4618,-4.5447,-4.6301,-4.6301,-4.6301,-4.6301,-4.6301,-4.6301,-4.6301,-4.6301,-4.6401,-4.6627,-4.7179,-4.7707,-4.7744,-4.673,-4.6423,-4.5231,-4.229,-4.1255,-4.0228,-3.8793,-3.8574,-3.8574,-3.8574,-3.8574,-3.8574,-3.8574,-3.8574,-3.8574,-3.8574,-3.8574,-3.8574,-3.8574,-3.8574,-3.8574,-3.8574,-3.8574,-3.8574,-3.8574,-3.8574,-3.8574,-3.8574,-3.6885,-3.6109,0.0,0.0,0.0,0.0,-2.8806,0.0,0.0,0.0,-2.4501,-2.3793,0.0,0.0,0.0,0.0,0.0,0.0,0.0,0.0,0.0,0.0,0.0,0.0,0.0,0.0,0.0,-3.6626,-3.7315,-4.0277,-3.8871,-3.8931,-4.1392,-4.2081,-4.244,-4.25,-4.303,-4.329,-4.329,-4.2275,-4.1169,-3.9913,-3.9811,-3.9838,-3.997,-4.2269,-4.4069,-4.5434,-4.6726,-4.7222,-4.7019,-4.5869,-4.5207,-4.4862,-4.3517,-4.229,-4.1426,-4.2585,-4.2986,-4.2986,-4.2986,-4.2986,-4.2986,-4.2986,-4.2986,-4.2986,-4.2986,-4.374,-4.4618,-4.4618,-4.5447,-4.6301,-4.6301,-4.6301,-4.6301,-4.6301,-4.6301,-4.6301,-4.6301,-4.6702,-4.7205,-4.7732,-4.8284,-4.8623,-4.8482,-4.6224,-4.4231,-4.3841,-4.0992,-3.8846,-3.8647,-3.8574,-3.8574,-3.8574,-3.8574,-3.8574,-3.8574,-3.8574,-3.8574,-3.8574,-3.8574,-3.8574,-3.8574,-3.8574,-3.8574,-3.8574,-3.8574,-3.8574,-3.8574,-3.8574,-3.8574,-3.8574,-3.8336,-3.8263,0.0,0.0,0.0,0.0,0.0,0.0,0.0,0.0,-2.466,0.0,0.0,0.0,0.0,0.0,0.0,0.0,0.0,0.0,0.0,0.0,0.0,0.0,0.0,0.0,0.0,0.0,0.0,0.0,-3.7764,-3.8033,-4.0666,-4.1482,-4.2021,-4.2381,-4.3,-4.2981,-4.2316,-4.2508,-4.1337,-3.8872,-3.9843,-3.9787,-3.8894,-4.1721,-4.35,-4.4396,-4.6432,-4.7309,-4.7266,-4.6726,-4.5644,-4.4275,-4.4288,-4.3512,-4.2471,-4.2835,-4.2986,-4.2986,-4.2986,-4.2986,-4.2986,-4.2986,-4.2986,-4.2986,-4.2986,-4.374,-4.4618,-4.4618,-4.5447,-4.6301,-4.6301,-4.6301,-4.6301,-4.6301,-4.6301,-4.6301,-4.6301,-4.6753,-4.728,-4.7807,-4.8385,-4.8862,-4.9188,-4.8134,-4.6579,-4.4459,-4.2801,-4.0992,-3.8846,-3.8574,-3.8574,-3.8574,-3.8574,-3.8574,-3.8574,-3.8574,-3.8574,-3.8574,-3.8574,-3.8574,-3.8574,-3.8574,-3.8574,-3.8574,-3.8574,-3.8574,-3.8574,-3.8574,-3.8574,-3.8574,-3.8574,-3.8574,-3.0979,0.0,0.0,0.0,0.0,0.0,0.0,0.0,0.0,0.0,0.0,0.0,0.0,0.0,0.0,0.0,0.0,0.0,0.0,0.0,0.0,0.0,0.0,0.0,0.0,0.0,0.0,0.0,0.0,-3.6985,-3.9978,-4.0756,-4.1414,-4.2111,-4.2731,-4.2723,-4.207,-4.2589,-4.142,-3.8604,-3.9852,-3.9568,-3.8114,-4.1048,-4.2806,-4.3598,-4.5434,-4.6462,-4.6726,-4.6388,-4.5276,-4.3815,-4.4343,-4.4103,-4.3441,-4.3081,-4.2986,-4.2986,-4.2986,-4.2986,-4.2986,-4.2986,-4.2986,-4.3011,-4.3162,-4.3865,-4.4644,-4.4819,-4.5573,-4.6301,-4.6301,-4.6301,-4.6301,-4.6301,-4.6301,-4.6351,-4.6502,-4.6954,-4.7506,-4.8033,-4.8611,-4.9113,-4.9515,-4.9177,-4.7731,-4.4596,-4.3703,-4.2171,-3.8991,-3.8574,-3.8574,-3.8574,-3.8574,-3.8574,-3.8574,-3.8574,-3.8574,-3.8574,-3.8574,-3.8574,-3.8574,-3.8574,-3.8574,-3.8574,-3.8574,-3.8574,-3.8574,-3.8574,-3.8574,-3.8574,-3.8574,-3.8574,0.0,0.0,0.0,-3.0671,0.0,0.0,0.0,0.0,-2.9059,0.0,0.0,0.0,0.0,0.0,0.0,0.0,0.0,0.0,0.0,0.0,0.0,0.0,0.0,0.0,0.0,0.0,0.0,0.0,-3.504,-3.531,-3.9194,-4.0068,-4.0726,-4.1384,-4.2081,-4.2701,-4.325,-4.2193,-4.1042,-3.9826,-3.9853,-3.9206,-3.8089,-4.0522,-4.2301,-4.3504,-4.3598,-4.4303,-4.5343,-4.4116,-4.3883,-4.42,-4.3528,-4.3624,-4.3966,-4.3288,-4.2986,-4.2986,-4.2986,-4.2986,-4.2986,-4.2986,-4.2986,-4.3087,-4.3614,-4.4166,-4.4744,-4.5296,-4.5874,-4.6301,-4.6301,-4.6301,-4.6301,-4.6301,-4.6301,-4.6451,-4.6943,-4.7506,-4.8058,-4.8636,-4.9188,-4.9565,-4.959,-4.8126,-4.6264,-4.4368,-4.2591,-4.0708,-3.8846,-3.8574,-3.8574,-3.8574,-3.8574,-3.8574,-3.8574,-3.8574,-3.8574,-3.8574,-3.8574,-3.8574,-3.8574,-3.8574,-3.8574,-3.8574,-3.8574,-3.8574,-3.8574,-3.8574,-3.8574,-3.8574,-3.8574,-3.8574,0.0,0.0,-3.3898,-3.0802,0.0,0.0,0.0,0.0,0.0,0.0,0.0,0.0,0.0,0.0,0.0,0.0,0.0,0.0,0.0,0.0,0.0,0.0,0.0,0.0,0.0,0.0,0.0,0.0,-3.3112,0.0,-3.7616,-3.9053,-4.0247,-4.1354,-4.1293,-4.1511,-4.2152,-4.1042,-3.9885,-3.872,-3.9462,-3.9184,-3.8089,-4.0499,-4.1838,-4.235,-4.4022,-4.4489,-4.4163,-4.4581,-4.4101,-4.3041,-4.3146,-4.3074,-4.2837,-4.2982,-4.2986,-4.2986,-4.2986,-4.2986,-4.2986,-4.2986,-4.3212,-4.3564,-4.374,-4.4443,-4.5246,-4.5422,-4.5874,-4.6301,-4.6301,-4.6301,-4.6301,-4.6301,-4.6602,-4.6903,-4.7043,-4.7832,-4.8535,-4.8736,-4.9213,-4.959,-4.959,-4.806,-4.6197,-4.4368,-4.3565,-4.2031,-3.8991,-3.8574,-3.8574,-3.8574,-3.8574,-3.8574,-3.8574,-3.8574,-3.8574,-3.8574,-3.8574,-3.8574,-3.8574,-3.8574,-3.8574,-3.8574,-3.8574,-3.8574,-3.8574,-3.8574,-3.8574,-3.8574,-3.7198,-3.7272,-3.2665,-3.3369,0.0,-3.0944,-3.0565,0.0,-2.8954,0.0,0.0,0.0,0.0,0.0,0.0,0.0,0.0,0.0,0.0,0.0,0.0,0.0,0.0,0.0,0.0,0.0,0.0,0.0,-2.9307,-3.1801,-3.1559,0.0,0.0,-3.8161,-3.9649,-4.0995,-4.0939,-4.1317,-4.2193,-4.0661,-3.9601,-3.9033,-3.9118,-3.8851,-3.8391,-4.013,-4.1169,-4.164,-4.2882,-4.317,-4.2834,-4.3218,-4.2834,-4.2009,-4.2397,-4.2485,-4.2539,-4.2836,-4.2986,-4.2986,-4.2986,-4.2986,-4.3011,-4.3212,-4.3514,-4.389,-4.4292,-4.492,-4.5522,-4.5723,-4.6024,-4.6301,-4.6301,-4.6301,-4.6301,-4.6301,-4.6728,-4.7118,-4.7355,-4.8134,-4.8837,-4.9038,-4.9339,-4.9371,-4.8698,-4.7575,-4.6197,-4.4368,-4.3565,-4.2031,-3.8991,-3.8574,-3.8574,-3.8574,-3.8574,-3.8574,-3.8574,-3.8574,-3.8574,-3.8574,-3.8574,-3.8574,-3.8574,-3.8574,-3.8574,-3.8574,-3.8574,-3.8574,-3.8574,-3.8574,-3.8574,-3.8501,-3.5738,-3.5905]},{"header":{"parameterUnit":"m.s-1","parameterCategory":1,"la1":30.6,"la2":29.2853,"lo1":-89.7004,"lo2":-87.6739,"dy":0.0162,"dx":0.0183,"nx":112,"ny":82,"refTime":"2026-04-21T00:00:00:Z","depth":0,"parameterNumber":3,"parameterNumberName":"V-component_of_WINDS"},"data":[0.0,0.0,0.0,0.0,0.0,0.0,0.0,0.0,0.0,0.0,0.0,0.0,0.0,0.0,0.0,0.0,0.0,0.0,0.0,0.0,0.0,0.0,0.0,0.0,0.0,0.0,0.0,0.0,0.0,0.0,0.0,0.0,0.0,0.0,0.0,0.0,0.0,0.0,0.0,0.0,0.0,0.0,0.0,0.0,0.0,0.0,0.0,0.0,0.0,0.0,0.0,0.0,0.0,0.0,0.0,0.0,0.0,0.0,0.0,0.0,0.0,0.0,0.0,0.0,0.0,0.0,0.0,0.0,0.0,0.0,0.0,0.0,0.0,0.0,0.0,0.0,0.0,0.0,0.0,0.0,0.0,0.0,0.0,0.0,0.0,0.0,0.0,0.0,0.0,0.0,0.0,2.3293,2.4779,2.5632,2.5786,2.5737,2.4959,2.3182,0.0,0.0,0.0,0.0,0.0,0.0,0.0,0.0,0.0,0.0,0.0,0.0,0.0,0.0,0.0,0.0,0.0,0.0,0.0,0.0,0.0,0.0,0.0,0.0,0.0,0.0,0.0,0.0,0.0,0.0,0.0,0.0,0.0,0.0,0.0,0.0,0.0,0.0,0.0,0.0,0.0,0.0,0.0,0.0,0.0,0.0,0.0,0.0,0.0,0.0,0.0,0.0,0.0,0.0,0.0,0.0,0.0,0.0,0.0,0.0,0.0,0.0,0.0,0.0,0.0,0.0,0.0,0.0,0.0,0.0,0.0,0.0,0.0,0.0,0.0,0.0,0.0,0.0,0.0,0.0,0.0,0.0,0.0,0.0,0.0,0.0,0.0,0.0,0.0,0.0,0.0,0.0,0.0,0.0,0.0,0.0,0.0,0.0,0.0,0.0,0.0,0.0,0.0,0.0,2.096,2.5552,2.5729,2.5814,2.6544,2.604,2.4918,2.3148,0.0,0.0,0.0,0.0,0.0,0.0,0.0,0.0,0.0,0.0,0.0,0.0,0.0,0.0,0.0,0.0,0.0,0.0,0.0,0.0,0.0,0.0,0.0,0.0,0.0,0.0,0.0,0.0,0.0,0.0,0.0,0.0,0.0,0.0,0.0,0.0,0.0,0.0,0.0,0.0,0.0,0.0,0.0,0.0,0.0,0.0,0.0,0.0,0.0,0.0,0.0,0.0,0.0,0.0,0.0,0.0,0.0,0.0,0.0,0.0,0.0,0.0,0.0,0.0,0.0,0.0,0.0,0.0,0.0,0.0,0.0,0.0,0.0,0.0,0.0,0.0,0.0,0.0,0.0,0.0,0.0,0.0,0.0,0.0,0.0,0.0,0.0,0.0,0.0,0.0,0.0,0.0,0.0,0.0,0.0,0.0,0.0,0.0,0.0,0.0,0.0,0.0,0.0,2.1679,2.3484,2.6348,2.6825,2.6902,2.6854,2.6593,2.5466,2.3208,2.1455,0.0,0.0,0.0,0.0,0.0,0.0,0.0,0.0,0.0,0.0,0.0,0.0,0.0,0.0,0.0,0.0,0.0,0.0,0.0,0.0,0.0,0.0,0.0,0.0,0.0,0.0,0.0,0.0,0.0,0.0,0.0,0.0,0.0,0.0,0.0,0.0,0.0,0.0,0.0,0.0,0.0,0.0,0.0,0.0,0.0,0.0,0.0,0.0,0.0,0.0,0.0,0.0,0.0,0.0,0.0,0.0,0.0,0.0,0.0,0.0,0.0,0.0,0.0,0.0,0.0,0.0,0.0,0.0,0.0,0.0,0.0,0.0,0.0,0.0,0.0,0.0,0.0,0.0,0.0,0.0,0.0,0.0,0.0,0.0,0.0,0.0,0.0,0.0,0.0,0.0,0.0,0.0,0.0,0.0,0.0,0.0,0.0,0.0,0.0,0.0,0.0,0.0,2.4851,2.602,2.716,2.7783,2.7926,2.755,2.7028,2.5741,2.3538,2.1376,0.0,0.0,0.0,0.0,0.0,0.0,0.0,0.0,0.0,0.0,0.0,0.0,0.0,0.0,0.0,0.0,0.0,0.0,0.0,0.0,0.0,0.0,0.0,0.0,0.0,0.0,0.0,0.0,0.0,0.0,0.0,0.0,0.0,0.0,0.0,0.0,0.0,0.0,0.0,0.0,0.0,0.0,0.0,0.0,0.0,0.0,0.0,0.0,0.0,0.0,0.0,0.0,0.0,0.0,0.0,0.0,0.0,0.0,0.0,0.0,0.0,0.0,0.0,0.0,0.0,0.0,0.0,0.0,0.0,0.0,0.0,0.0,0.0,0.0,0.0,0.0,0.0,0.0,0.0,0.0,0.0,0.0,0.0,0.0,0.0,0.0,0.0,0.0,0.0,0.0,0.0,0.0,0.0,0.0,0.0,0.0,0.0,0.0,0.0,0.0,0.0,0.0,2.5005,2.7137,2.8848,2.8476,2.8432,2.9266,2.7144,2.5389,2.436,2.114,0.0,0.0,0.0,0.0,0.0,0.0,0.0,0.0,0.0,0.0,0.0,0.0,0.0,0.0,0.0,0.0,0.0,0.0,0.0,0.0,0.0,0.0,0.0,0.0,0.0,0.0,0.0,0.0,0.0,0.0,0.0,0.0,0.0,0.0,0.0,0.0,0.0,0.0,0.0,0.0,0.0,0.0,0.0,0.0,0.0,0.0,0.0,0.0,0.0,0.0,0.0,0.0,0.0,0.0,0.0,0.0,0.0,0.0,0.0,0.0,0.0,0.0,0.0,0.0,0.0,0.0,0.0,0.0,0.0,0.0,0.0,0.0,0.0,0.0,0.0,0.0,0.0,0.0,0.0,0.0,0.0,0.0,0.0,0.0,0.0,0.0,0.0,0.0,0.0,0.0,0.0,0.0,0.0,0.0,0.0,0.0,0.0,0.0,0.0,0.0,0.0,0.0,2.54,2.7342,0.0,2.9562,2.9694,2.9565,2.8202,2.6483,2.4516,0.0,0.0,0.0,0.0,0.0,0.0,0.0,0.0,0.0,0.0,0.0,0.0,0.0,0.0,0.0,0.0,0.0,0.0,0.0,0.0,0.0,0.0,0.0,0.0,0.0,0.0,0.0,0.0,0.0,0.0,0.0,0.0,0.0,0.0,0.0,0.0,0.0,0.0,0.0,0.0,0.0,0.0,0.0,0.0,0.0,0.0,0.0,0.0,0.0,0.0,0.0,0.0,0.0,0.0,0.0,0.0,0.0,0.0,0.0,0.0,0.0,0.0,0.0,0.0,0.0,0.0,0.0,0.0,0.0,0.0,0.0,0.0,0.0,0.0,0.0,0.0,0.0,0.0,0.0,0.0,0.0,0.0,0.0,0.0,0.0,0.0,0.0,0.0,0.0,0.0,0.0,0.0,0.0,0.0,0.0,0.0,0.0,0.0,0.0,0.0,0.0,0.0,2.4066,2.6017,2.7789,0.0,3.0336,3.0494,3.0039,2.8711,2.6991,2.4907,0.0,0.0,0.0,0.0,0.0,0.0,0.0,0.0,0.0,0.0,0.0,0.0,0.0,0.0,0.0,0.0,0.0,0.0,0.0,0.0,0.0,0.0,0.0,0.0,0.0,0.0,0.0,0.0,0.0,0.0,0.0,0.0,0.0,0.0,0.0,0.0,0.0,0.0,0.0,0.0,0.0,0.0,0.0,0.0,0.0,0.0,0.0,0.0,0.0,0.0,0.0,0.0,0.0,0.0,0.0,0.0,0.0,0.0,0.0,0.0,0.0,0.0,0.0,0.0,0.0,0.0,0.0,0.0,0.0,0.0,0.0,0.0,0.0,0.0,0.0,0.0,0.0,0.0,0.0,0.0,0.0,0.0,0.0,0.0,0.0,0.0,0.0,0.0,0.0,0.0,0.0,0.0,0.0,0.0,0.0,0.0,0.0,0.0,0.0,0.0,0.0,0.0,2.4865,2.6898,2.8671,3.0422,3.0648,3.0767,3.0898,2.8516,2.66,0.0,0.0,0.0,0.0,0.0,0.0,0.0,0.0,0.0,0.0,0.0,0.0,0.0,0.0,0.0,0.0,0.0,0.0,0.0,0.0,0.0,0.0,0.0,0.0,0.0,0.0,0.0,0.0,0.0,0.0,0.0,0.0,0.0,0.0,0.0,0.0,0.0,0.0,0.0,0.0,0.0,0.0,0.0,0.0,0.0,0.0,0.0,0.0,0.0,0.0,0.0,0.0,0.0,0.0,0.0,0.0,0.0,0.0,0.0,0.0,0.0,0.0,0.0,0.0,0.0,0.0,0.0,0.0,0.0,0.0,0.0,0.0,0.0,0.0,0.0,0.0,0.0,0.0,0.0,0.0,0.0,0.0,0.0,0.0,0.0,0.0,0.0,0.0,0.0,0.0,0.0,0.0,0.0,0.0,0.0,0.0,0.0,0.0,0.0,0.0,0.0,0.0,0.0,2.4937,2.747,2.9398,3.0467,3.0753,3.0858,3.0898,2.9062,2.7262,2.5701,0.0,0.0,0.0,0.0,0.0,0.0,0.0,0.0,0.0,0.0,0.0,0.0,0.0,0.0,0.0,0.0,0.0,0.0,0.0,0.0,0.0,0.0,0.0,0.0,0.0,0.0,0.0,0.0,0.0,0.0,0.0,0.0,0.0,0.0,0.0,0.0,0.0,0.0,0.0,0.0,0.0,0.0,0.0,0.0,0.0,0.0,0.0,0.0,0.0,0.0,0.0,0.0,0.0,0.0,0.0,0.0,0.0,0.0,0.0,0.0,0.0,0.0,0.0,0.0,0.0,0.0,0.0,0.0,0.0,0.0,0.0,0.0,0.0,0.0,0.0,0.0,0.0,0.0,0.0,0.0,0.0,0.0,0.0,0.0,0.0,0.0,0.0,0.0,0.0,0.0,0.0,0.0,0.0,0.0,0.0,0.0,0.0,0.0,0.0,0.0,0.0,0.0,2.5938,2.8388,3.0319,3.1517,3.1762,3.1755,3.1445,2.9805,2.8044,2.6214,0.0,0.0,0.0,0.0,0.0,0.0,0.0,0.0,0.0,0.0,0.0,0.0,0.0,0.0,0.0,0.0,0.0,0.0,0.0,0.0,0.0,0.0,0.0,0.0,0.0,0.0,0.0,0.0,0.0,0.0,0.0,0.0,0.0,0.0,0.0,0.0,0.0,0.0,0.0,0.0,0.0,0.0,0.0,0.0,0.0,0.0,0.0,0.0,0.0,0.0,0.0,0.0,0.0,0.0,0.0,0.0,0.0,0.0,0.0,0.0,0.0,0.0,0.0,0.0,0.0,0.0,0.0,0.0,0.0,0.0,0.0,0.0,0.0,0.0,0.0,0.0,0.0,0.0,0.0,0.0,0.0,0.0,0.0,0.0,0.0,0.0,0.0,0.0,0.0,0.0,0.0,0.0,0.0,0.0,0.0,0.0,0.0,0.0,0.0,0.0,0.0,0.0,2.7362,2.9482,3.1297,3.3018,3.3249,3.3025,3.2343,3.0703,2.8944,2.7135,0.0,0.0,0.0,0.0,0.0,0.0,0.0,0.0,0.0,0.0,0.0,0.0,0.0,0.0,0.0,0.0,0.0,0.0,0.0,0.0,0.0,0.0,0.0,0.0,0.0,0.0,0.0,0.0,0.0,0.0,0.0,0.0,0.0,0.0,0.0,0.0,0.0,0.0,0.0,0.0,0.0,0.0,0.0,0.0,0.0,0.0,0.0,0.0,0.0,0.0,0.0,0.0,0.0,0.0,0.0,0.0,0.0,0.0,0.0,0.0,2.6974,0.0,0.0,0.0,0.0,0.0,0.0,0.0,0.0,0.0,0.0,0.0,0.0,0.0,0.0,0.0,0.0,0.0,0.0,0.0,0.0,0.0,0.0,0.0,0.0,0.0,0.0,0.0,0.0,0.0,0.0,0.0,0.0,0.0,0.0,0.0,0.0,0.0,0.0,0.0,0.0,0.0,2.7511,3.0023,3.1917,3.2942,3.3218,3.3246,3.3062,3.1559,2.9843,2.8034,0.0,0.0,0.0,0.0,0.0,0.0,0.0,0.0,0.0,0.0,0.0,0.0,0.0,0.0,0.0,0.0,0.0,0.0,0.0,0.0,0.0,0.0,0.0,0.0,0.0,0.0,0.0,0.0,0.0,0.0,0.0,0.0,0.0,0.0,0.0,0.0,0.0,0.0,0.0,0.0,0.0,0.0,0.0,0.0,0.0,0.0,0.0,0.0,0.0,0.0,0.0,0.0,0.0,0.0,0.0,0.0,0.0,0.0,0.0,0.0,0.0,2.8598,0.0,0.0,0.0,0.0,0.0,0.0,0.0,0.0,0.0,0.0,0.0,0.0,0.0,0.0,0.0,0.0,0.0,0.0,0.0,0.0,0.0,0.0,0.0,0.0,0.0,0.0,0.0,0.0,0.0,0.0,0.0,0.0,0.0,0.0,0.0,0.0,0.0,0.0,0.0,0.0,2.8736,3.1345,3.3307,3.4138,3.4379,3.4308,3.3945,3.2807,3.1367,2.9606,2.6673,0.0,0.0,0.0,0.0,0.0,0.0,0.0,0.0,0.0,0.0,0.0,0.0,0.0,0.0,0.0,0.0,0.0,0.0,0.0,0.0,0.0,0.0,0.0,0.0,0.0,0.0,0.0,0.0,0.0,0.0,0.0,0.0,0.0,0.0,0.0,0.0,0.0,0.0,0.0,0.0,0.0,0.0,0.0,0.0,0.0,0.0,0.0,0.0,0.0,0.0,0.0,0.0,0.0,3.5341,3.5715,3.5712,3.7016,3.7556,3.7238,3.4747,3.3369,3.2787,3.1486,0.0,0.0,0.0,0.0,0.0,0.0,0.0,0.0,0.0,0.0,0.0,0.0,0.0,0.0,0.0,0.0,0.0,0.0,0.0,0.0,0.0,0.0,0.0,0.0,3.316,3.2276,0.0,0.0,0.0,0.0,0.0,0.0,0.0,0.0,0.0,0.0,0.0,0.0,3.0192,3.2737,3.4565,3.5461,3.565,3.544,3.4829,3.4094,3.2969,3.1445,2.8357,2.6203,0.0,0.0,0.0,0.0,0.0,0.0,0.0,0.0,0.0,0.0,0.0,0.0,0.0,0.0,0.0,0.0,0.0,0.0,0.0,0.0,0.0,0.0,0.0,0.0,0.0,0.0,0.0,0.0,0.0,0.0,0.0,0.0,2.3414,2.4607,0.0,0.0,0.0,0.0,0.0,0.0,0.0,0.0,0.0,0.0,0.0,0.0,0.0,3.3628,3.4634,3.6651,3.7917,3.8456,3.9954,4.0658,4.0658,4.0891,4.0969,4.0912,4.0527,0.0,3.5937,3.6016,0.0,0.0,0.0,0.0,0.0,0.0,0.0,0.0,0.0,0.0,0.0,0.0,0.0,0.0,0.0,0.0,0.0,0.0,0.0,0.0,0.0,0.0,3.6012,3.6255,3.6379,3.5872,0.0,3.0804,2.7963,2.5471,2.3787,0.0,0.0,0.0,0.0,0.0,0.0,0.0,3.1198,3.3083,3.4558,3.5418,3.564,3.5652,3.5545,3.4904,3.4101,3.3125,3.1289,2.9802,2.8889,2.5723,0.0,0.0,0.0,0.0,0.0,0.0,0.0,0.0,0.0,0.0,0.0,0.0,0.0,0.0,0.0,0.0,0.0,0.0,0.0,0.0,0.0,0.0,0.0,0.0,0.0,0.0,0.0,0.0,0.0,2.3332,2.5397,2.5648,2.6029,2.5959,0.0,0.0,0.0,0.0,0.0,0.0,0.0,0.0,0.0,3.4491,3.5594,3.6922,3.8512,3.9573,4.0764,4.223,4.2968,4.3726,4.4518,4.4079,4.4067,4.437,4.3975,4.2856,4.1231,3.9098,3.6834,3.4584,0.0,0.0,0.0,0.0,3.3523,3.3821,3.5953,3.6522,0.0,3.5205,0.0,0.0,0.0,0.0,0.0,0.0,0.0,0.0,0.0,0.0,3.8522,3.8999,3.95,3.95,3.8284,3.6445,3.376,0.0,2.8659,2.7697,2.4971,0.0,0.0,0.0,0.0,0.0,3.2891,3.5071,3.6592,3.6978,3.7133,3.704,3.6572,3.6318,3.5586,3.4219,3.2969,3.1914,3.1051,2.8583,2.6776,0.0,0.0,0.0,0.0,0.0,0.0,0.0,0.0,0.0,0.0,0.0,0.0,0.0,0.0,0.0,0.0,0.0,0.0,0.0,0.0,0.0,0.0,0.0,0.0,0.0,0.0,0.0,0.0,2.5167,2.6671,2.6449,2.7956,2.8212,0.0,0.0,0.0,0.0,0.0,0.0,3.2482,3.3932,3.5656,3.7736,3.8676,4.0147,4.2232,4.2265,4.3244,4.5156,4.5156,4.5766,4.6786,4.6244,4.6255,4.6618,4.6067,4.5771,4.5331,4.1872,3.949,3.7883,3.6545,3.5753,3.5527,3.6543,3.6828,3.7087,3.977,4.0375,3.9764,3.8923,3.8206,3.7231,3.4648,0.0,0.0,0.0,0.0,3.7253,3.862,3.9896,4.1057,4.1894,4.2543,4.2707,4.172,4.1063,3.9098,0.0,3.308,3.2352,2.9105,0.0,0.0,0.0,0.0,3.3853,3.4737,3.6791,3.8202,3.8202,3.8325,3.817,3.7544,3.7378,3.6758,3.5469,3.4336,3.3476,3.2851,3.1128,2.9482,2.7961,0.0,0.0,0.0,0.0,0.0,0.0,0.0,0.0,0.0,0.0,0.0,0.0,0.0,0.0,0.0,0.0,0.0,0.0,0.0,0.0,0.0,0.0,0.0,0.0,0.0,0.0,0.0,0.0,0.0,2.7584,2.987,0.0,0.0,0.0,0.0,3.1139,3.2278,3.3556,3.5027,3.7083,3.8953,4.048,4.1853,4.3428,4.5167,4.5199,4.5701,4.6684,4.6684,4.6718,4.6786,4.6752,4.6747,4.6777,4.6743,4.6738,4.6549,4.4593,4.2789,4.1278,4.0426,3.9652,3.9054,3.9863,4.0333,4.0597,4.1279,4.1683,4.1925,4.2386,4.0947,3.923,3.9778,3.8365,0.0,0.0,4.0419,4.1614,4.374,4.4377,4.4651,4.546,4.568,4.5294,4.3713,4.359,4.2365,0.0,3.5485,3.4212,3.3485,0.0,3.2615,3.3679,3.4699,3.5654,3.6462,3.7519,3.8202,3.8202,3.8325,3.8365,3.8326,3.769,3.7266,3.7187,3.5586,3.4609,3.457,3.2969,3.164,3.0703,2.8054,0.0,0.0,0.0,0.0,0.0,0.0,0.0,0.0,0.0,0.0,0.0,0.0,0.0,0.0,0.0,0.0,0.0,0.0,0.0,0.0,0.0,0.0,0.0,0.0,0.0,0.0,0.0,0.0,3.0591,3.2627,0.0,3.1009,3.205,3.3005,3.3376,3.5393,3.7281,3.8716,4.0356,4.1724,4.2778,4.332,4.3871,4.4494,4.4494,4.4885,4.5702,4.6315,4.6866,4.733,4.7457,4.753,4.7496,4.6989,4.6786,4.6747,4.6075,4.5451,4.4807,4.3606,4.3147,4.3131,4.253,4.2643,4.3093,4.3434,4.3605,4.3644,4.3271,4.1984,4.0601,4.1255,4.085,4.0552,4.2072,4.3104,4.3855,4.4528,4.4691,4.4635,4.4415,4.4342,4.4212,4.3608,4.358,4.3049,4.0851,3.9397,3.7981,3.6136,3.6643,3.708,3.6413,3.8177,3.9469,3.9161,4.0024,4.0433,3.9941,3.9989,3.9897,3.9409,3.9101,3.8476,3.7383,3.6719,3.6133,3.5547,3.4414,3.3164,3.1758,3.0157,2.7495,0.0,0.0,0.0,0.0,0.0,0.0,0.0,0.0,0.0,0.0,0.0,0.0,0.0,0.0,0.0,0.0,0.0,0.0,0.0,0.0,0.0,0.0,0.0,0.0,0.0,0.0,3.1897,3.2625,3.4659,3.5303,3.3541,3.4972,3.615,3.645,3.8402,3.996,4.0882,4.2058,4.2993,4.3747,4.3997,4.436,4.4903,4.4903,4.5302,4.6134,4.7137,4.7836,4.8297,4.878,4.8987,4.8954,4.824,4.7902,4.7868,4.7631,4.753,4.7394,4.5906,4.5546,4.5747,4.489,4.4797,4.5165,4.5297,4.519,4.4857,4.435,4.3369,4.24,4.2792,4.2911,4.3128,4.4102,4.4878,4.5501,4.5598,4.5754,4.57,4.4929,4.4709,4.4562,4.4011,4.4121,4.3975,4.291,4.1949,4.0718,3.8889,3.9754,4.0349,3.9337,4.0926,4.2047,4.1431,4.1988,4.2205,4.168,4.1503,4.1222,4.0735,3.9921,3.8984,3.7812,3.7187,3.6484,3.5586,3.5,3.3906,3.2226,3.095,2.8725,2.5563,0.0,0.0,0.0,0.0,0.0,0.0,0.0,0.0,0.0,0.0,0.0,0.0,0.0,0.0,0.0,0.0,0.0,0.0,0.0,0.0,0.0,0.0,0.0,2.9651,3.139,3.2886,3.3604,3.5938,3.7015,3.5818,3.8003,3.9738,4.0397,4.1025,4.1452,4.1482,4.2111,4.2731,4.3319,4.4018,4.5102,4.6647,4.6678,4.7114,4.8031,4.9118,4.9643,4.9678,5.0759,5.1185,5.1183,5.0439,5.0135,5.0035,4.9357,4.9055,4.8886,4.7428,4.6819,4.6819,4.6819,4.6786,4.6786,4.6786,4.6312,4.5737,4.5737,4.5229,4.4682,4.4649,4.4649,4.4754,4.532,4.594,4.653,4.7198,4.7802,4.8086,4.7259,4.7076,4.6636,4.5021,4.5296,4.5369,4.3791,4.2873,4.2198,4.1735,4.1927,4.2231,4.2525,4.2919,0.0,4.3124,4.3171,4.3241,4.3208,4.2661,4.2332,4.2293,4.0108,3.8672,3.8594,3.6992,3.5703,3.4805,3.4766,3.3984,3.2344,3.0502,2.9116,2.8184,0.0,0.0,0.0,0.0,0.0,0.0,0.0,0.0,0.0,0.0,0.0,0.0,0.0,0.0,0.0,0.0,0.0,0.0,0.0,0.0,0.0,0.0,3.2198,3.2377,3.4143,3.5998,3.7584,3.8841,3.9619,3.9738,4.0427,4.0905,4.1085,4.1752,4.2351,4.2761,4.3419,4.4077,4.4736,4.4915,4.5218,4.5656,4.5656,4.5819,4.6072,4.7838,4.8687,4.8723,5.0426,5.1185,5.1217,5.1014,5.0456,4.9858,5.0386,5.0188,4.936,4.8099,4.7597,4.753,4.6989,4.6786,4.6786,4.6786,4.665,4.6481,4.6481,4.6346,4.6075,4.5568,4.5399,4.5405,4.5458,4.594,4.6424,4.6493,4.6981,4.7223,4.6434,4.625,4.5957,4.4911,4.4874,4.4745,4.3681,4.3331,4.3145,4.2988,4.3243,4.3601,4.397,4.4314,0.0,4.403,4.3981,4.3798,4.3273,4.3048,4.2748,4.2209,4.1536,4.0362,3.857,3.8025,3.7372,3.6601,3.6601,3.6053,3.491,3.2563,3.0906,0.0,0.0,0.0,0.0,0.0,0.0,0.0,0.0,0.0,0.0,0.0,0.0,0.0,0.0,0.0,0.0,0.0,0.0,0.0,0.0,0.0,0.0,3.2766,3.504,3.5878,3.6985,3.8242,3.9649,4.0397,4.1055,4.1752,4.1841,4.2051,4.2551,4.297,4.3449,4.4107,4.4526,4.5035,4.5693,4.5723,4.5843,4.6142,4.6142,4.6142,4.6142,4.7783,4.8534,4.8611,5.0566,5.1496,5.1497,5.1628,5.1328,5.0793,5.1091,5.0858,0.0,0.0,0.0,0.0,0.0,4.7699,4.7699,4.7699,4.753,4.7259,4.7259,4.7056,4.6718,4.6278,4.6143,4.6128,4.6075,4.6481,4.6885,4.6806,4.7197,4.7406,4.6581,4.6397,4.6177,4.5369,4.5461,4.5461,4.4672,4.4488,0.0,4.4048,4.4013,4.4073,4.4304,4.48,4.4989,4.4681,4.4755,4.4675,4.4245,4.3936,4.3549,4.3135,4.214,0.0,0.0,0.0,3.7981,3.7194,3.6804,0.0,0.0,0.0,0.0,0.0,0.0,0.0,0.0,3.0695,3.0646,0.0,0.0,0.0,0.0,0.0,0.0,0.0,0.0,0.0,0.0,0.0,0.0,0.0,0.0,0.0,0.0,3.519,3.7464,3.9379,3.9709,3.9978,4.0546,4.1145,4.1811,4.256,4.262,4.309,4.4317,4.4436,4.4706,4.5364,0.0,0.0,0.0,0.0,4.6711,4.7309,4.7309,4.7309,4.7309,4.8335,4.8851,4.9054,5.0892,5.1849,5.2068,5.2201,5.2235,5.2202,5.1659,5.1455,5.1422,5.1252,5.0811,5.0135,4.9492,4.9187,4.912,4.912,0.0,0.0,4.8007,4.7597,4.7022,4.6955,4.6921,4.6921,4.6819,4.7195,4.7611,4.7603,4.7947,4.8136,4.7387,4.7223,4.7003,4.6214,4.6599,4.6856,4.6067,4.5883,4.5663,4.4966,4.4334,4.3974,4.3982,4.4561,4.5,4.5105,4.5371,4.5559,4.5586,0.0,0.0,4.4491,4.2438,4.1116,4.0935,3.9544,3.8381,3.7595,3.6814,3.6819,3.7639,3.7561,3.833,3.9998,4.0114,4.0193,4.0195,3.4511,3.3913,0.0,0.0,0.0,0.0,0.0,0.0,0.0,0.0,0.0,0.0,0.0,0.0,0.0,0.0,0.0,3.5938,3.7823,3.9349,4.0786,4.1482,4.1871,4.2021,4.2141,4.268,4.3808,4.3928,4.4257,4.5035,4.5095,4.5394,4.6082,4.6142,4.6441,4.71,4.713,4.7189,4.7309,4.7309,4.7309,4.7309,0.0,0.0,5.0087,5.0512,5.1594,5.3144,5.232,5.1974,5.2045,5.2774,5.3078,5.2942,5.1691,5.1116,5.098,5.0845,5.0405,4.9864,4.9864,4.939,4.8781,4.8781,4.868,4.8477,4.7868,4.7699,0.0,4.6955,4.7215,4.7666,4.7597,4.8005,4.8394,4.8117,4.8086,4.7846,4.7039,4.7003,4.6856,4.6067,4.5883,4.5847,4.57,4.4522,4.3677,4.3937,4.4117,4.4441,4.5011,4.5169,4.5283,4.5568,4.5475,4.5115,4.4413,4.3906,4.3055,4.1749,4.1476,4.1298,4.1103,4.0943,4.0956,4.1132,4.0428,4.0241,4.0613,4.131,4.2097,4.2822,4.0312,3.9256,0.0,0.0,0.0,0.0,0.0,0.0,0.0,0.0,0.0,0.0,0.0,2.9265,3.1628,0.0,3.5729,3.8033,3.9529,4.0756,4.1782,4.2201,4.241,4.241,4.298,4.3599,4.4257,4.4616,4.5095,4.5753,4.5813,4.6112,4.677,4.68,4.695,4.7309,4.7309,4.7309,4.7309,4.7309,4.7309,4.7309,4.7807,4.8594,4.9615,5.0165,5.1262,5.2697,5.2697,5.2697,5.2732,5.328,5.3518,5.3416,5.2672,5.2097,5.1725,5.1352,5.098,5.0642,5.0642,5.0405,5.0033,4.9661,4.956,4.9424,4.868,4.8477,4.8376,4.8003,4.8059,4.834,4.8665,4.8936,4.9083,4.8976,4.893,4.871,4.7883,4.77,4.759,4.7168,4.6801,4.6507,4.6507,4.5516,4.4613,4.4375,4.4156,4.4132,4.4508,4.4884,4.5169,4.5313,4.5485,4.5441,4.4979,4.494,4.4628,4.379,4.38,4.3847,4.3847,4.3847,4.3885,4.3957,4.3524,4.3518,4.4015,4.4438,4.514,4.602,4.524,4.4468,0.0,0.0,0.0,0.0,0.0,0.0,0.0,0.0,2.6035,2.8683,3.0367,3.2139,3.4801,3.6626,3.8272,3.9738,4.0876,4.1841,4.25,4.259,4.259,4.259,4.3599,4.4377,4.4496,4.5095,4.5783,4.6471,4.6459,4.6741,4.7279,4.7309,4.7309,4.7309,4.7309,4.7309,4.7309,4.7429,4.7429,4.7309,4.7429,4.797,4.8841,4.9694,5.0741,5.1957,5.3041,5.3518,5.3518,5.3518,5.3518,5.3518,5.3518,5.3112,5.2469,5.1894,5.1555,5.1388,5.1388,5.132,5.1083,5.0507,5.0202,4.9965,4.939,4.912,4.9018,4.9018,4.8933,4.8985,4.9548,4.9706,4.9699,4.9638,4.9605,4.9427,4.871,4.8416,4.8306,4.8306,4.7773,4.7333,4.7333,4.6691,4.581,4.4838,4.4391,4.4076,4.402,4.4521,4.4943,4.5066,4.5361,4.5618,4.5817,4.5864,4.5941,4.6095,4.6095,4.6095,4.6095,4.6095,4.6125,4.6228,4.6235,4.6615,4.7361,4.7556,4.8006,4.8699,4.8893,4.856,2.4509,2.3833,2.3612,2.472,2.4449,2.5106,0.0,0.0,2.9053,3.253,3.3863,3.5131,3.7535,3.8631,3.9828,4.1752,4.2201,4.253,4.308,4.32,4.32,4.32,4.3868,4.4556,4.5125,4.5813,4.6471,4.716,4.7189,4.7219,4.7309,4.7309,4.7309,4.7309,4.7309,4.7309,4.7309,4.7878,4.7878,4.7309,4.7908,4.8425,4.8769,4.8891,5.0055,5.1957,5.3041,5.3518,5.3518,5.3518,5.3518,5.3518,5.3518,5.345,5.3382,5.3281,5.2807,5.2198,5.2198,5.1758,5.1217,5.1083,5.0642,5.0067,4.9999,4.9526,4.9018,4.9018,4.8978,4.8984,4.8923,4.9416,4.9859,4.9712,4.9628,4.9574,4.95,4.8857,4.8306,4.8306,4.8233,4.8196,4.8196,4.748,4.6452,4.4911,4.4671,4.4475,4.4048,4.4073,4.4387,4.5022,4.5148,4.5569,4.6645,4.674,4.7048,4.7778,4.7817,4.7817,4.7817,4.7817,4.7826,4.7844,4.7844,4.7901,4.8004,4.8775,4.9264,4.9484,5.0259,4.9881,2.6582,2.661,0.0,0.0,2.7263,2.8356,3.0099,3.027,3.077,3.3309,3.4983,3.6533,3.8318,3.9107,3.9925,0.0,4.1105,4.1258,4.2164,4.2316,4.2401,4.2742,4.3688,4.4556,4.5214,4.5933,4.6591,4.7249,4.7309,4.7309,4.7309,4.7309,4.7489,4.7878,4.7878,4.8057,4.8446,4.876,4.876,4.8446,4.876,4.9273,4.9976,4.9976,5.1104,5.321,5.4317,5.4803,5.4803,5.4803,5.4532,5.4126,5.4126,5.389,5.3518,5.3518,5.3281,5.301,5.301,5.2807,5.2469,5.1995,5.1623,5.1285,5.0879,5.0236,4.9627,4.9627,4.9323,4.9101,4.9396,4.9743,4.9942,4.9834,5.0109,5.0228,4.9755,4.9334,4.904,4.904,4.8636,4.8306,4.8306,4.7993,4.7406,4.6269,4.57,4.5331,4.5154,4.5475,4.5859,4.6097,4.5707,4.5975,4.7462,4.7586,4.8163,4.951,4.9625,4.9625,4.9625,4.9125,4.9086,4.9586,4.9125,4.9125,4.9625,4.9971,5.0182,5.0242,5.0628,5.0511,2.7267,0.0,0.0,2.8539,3.0018,3.1561,3.1392,3.1665,3.239,3.4099,3.5626,3.7101,3.8524,3.9508,4.0224,4.055,4.0477,4.0532,4.1042,4.1235,4.1471,4.1863,4.2604,4.3526,4.4635,4.5693,4.6531,4.701,4.7219,4.7309,4.7309,4.7489,4.7788,4.8267,4.8446,4.882,4.9299,4.9464,4.9434,4.9299,4.9464,4.9853,5.0371,5.0641,5.196,5.4063,5.4868,5.5435,5.5681,5.5681,5.5412,5.4871,5.4668,5.4262,5.3788,5.3585,5.3518,5.3518,5.3518,5.3518,5.3416,5.2807,5.2469,5.2198,5.1691,5.098,5.0371,5.0135,4.9729,4.9345,4.9644,4.9861,5.0007,4.9942,5.0446,5.0718,5.0177,4.9971,4.9941,4.9941,4.9224,4.8673,4.8673,4.8453,4.8122,4.7516,4.6948,4.6397,4.5957,4.6529,4.6973,4.6936,4.6541,4.6894,4.8317,4.8471,4.9086,5.0596,5.0712,5.0712,5.0712,5.0087,5.0048,5.0712,5.0087,5.0048,5.0712,5.0712,5.0712,5.0712,5.0712,5.0767,0.0,0.0,2.9133,3.0166,3.2064,3.3965,3.4996,3.4428,3.4153,3.5809,3.6184,3.6733,3.8494,4.0194,4.1181,4.0672,4.1143,4.1169,4.0102,4.0364,4.0625,4.0637,4.0227,4.084,0.0,4.5143,4.6279,4.6309,4.695,4.7309,4.7309,4.7908,4.8267,4.8297,4.894,4.9299,4.9299,4.9883,4.9883,4.9329,4.9912,4.9883,4.9389,5.0327,5.196,5.3992,5.4063,5.4685,5.5681,5.5681,5.5716,5.5615,5.4871,5.4566,5.4465,5.3754,5.3518,5.3518,5.3518,5.3518,5.3518,5.3484,5.2942,5.23,5.2266,5.1758,5.1014,5.0304,5.0067,4.9898,4.9218,4.9521,5.0004,4.9998,5.0484,5.0875,5.0885,5.0809,5.0765,5.0765,5.0105,4.9574,4.9574,4.8857,4.8306,4.8269,4.8233,4.7682,4.6104,4.6529,4.6976,4.7003,4.7619,4.8394,4.9279,4.9356,4.974,5.0635,5.0712,5.0712,5.0712,5.0673,5.0673,5.0712,5.0673,5.0673,5.0712,5.0712,5.0712,5.0712,5.0712,5.0712,0.0,0.0,3.1768,3.2937,3.4547,3.5806,3.5936,3.5143,3.4536,3.5089,3.4875,3.4928,3.5952,3.6588,3.7138,3.7781,3.7729,3.7793,3.8595,3.9518,3.983,3.9018,4.0171,0.0,0.0,0.0,0.0,4.6147,4.6488,4.683,4.7279,4.7938,4.8476,4.897,4.9553,5.0122,5.0571,5.078,5.078,5.0571,5.078,5.078,5.0617,5.1676,5.2578,5.3313,5.4058,5.4615,5.5044,5.5742,5.5742,5.5347,5.5873,5.575,5.5243,5.4499,5.4228,5.416,5.3687,5.3518,5.3518,5.3518,5.3315,5.3112,5.3112,5.257,5.1894,5.1623,5.1217,5.0676,4.9932,4.9912,4.9926,4.9449,4.9825,5.0462,5.0926,5.0962,5.0998,5.1511,5.0949,5.0398,5.0398,5.0141,4.9774,4.9224,4.8673,4.8199,4.7915,4.7844,4.7888,4.8163,4.8137,4.8471,4.9317,4.9394,4.9779,5.0635,5.0712,5.0712,5.0712,5.0125,5.0087,5.0712,5.0125,5.0125,5.0712,5.0712,5.0712,5.0712,5.0712,5.0712,2.9801,3.2041,3.3923,3.4909,3.6484,3.7659,3.7396,3.6251,3.5184,3.4996,3.4206,3.3675,3.4071,3.446,3.5036,3.5992,3.5989,3.6231,3.7344,3.8282,3.863,3.7826,3.9057,0.0,0.0,0.0,0.0,4.5687,4.6411,4.695,4.7608,4.8267,4.8925,4.9583,5.0242,5.0734,5.1229,5.1229,5.1229,5.1229,5.1229,5.1229,5.1199,5.1972,5.253,5.2945,5.3656,5.4211,5.4672,5.5337,5.5555,5.5551,5.5996,5.6138,5.6021,5.5277,5.5006,5.4837,5.3856,5.3518,5.3518,5.3518,5.3518,5.3518,5.3518,5.3145,5.2672,5.2367,5.1961,5.142,5.0676,5.0304,4.9965,4.9492,4.9692,5.0146,5.0608,5.1016,5.147,5.1923,5.1574,5.1242,5.1242,5.0986,5.0618,5.0105,4.9297,4.8751,4.8713,4.8525,4.8543,4.8785,4.8812,4.9053,4.9601,4.9769,5.0087,5.0673,5.0712,5.0712,5.0712,5.0164,5.0125,5.0712,5.0164,5.0125,5.0712,5.0712,5.0712,5.0712,5.0712,5.0856,3.1056,3.3398,3.5503,3.6196,3.789,3.9373,3.9373,3.771,3.5991,3.5449,3.397,3.2764,0.0,0.0,3.4646,3.5182,3.5901,3.6418,3.642,3.6851,3.7164,0.0,0.0,0.0,0.0,0.0,0.0,4.5078,0.0,4.7519,4.8237,4.897,4.9583,5.0166,5.0823,5.1229,5.1229,5.1229,5.1229,5.1229,5.1229,5.1229,5.1229,5.1229,5.1819,5.2812,5.2812,5.3427,5.4421,5.4505,5.5093,5.5982,5.533,5.5742,5.6622,5.5915,5.5645,5.5477,5.4092,5.3585,5.3551,5.3518,5.3518,5.3518,5.3518,5.3518,5.3348,5.257,5.2367,5.2198,5.1454,5.0744,5.0202,5.0168,5.0073,5.0017,5.0074,5.1086,5.2065,5.2089,5.2105,5.205,5.205,5.1389,5.0875,5.0875,5.0178,4.9353,4.8489,4.8658,4.8878,4.8878,4.9603,5.0087,5.0087,5.0451,5.0692,5.0692,5.0702,5.0712,5.0712,5.0712,5.0712,5.0712,5.0712,5.0712,5.0712,5.075,5.075,5.075,5.0827,5.1241,3.4364,3.556,3.64,3.814,3.9017,3.9373,3.9373,3.7431,3.5421,3.4917,3.2213,2.9821,0.0,0.0,0.0,3.2281,3.3997,0.0,3.6807,3.7826,0.0,0.0,0.0,3.9639,4.0856,4.1602,0.0,0.0,4.5903,4.6531,4.8207,4.897,4.9583,5.0166,5.0823,5.1229,5.1229,5.1229,5.1229,5.1229,5.1229,5.1229,5.1229,5.1229,5.1339,5.1635,5.1635,5.1819,5.2154,5.2989,5.3483,5.3796,5.4448,5.4907,5.5172,5.5226,5.526,5.524,5.5164,5.4769,5.4228,5.3687,5.3518,5.3518,5.3518,5.3518,5.345,5.3247,5.3179,5.301,5.2232,5.1894,5.1589,5.1048,5.0495,5.0226,5.0788,5.1138,5.1494,5.2018,5.252,5.2894,5.2894,5.2234,5.1683,5.1683,5.1022,5.0178,4.937,4.9046,4.8878,4.8878,4.9356,4.9645,4.9645,5.0012,5.023,5.023,5.0514,5.0712,5.0712,5.0712,5.0712,5.0712,5.0712,5.0712,5.0712,5.1318,5.1587,5.1625,5.2279,5.2664,3.6073,3.7099,3.7776,3.8509,3.9053,3.92,3.8332,3.6599,3.4674,3.296,3.0306,0.0,0.0,0.0,0.0,0.0,0.0,0.0,3.6584,3.7607,3.798,0.0,3.8653,0.0,4.068,4.1901,4.3561,0.0,4.6321,4.7219,4.8626,4.9344,5.0002,5.0614,5.102,5.1229,5.1229,5.1229,5.1229,5.1229,5.1229,5.1229,5.1229,5.1229,5.1229,5.1229,0.0,5.1229,5.1246,5.188,5.244,5.2945,5.3613,5.4168,5.4608,5.4794,5.5182,5.5551,5.5455,5.5497,5.5446,5.4702,5.4262,5.3991,5.3991,5.3754,5.3518,5.3518,5.3518,5.3416,5.2942,5.257,5.2198,5.1792,5.1116,5.0701,5.1104,5.1416,5.1795,5.2454,5.2915,5.3203,5.3203,5.2821,5.2527,5.2527,5.183,5.1169,5.0712,5.0137,4.9713,4.9713,5.0242,5.0598,5.0598,5.0973,5.1266,5.1457,5.1491,5.1606,5.1779,5.1779,5.1779,5.1779,5.1779,5.1779,5.1779,5.2241,5.2462,5.2462,5.2972,5.3395,3.7019,3.8143,3.898,3.8219,3.8635,3.8781,3.6896,3.5468,3.3681,3.0635,0.0,2.6906,2.5782,0.0,2.8307,2.9478,0.0,3.4299,3.6153,3.6835,3.7412,3.804,3.8617,3.9498,4.0755,4.193,4.3445,4.5384,4.7302,4.87,4.9269,4.9883,5.0495,5.1199,5.1229,5.1229,5.1229,5.1229,5.1229,5.1229,5.1229,5.1229,5.1229,5.1229,5.1229,5.1229,5.1229,5.1229,5.1229,5.1229,5.1773,5.2634,5.2634,5.3296,5.4168,5.4337,5.497,5.5712,5.5363,5.5917,5.6619,5.5916,5.5209,5.46,5.46,5.4093,5.3518,5.3518,5.3518,5.3518,5.3518,5.2976,5.2469,5.2469,5.1894,5.1385,5.1481,5.2045,5.2626,5.3119,5.3308,5.3335,5.3203,5.3203,5.3203,5.3203,5.2601,5.216,5.216,5.1353,5.0802,5.0802,5.1409,5.1855,5.1917,5.2295,5.2691,5.3091,5.285,5.2839,5.3192,5.3203,5.3203,5.3203,5.3203,5.3203,5.3203,5.3318,5.3356,5.3395,5.3472,5.3933,3.8341,3.8532,3.8256,3.8943,3.8847,3.8212,3.6806,3.4446,0.0,0.0,0.0,2.5249,2.4537,2.573,0.0,2.8824,0.0,0.0,0.0,0.0,3.7563,0.0,0.0,0.0,0.0,0.0,0.0,0.0,0.0,4.9179,4.9299,4.9883,5.0495,5.1199,5.1229,5.1229,5.1229,5.1229,5.1229,5.1229,5.1229,5.1229,5.1229,5.1229,5.1229,5.1229,5.1229,0.0,5.1229,5.1229,5.1293,5.1496,5.1496,5.1635,5.188,5.2856,5.3309,5.371,5.5408,5.6156,5.6226,5.5837,5.5209,5.46,5.46,5.4093,5.3518,5.3518,5.3518,5.3518,5.3518,5.3416,5.3281,5.3281,5.2706,5.2292,5.2953,5.3667,5.3999,5.3303,5.3754,5.3995,5.3314,5.3203,5.3203,5.3203,5.3078,5.3004,5.3004,5.172,5.0802,5.0802,5.0925,5.1139,5.1496,5.187,5.2271,5.2678,5.2954,5.3151,5.3192,5.3203,5.3203,5.3203,5.3203,5.3203,5.3203,5.3933,5.428,5.428,5.4972,5.5357,3.8148,3.8583,3.876,3.9265,3.8631,3.7255,3.4951,0.0,0.0,0.0,0.0,2.4461,2.3537,0.0,0.0,0.0,0.0,0.0,0.0,0.0,0.0,0.0,0.0,0.0,0.0,0.0,0.0,0.0,0.0,4.8706,4.9717,5.0391,5.09,5.1199,5.1229,5.1229,5.1229,5.1229,5.1229,5.1229,5.1229,5.1229,5.1229,5.1229,5.1229,5.1229,5.1229,0.0,5.1229,5.1229,5.1229,5.1229,5.1229,5.1229,5.1276,5.1789,5.2395,5.3077,5.4094,5.4888,5.544,5.5828,5.5861,5.5683,5.5277,5.4668,5.3991,5.3619,5.3518,5.3518,5.3518,5.3518,5.3518,5.3518,5.3213,5.3135,5.3863,5.4308,5.4528,5.4457,5.4751,5.4913,5.4509,5.4106,5.3812,5.3812,5.3482,5.3203,5.3203,5.2527,5.205,5.205,5.222,5.2531,5.299,5.3204,5.3547,5.4173,5.4211,5.4269,5.45,5.4511,5.4511,5.4511,5.4511,5.4511,5.4511,5.4934,5.5126,5.5126,5.5511,5.5934,3.7528,3.8435,3.909,3.9337,3.8302,3.6387,3.3245,3.127,0.0,0.0,2.4429,2.3999,2.3069,0.0,0.0,0.0,0.0,0.0,0.0,0.0,0.0,0.0,0.0,0.0,0.0,0.0,0.0,0.0,0.0,0.0,5.0329,5.0883,5.1229,5.1229,5.1229,5.1229,5.1229,5.1229,5.1229,5.1229,5.1229,5.1229,5.1229,5.1229,5.1229,5.1229,5.1229,0.0,0.0,5.1229,5.1229,5.1229,5.1229,5.1229,5.1229,5.1229,5.1773,5.2575,5.2812,5.3483,5.4421,5.5498,5.6089,5.6376,5.6052,5.531,5.4465,5.389,5.3619,5.3518,5.3518,5.3518,5.3518,5.3518,5.3618,5.384,5.4201,5.467,5.508,5.5292,5.5615,5.5794,5.5633,5.506,5.4656,5.4656,5.4106,5.3702,5.3702,5.3555,5.3482,5.3482,5.3595,5.387,5.4305,5.4436,5.4804,5.5543,5.5363,5.5375,5.5692,5.5703,5.5703,5.5703,5.5703,5.5703,5.5703,5.5895,5.5972,5.5972,5.6165,5.6626,3.7148,3.7881,3.8182,3.9156,3.7973,3.5848,3.3125,0.0,0.0,2.5173,2.4112,2.3622,2.3472,2.3989,2.4912,2.6301,2.7572,2.9505,0.0,0.0,0.0,0.0,0.0,0.0,0.0,0.0,0.0,0.0,0.0,0.0,5.1016,5.1199,5.1229,5.1229,5.1229,5.1229,5.1229,5.1229,5.1229,5.1229,5.1229,5.1229,5.1229,5.1229,5.1229,5.1229,5.1229,0.0,0.0,5.1229,5.1229,5.1229,5.1229,5.1229,5.1229,5.1229,5.1276,5.1526,5.253,5.2989,5.3221,5.4379,5.4962,5.5416,5.641,5.5716,5.4566,5.4499,5.4025,5.3518,5.3518,5.3518,5.3518,5.3518,5.4009,5.4325,5.3714,5.5227,5.6257,5.4865,5.5726,5.6455,5.5721,5.5559,5.5486,5.5486,5.5449,5.5354,5.5354,5.473,5.4289,5.4289,5.3671,5.3404,5.3851,5.4255,5.4686,5.5134,5.5446,5.5682,5.5703,5.5703,5.5703,5.5703,5.5703,5.5703,5.5703,5.6483,5.6868,5.6907,5.7703,5.8088,3.4823,3.6585,3.7919,3.836,3.7163,3.519,3.2497,0.0,2.7255,2.4567,2.3789,2.3583,2.3585,2.3705,2.4255,2.5577,2.6035,2.7252,0.0,0.0,0.0,0.0,0.0,0.0,0.0,0.0,0.0,0.0,0.0,0.0,4.9969,5.0745,5.1229,5.1229,5.1229,5.1229,5.1229,5.1229,5.1229,5.1229,5.1229,5.1229,5.1229,5.1229,5.1229,5.1229,5.1229,0.0,0.0,5.1229,5.1229,5.1229,5.1229,5.1229,5.1229,5.1229,5.1229,5.1246,5.1727,5.188,5.2063,5.3209,5.4146,5.489,5.5582,5.5557,5.5175,5.4702,5.4059,5.3518,5.3518,5.3518,5.3518,5.3518,5.3717,5.3979,5.4139,5.5238,5.6124,5.5973,5.6794,5.7409,5.7079,5.6638,5.6308,5.6308,5.5904,5.5596,5.5596,5.5317,5.5097,5.5097,5.3959,5.3543,5.4447,5.4258,5.4576,5.5739,5.5505,5.5435,5.5703,5.6203,5.6483,5.6483,5.7011,5.7242,5.728,5.7627,5.778,5.778,5.8127,5.855,3.2988,3.526,3.7149,3.7413,3.6353,3.4502,0.0,0.0,2.6596,2.4118,2.361,2.361,2.361,2.3716,2.4144,2.5137,2.5408,2.6422,2.9074,0.0,0.0,0.0,0.0,0.0,0.0,0.0,0.0,0.0,0.0,0.0,4.8893,5.0389,5.1229,5.1229,5.1229,5.1229,5.1229,5.1229,5.1229,5.1229,5.1229,5.1229,5.1229,5.1229,5.1229,5.1229,5.1229,0.0,0.0,5.1229,5.1229,5.1229,5.1229,5.1229,5.1229,5.1229,5.1229,5.1229,5.1229,5.1229,5.1339,5.2154,5.3165,5.42,5.4752,5.5472,5.5919,5.5412,5.4566,5.3788,5.3551,5.3518,5.3518,5.3518,5.3518,5.3651,5.4136,5.5029,5.5865,5.6421,5.7315,5.7997,5.7997,5.7519,5.7152,5.7152,5.6675,5.6308,5.6308,5.6088,5.5941,5.5941,5.473,5.4254,5.5124,5.4761,5.5002,5.6223,5.5882,5.5818,5.6237,5.6836,5.7228,5.7396,5.7973,5.8319,5.8319,5.855,5.8665,5.8665,5.8934,5.9358,3.2135,3.4182,3.5662,3.6605,3.5649,3.3815,0.0,2.8487,2.6033,2.4029,2.361,2.361,2.361,2.4126,2.4745,2.5214,2.6189,2.7602,2.9686,0.0,0.0,0.0,0.0,0.0,0.0,0.0,0.0,0.0,0.0,0.0,4.824,5.0153,5.1229,5.1229,5.1229,5.1229,5.1229,5.1229,5.1229,5.1229,5.1229,5.1229,5.1229,5.1229,5.1229,0.0,0.0,0.0,0.0,5.1229,5.1229,5.1229,5.1229,5.1229,5.1229,5.1229,5.1229,5.1229,5.1229,5.1229,5.1229,5.1229,5.1972,5.3121,5.4253,5.5632,5.6799,5.6799,5.5716,5.4397,5.3687,5.3518,5.3518,5.3518,5.3518,5.3518,5.3518,5.4668,5.5724,5.5724,5.6953,5.7997,5.7997,5.7997,5.7997,5.7997,5.796,5.796,5.796,5.7299,5.6785,5.6785,5.6051,5.5596,5.5596,5.5953,5.6178,5.6215,5.6626,5.7084,5.7544,5.7596,5.7812,5.8269,5.8319,5.8319,5.8319,5.9088,5.9473,5.9511,6.0358,6.0781,2.816,3.0266,3.1955,3.1506,3.1569,3.1128,2.8965,2.7495,2.6033,2.3999,2.361,2.361,2.361,2.3789,2.4716,2.717,2.7088,2.7655,0.0,0.0,0.0,0.0,0.0,0.0,0.0,0.0,0.0,0.0,0.0,0.0,4.6805,4.8413,4.9846,5.1152,5.1229,5.1229,5.1229,5.1229,5.1229,5.1229,5.1229,5.1229,5.1229,5.1229,5.1229,0.0,0.0,0.0,0.0,5.1229,5.1229,5.1229,5.1229,5.1229,5.1229,5.1229,5.1229,5.1229,5.1229,5.1229,5.1229,5.1229,5.1972,5.3121,5.4253,5.5082,5.5721,5.5943,5.5344,5.4532,5.4296,5.389,5.3518,5.3518,5.3518,5.3518,5.3518,5.4668,5.5724,5.5724,5.6953,5.7997,5.7997,5.7997,5.7997,5.7997,5.7997,5.7997,5.7997,5.7776,5.7629,5.7629,5.7373,5.7005,5.6455,5.6021,5.6129,5.6958,5.6649,5.6767,5.7568,5.813,5.8628,5.9115,5.9704,6.0012,6.0012,6.0242,6.0396,6.0396,6.0666,6.1127,0.0,2.7669,2.9377,2.8718,2.8947,2.8853,2.7142,2.61,2.51,2.3577,2.3428,2.361,2.361,2.3819,2.4747,2.7081,2.6889,2.7288,0.0,0.0,0.0,0.0,0.0,0.0,0.0,0.0,0.0,0.0,0.0,0.0,4.4843,4.6825,4.8613,5.0047,5.0845,5.1229,5.1229,5.1229,5.1229,5.1229,5.1229,5.1229,5.1229,5.1229,5.1229,0.0,0.0,0.0,0.0,5.1229,5.1229,5.1229,5.1229,5.1229,5.1229,5.1229,5.1229,5.1229,5.1229,5.1229,5.1229,5.1229,5.1972,5.3121,5.4253,5.5357,5.6129,5.6113,5.5784,5.5378,5.5074,5.4465,5.3923,5.3923,5.3687,5.3518,5.3518,5.4454,5.5379,5.5667,5.6711,5.7679,5.795,5.7997,5.7997,5.7997,5.7997,5.7997,5.7997,5.7997,5.7997,5.7997,5.7997,5.7813,5.7299,5.6785,5.6831,5.7598,5.7175,5.7225,5.798,5.8666,5.9259,5.9703,6.0414,6.0781,6.0781,6.0781,6.0781,6.0819,6.1127,6.1601,0.0,2.5877,2.7482,2.7364,2.7247,2.6801,2.5522,2.4405,0.0,2.277,2.312,2.3575,2.3664,2.4194,2.4881,2.5723,2.6037,0.0,0.0,0.0,0.0,0.0,0.0,0.0,0.0,0.0,0.0,0.0,0.0,0.0,4.2613,4.5427,4.7396,4.8221,4.9988,5.1016,5.1229,5.1229,5.1229,5.1229,5.1229,5.1229,5.1229,5.1229,5.1229,0.0,0.0,0.0,5.1229,5.1229,5.1229,5.1229,5.1229,5.1229,5.1229,5.1229,5.1229,5.1229,5.1229,5.1229,5.1229,5.1229,5.1972,5.3121,5.4168,5.6008,5.7673,5.7034,5.6833,5.663,5.5987,5.5243,5.4668,5.4668,5.416,5.3653,5.3653,5.4246,5.4961,5.5636,5.6492,5.7272,5.798,5.812,5.818,5.818,5.8107,5.8107,5.8107,5.8033,5.7997,5.7997,5.7997,5.7997,5.7997,5.7997,5.7997,5.7997,5.7997,5.8194,5.8693,5.9102,5.9576,6.0103,6.0546,6.0819,6.0896,6.0896,6.0935,6.1012,6.1831,6.2216,1.966,0.0,2.2828,2.1931,2.2744,2.3527,0.0,2.2727,2.2752,2.2085,0.0,2.3211,2.4247,2.4539,2.5456,2.809,2.818,0.0,0.0,0.0,0.0,0.0,0.0,0.0,0.0,0.0,0.0,0.0,0.0,4.1029,4.2536,4.3322,4.4934,4.7538,4.8043,4.924,5.1152,5.1229,5.1229,5.1229,5.1229,5.1229,5.1229,5.1229,5.1229,0.0,0.0,5.1229,5.1229,5.1229,5.1229,5.1229,5.1229,5.1229,5.1229,5.1229,5.1229,5.1229,5.1229,5.1229,5.1229,5.1229,5.1972,5.2945,5.3209,5.4847,5.6744,5.7426,5.7239,5.6765,5.6596,5.5987,5.5446,5.5446,5.531,5.5209,5.5209,5.5754,5.6336,5.6526,5.7668,5.8707,5.8901,5.9419,5.9832,5.9832,5.9318,5.8914,5.8914,5.84,5.7997,5.7997,5.7997,5.7997,5.7997,5.7997,5.7997,5.7997,5.7997,5.8194,5.8693,5.8796,5.9248,6.0089,6.0546,6.1127,6.1793,6.1793,6.2089,6.2704,6.2935,6.3397,1.7549,1.9233,2.0993,2.039,2.1164,2.2,2.1662,2.1691,0.0,0.0,0.0,2.2536,2.3575,2.4226,2.5502,2.8104,2.8732,0.0,0.0,0.0,0.0,0.0,0.0,0.0,0.0,0.0,0.0,0.0,0.0,4.0158,4.1233,4.1815,4.3053,4.5101,4.6358,4.8004,5.0301,5.0331,5.0481,5.0734,5.0734,5.0883,5.1229,5.1229,5.1229,0.0,0.0,5.1229,5.1229,5.1229,5.1229,5.1229,5.1229,5.1229,5.1229,5.1229,5.1229,5.1229,5.1229,5.1229,5.1229,5.1229,5.1635,5.2245,5.2723,5.3742,5.5052,5.6663,5.7214,5.7306,5.7306,5.6765,5.6224,5.6224,5.5953,5.5681,5.5681,5.5996,5.6402,5.6729,5.7517,5.8316,5.9087,5.9548,5.9978,6.0334,6.0052,5.9758,5.9758,5.9391,5.9098,5.9098,5.9098,5.9098,5.9098,5.9098,5.8804,5.8033,5.7997,5.8119,5.8354,5.8591,5.9327,6.0675,6.0964,6.1595,6.2666,6.2666,6.2858,6.3308,6.3705,6.4166,1.6954,1.8731,2.0641,2.039,2.0867,2.1343,2.1242,0.0,0.0,0.0,0.0,0.0,0.0,0.0,0.0,0.0,0.0,0.0,0.0,0.0,0.0,0.0,0.0,0.0,0.0,0.0,0.0,0.0,0.0,3.9697,3.9697,4.0693,4.1679,4.2404,4.4538,4.6639,4.8655,4.9119,4.9553,5.0046,5.0136,5.0495,5.1079,5.1169,5.1229,5.1229,0.0,0.0,5.1229,5.1229,5.1229,5.1229,5.1229,5.1229,5.1229,5.1229,5.1229,5.1229,5.1229,5.1229,5.1229,5.1229,5.1229,5.1386,5.235,5.2767,5.3265,5.5174,5.6624,5.7628,5.7628,5.7299,5.6968,5.6968,5.6494,5.6055,5.6055,5.6055,5.6231,5.6845,5.7075,5.7618,5.9107,5.9475,5.9832,6.0652,6.0676,6.0566,6.0566,6.0493,6.0419,6.0419,6.0419,6.0419,6.0419,6.0419,5.9832,5.8437,5.8364,5.8364,5.8364,5.8831,5.9778,6.133,6.1507,6.2185,6.3386,6.3437,6.3589,6.3705,6.4436,6.4782,1.8396,1.9635,2.0365,1.8932,1.9711,2.0691,2.0188,2.0014,0.0,0.0,0.0,0.0,0.0,0.0,0.0,0.0,0.0,0.0,0.0,0.0,0.0,0.0,0.0,0.0,0.0,0.0,0.0,0.0,0.0,3.9697,3.9697,3.9878,4.0542,4.1723,4.2119,4.3554,4.5978,4.8162,4.9359,4.9404,4.9972,5.0255,5.0375,5.096,5.1229,5.1229,0.0,5.1229,5.1229,5.1229,5.1229,5.1229,5.1229,5.1229,5.1229,5.1229,5.1229,5.1229,5.1229,5.1229,5.1229,5.1229,5.1229,5.1199,5.1386,5.2154,5.2989,5.3309,5.4888,5.6437,5.6437,5.7085,5.7712,5.7712,5.7645,5.7543,5.7543,5.7543,5.7579,5.769,5.829,5.9062,6.0043,6.0784,6.1489,6.2338,6.1851,6.141,6.141,6.0823,6.0419,6.0419,6.0419,6.0419,6.0419,6.0419,6.0309,6.0052,6.0015,6.0015,6.0015,6.0478,6.0841,6.1137,6.197,6.2864,6.3726,6.4179,6.4782,6.5513,6.5628,6.5705,1.7496,1.8682,1.966,1.9183,2.079,2.2397,2.2121,2.182,0.0,0.0,0.0,0.0,0.0,0.0,0.0,0.0,0.0,0.0,0.0,0.0,0.0,0.0,0.0,0.0,0.0,0.0,0.0,0.0,0.0,0.0,3.9697,3.9697,3.9981,4.0541,4.1219,4.2496,4.4349,4.6268,4.7702,4.8745,4.9045,4.9374,4.9733,5.0032,5.0152,5.0182,0.0,5.0644,5.0674,5.1079,5.1229,5.1229,5.1229,5.1229,5.1229,5.1229,5.1229,5.1229,5.1229,5.1229,5.1229,5.1229,5.1229,5.1229,5.1229,5.1542,5.1972,5.1972,5.4009,5.6204,5.6204,5.7039,5.7881,5.7881,5.7881,5.7881,5.7881,5.7881,5.7881,5.7881,5.8209,5.8737,5.9541,6.0361,6.12,6.2023,6.2212,6.2254,6.2254,6.1924,6.1704,6.1704,6.1704,6.1704,6.1704,6.1704,6.1337,6.0456,6.0419,6.0419,6.0419,6.0605,6.1048,6.1784,6.2257,6.3047,6.4127,6.4383,6.4708,6.5089,6.5089,6.5482,1.7152,1.8205,1.9384,2.0188,2.182,2.3401,2.4054,2.3622,2.3246,0.0,0.0,0.0,0.0,0.0,0.0,0.0,0.0,0.0,0.0,0.0,0.0,0.0,0.0,0.0,0.0,0.0,0.0,0.0,0.0,0.0,3.9697,3.9697,3.9697,3.9697,4.0642,4.1789,4.3026,4.4303,4.6011,4.8057,4.8207,4.8566,4.909,4.9239,4.9299,4.9329,4.9793,5.0046,5.0226,5.0734,5.1079,5.1229,5.1229,5.1229,5.1229,5.1229,5.1229,5.1229,5.1229,5.1229,5.1229,5.1229,5.1229,5.1229,5.1229,5.1229,5.1229,5.1229,5.3265,5.5498,5.577,5.6663,5.7554,5.7845,5.7881,5.7881,5.7881,5.7881,5.7881,5.7881,5.7881,5.8173,5.8942,5.9832,6.067,6.1492,6.2298,6.278,6.278,6.278,6.278,6.278,6.278,6.278,6.278,6.278,6.2291,6.1043,6.097,6.097,6.097,6.097,6.1466,6.2465,6.2597,6.3194,6.4197,6.4332,6.4389,6.4389,6.4596,6.5216,1.9158,1.966,2.0137,2.1744,2.1518,2.1622,2.418,2.3898,0.0,2.582,0.0,0.0,0.0,0.0,0.0,0.0,0.0,0.0,0.0,0.0,0.0,0.0,0.0,0.0,0.0,0.0,0.0,0.0,0.0,0.0,3.9697,3.9697,3.9697,3.9697,3.98,4.0465,4.1739,4.2978,4.4886,4.7369,4.7997,4.8327,4.8386,4.903,4.9299,4.9299,4.9359,4.9673,5.0196,5.0255,5.0614,5.1229,5.1229,5.1229,5.1229,5.1229,5.1229,5.1229,5.1229,5.1229,5.1229,5.1229,5.1229,5.1229,5.1229,5.1229,5.1229,5.1229,5.2154,5.3352,5.4463,5.5498,5.6586,5.7628,5.7881,5.7881,5.7881,5.7881,5.7881,5.7881,5.7881,5.8173,5.8942,5.9832,6.067,6.1492,6.2298,6.278,6.278,6.278,6.278,6.278,6.278,6.278,6.278,6.278,6.2743,6.2633,6.2633,6.2633,6.2633,6.2633,6.2658,6.2745,6.3266,6.3556,6.3637,6.4138,6.4389,6.4426,6.5181,6.5577,1.8129,1.9309,2.0591,2.1543,2.2523,2.3703,0.0,2.6038,2.6666,2.8222,2.8524,0.0,0.0,0.0,0.0,0.0,0.0,0.0,0.0,0.0,0.0,0.0,0.0,0.0,0.0,0.0,0.0,0.0,0.0,0.0,4.0895,4.0134,3.9697,3.9697,3.9697,4.0313,4.1591,4.2882,4.4396,4.6121,4.7169,4.7668,4.7698,4.7938,4.8057,4.8057,4.8476,4.8805,4.9075,4.9867,5.0345,5.0614,5.105,5.1229,5.1229,5.1229,5.1229,5.1229,5.1229,5.1229,5.1229,5.1229,5.1229,5.1229,5.1229,5.1229,5.1229,5.1229,5.1526,5.2109,5.3253,5.4348,5.549,5.6586,5.6816,5.7039,5.7772,5.7881,5.7881,5.7881,5.7881,5.8027,5.8281,5.9044,5.9896,6.073,6.1548,6.2245,6.273,6.278,6.278,6.278,6.278,6.278,6.278,6.278,6.278,6.278,6.278,6.278,6.278,6.278,6.278,6.278,6.299,6.3097,6.3097,6.3294,6.3668,6.4225,6.4522,6.5396,1.8023,1.9284,2.0867,2.1568,2.3427,2.5435,2.6917,2.7821,2.8875,3.0708,3.0959,0.0,0.0,0.0,0.0,0.0,0.0,0.0,0.0,0.0,0.0,0.0,0.0,0.0,0.0,0.0,0.0,0.0,0.0,0.0,0.0,4.1169,4.0567,3.9749,4.0083,4.0693,4.1591,4.2882,4.4116,4.5389,4.6682,4.7309,4.7309,4.7309,4.7309,4.7339,4.7788,4.8087,4.8356,4.9464,5.0136,5.0554,5.1003,5.1229,5.1229,5.1229,5.1229,5.1229,5.1229,5.1229,5.1229,5.1229,5.1229,5.1229,5.1229,5.1229,5.1229,5.1229,5.1229,5.1386,5.2154,5.3209,5.4337,5.5417,5.5968,5.6398,5.7222,5.7628,5.7881,5.7881,5.7881,5.7881,5.7881,5.8564,5.9311,5.9896,6.0909,6.1797,6.235,6.2618,6.278,6.278,6.278,6.278,6.278,6.278,6.278,6.278,6.278,6.278,6.278,6.278,6.278,6.278,6.278,6.2952,6.3209,6.3209,6.3649,6.4494,6.4751,6.563,1.9332,1.9836,2.0968,2.2046,0.0,0.0,2.8411,2.8913,2.9841,3.3219,3.347,3.2742,3.1612,0.0,0.0,0.0,0.0,0.0,0.0,0.0,0.0,0.0,0.0,0.0,0.0,0.0,0.0,0.0,0.0,0.0,0.0,4.2786,4.2301,3.9826,4.0945,4.1591,4.1591,4.2882,4.4163,4.5389,4.6682,4.7309,4.7309,4.7309,4.7309,4.7309,4.7309,4.7668,4.8327,4.903,5.0032,5.1199,5.1229,5.1229,5.1229,5.1229,5.1229,5.1229,5.1229,5.1229,5.1229,5.1229,5.1229,5.1229,5.1229,5.1229,5.1229,5.1229,5.1229,5.1229,5.1229,5.2018,5.3165,5.4295,5.5377,5.6204,5.6204,5.7076,5.7881,5.7881,5.7881,5.7881,5.7881,5.8564,5.9077,5.9111,6.0514,6.1604,6.1604,6.2334,6.2817,6.2817,6.2817,6.2817,6.2817,6.2817,6.2817,6.2817,6.2817,6.2817,6.278,6.278,6.278,6.278,6.2817,6.3246,6.409,6.409,6.453,6.5338,6.6145,6.6512,1.8773,2.0112,0.0,2.3226,0.0,0.0,0.0,3.0658,0.0,0.0,3.3771,3.3445,0.0,0.0,0.0,0.0,0.0,0.0,0.0,0.0,0.0,0.0,0.0,0.0,0.0,0.0,0.0,0.0,0.0,0.0,0.0,4.293,4.223,4.235,4.1887,4.1591,4.1591,4.374,4.4581,4.4069,4.6255,4.7309,4.7309,4.7309,4.7309,4.7309,4.7309,4.7429,4.7698,4.885,4.9763,5.0524,5.105,5.1229,5.1229,5.1229,5.1229,5.1229,5.1229,5.1229,5.1229,5.1229,5.1229,5.1229,5.1229,5.1229,5.1229,5.1229,5.1229,5.1229,5.1229,5.1433,5.1972,5.3121,5.4253,5.5256,5.6047,5.7076,5.7881,5.7881,5.7881,5.7881,5.7881,5.8101,5.8424,5.901,6.0509,6.2211,6.3974,6.4401,6.4567,6.4567,6.4567,6.4567,6.4567,6.4567,6.4567,6.4567,6.4567,6.4053,6.2853,6.3392,6.3723,6.3723,6.4273,6.4714,6.4934,6.4934,6.5375,6.6145,6.6402,6.6806,2.0395,2.1741,0.0,2.5234,2.772,3.0181,3.1712,0.0,0.0,0.0,0.0,0.0,0.0,0.0,0.0,0.0,0.0,0.0,0.0,0.0,0.0,0.0,0.0,0.0,0.0,0.0,0.0,0.0,0.0,0.0,0.0,4.3789,4.2978,4.2738,4.2496,4.235,4.235,4.4396,4.5024,4.4256,4.5824,4.655,4.655,4.7062,4.7309,4.7309,4.7309,4.7459,4.7758,4.8566,4.9404,5.0226,5.0614,5.099,5.1229,5.1229,5.1229,5.1229,5.1229,5.1229,5.1229,5.1229,5.1229,5.1229,5.1229,5.1229,5.1229,5.1229,5.1229,5.1229,5.1229,5.1229,5.1386,5.2063,5.3121,5.4126,5.4764,5.6126,5.7222,5.7222,5.7591,5.7983,5.8287,5.8355,5.8572,5.9386,6.0932,6.2699,6.4494,6.5081,6.5301,6.5301,6.5301,6.5301,6.5301,6.5301,6.5301,6.5301,6.5301,6.4861,6.3833,6.431,6.4567,6.4567,6.5044,6.5485,6.5778,6.5778,6.6182,6.699,6.699,6.7247,2.307,2.406,0.0,2.7544,2.9076,0.0,3.2659,0.0,0.0,0.0,0.0,0.0,0.0,0.0,0.0,0.0,0.0,0.0,0.0,0.0,0.0,0.0,0.0,0.0,0.0,0.0,0.0,0.0,0.0,0.0,0.0,4.4867,4.4172,4.1758,4.2999,4.3551,4.3313,4.4674,4.5252,4.507,4.5161,4.5207,4.5252,4.655,4.7222,4.7309,4.7309,4.7638,4.8207,4.8267,4.9015,5.0106,5.0166,5.0584,5.1229,5.1229,5.1229,5.1229,5.1229,5.1229,5.1229,5.1229,5.1229,5.1229,5.1229,5.1229,5.1229,5.1229,5.1229,5.1229,5.1229,5.1229,5.1229,5.1229,5.2063,5.29,5.29,5.464,5.6204,5.6303,5.7214,5.822,5.8964,5.9099,5.9407,6.0194,6.1744,6.312,6.3984,6.4959,6.5521,6.5521,6.5521,6.5521,6.5521,6.5521,6.5521,6.5521,6.5521,6.5521,6.5521,6.5448,6.5411,6.5411,6.5485,6.5888,6.6623,6.6623,6.699,6.7687,6.7687,6.7724,2.2057,2.3733,0.0,0.0,2.9905,3.1938,3.2867,0.0,0.0,0.0,0.0,0.0,0.0,0.0,0.0,0.0,0.0,0.0,0.0,0.0,0.0,0.0,0.0,0.0,0.0,0.0,0.0,0.0,0.0,0.0,4.239,4.3804,4.3964,4.2504,4.4096,4.4022,4.2035,4.4256,4.4396,4.2398,4.3456,4.3929,4.3929,4.5207,4.6344,4.7309,4.7309,4.7399,4.7549,4.8087,4.8745,4.9523,4.9986,5.0584,5.1229,5.1229,5.1229,5.1229,5.1229,5.1229,5.1229,5.1229,5.1229,5.1229,5.1229,5.1229,5.1229,5.1229,5.1229,5.1229,5.1229,5.1229,5.1229,5.1229,5.2063,5.29,5.29,5.464,5.6369,5.7034,5.8017,5.8998,5.9742,5.9877,6.0343,6.1836,6.2956,6.4152,6.5671,6.6663,6.7173,6.7173,6.7173,6.7173,6.7173,6.7173,6.7173,6.7173,6.7173,6.7173,6.7173,6.6586,6.6256,6.6256,6.6843,6.7247,6.743,6.743,6.7504,6.7687,6.7687,6.8017,2.3529,0.0,0.0,2.9492,0.0,0.0,0.0,0.0,0.0,0.0,0.0,0.0,0.0,0.0,0.0,0.0,0.0,0.0,0.0,0.0,0.0,0.0,0.0,0.0,0.0,0.0,0.0,0.0,0.0,4.1418,4.1301,4.191,4.1966,4.1361,4.3175,4.3155,4.1244,4.4023,4.4116,4.1591,4.2252,4.2593,4.2641,4.4535,4.6121,4.7309,4.7309,4.7309,4.7339,4.7668,4.8207,4.8865,4.9523,5.0182,5.0734,5.1063,5.1229,5.1229,5.1229,5.1229,5.1229,5.1229,5.1229,5.1229,5.1229,5.1229,5.1229,5.1229,5.1229,5.1229,5.1229,5.1229,5.1229,5.1229,5.1635,5.2109,5.2109,5.369,5.5374,5.6375,5.7701,5.9098,6.0444,6.096,6.149,6.2361,6.3238,6.4276,6.5582,6.6517,6.723,6.766,6.7687,6.7687,6.7687,6.7314,6.7258,6.7687,6.7286,6.7258,6.7687,6.7283,6.7063,6.7063,6.7467,6.7687,6.7687,6.7687,6.7687,6.7714,6.8091,6.8495,2.502,0.0,2.8455,3.165,3.2693,0.0,0.0,0.0,0.0,0.0,0.0,0.0,0.0,0.0,0.0,0.0,0.0,0.0,0.0,0.0,0.0,0.0,0.0,0.0,0.0,0.0,0.0,0.0,0.0,3.928,4.0023,4.0045,3.9853,3.9454,4.166,4.2035,4.0346,4.3361,4.3621,4.1112,4.1217,4.1419,4.169,4.4022,4.5779,4.6975,4.7222,4.7309,4.7309,4.7309,4.7698,4.8356,4.906,4.9673,5.0255,5.0913,5.1229,5.1229,5.1229,5.1229,5.1229,5.1229,5.1229,5.1229,5.1229,5.1229,5.1229,5.1229,5.1229,5.1229,5.1229,5.1229,5.1229,5.1229,5.1319,5.1379,5.1379,5.2719,5.4345,5.5793,5.7673,5.9531,6.1211,6.2009,6.2381,6.2381,6.3162,6.4007,6.49,6.5842,6.6736,6.7633,6.7687,6.7687,6.7687,6.691,6.6794,6.766,6.6881,6.6794,6.766,6.7687,6.776,6.7907,6.776,6.7687,6.7687,6.7834,6.7907,6.7907,6.8715,6.9192,2.3255,0.0,2.9621,0.0,3.2905,0.0,0.0,0.0,0.0,0.0,0.0,0.0,0.0,0.0,0.0,0.0,0.0,0.0,0.0,0.0,0.0,0.0,0.0,0.0,0.0,0.0,0.0,0.0,3.7618,3.7874,3.7045,3.9336,3.9704,3.7599,4.1397,4.1864,3.8412,4.1396,4.1645,3.9272,3.9753,4.0567,4.164,4.3122,4.4442,4.5734,4.6814,4.7309,4.7309,4.7309,4.7698,4.8356,4.906,4.9673,5.0255,5.0913,5.1229,5.1229,5.1229,5.1229,5.1229,5.1229,5.1229,5.1229,5.1229,5.1229,5.1229,5.1229,5.1229,5.1229,5.1229,5.1229,5.1229,5.1229,5.1648,5.2067,5.2067,5.3054,5.4625,5.7037,5.9878,6.1953,6.2212,6.2313,6.2381,6.2381,6.3162,6.4007,6.49,6.5842,6.6736,6.7633,6.7687,6.7687,6.7687,6.691,6.6794,6.766,6.6881,6.6794,6.766,6.7687,6.8017,6.8752,6.8054,6.7687,6.7687,6.8385,6.8752,6.8752,6.9559,7.033,2.507,2.7975,3.0829,0.0,0.0,0.0,0.0,0.0,0.0,0.0,0.0,0.0,0.0,0.0,0.0,0.0,0.0,0.0,0.0,0.0,0.0,0.0,0.0,0.0,0.0,0.0,0.0,0.0,3.6849,3.6943,3.6452,3.7661,3.7883,3.6782,3.9539,3.9953,3.7586,3.9881,4.0307,3.8919,3.9421,3.9981,4.0592,4.1838,4.3504,4.5434,4.6726,4.7309,4.7309,4.7309,4.7489,4.7848,4.891,4.9434,4.9823,5.084,5.1229,5.1229,5.1229,5.1229,5.1229,5.1229,5.1229,5.1229,5.1229,5.1229,5.1229,5.1229,5.1229,5.1229,5.1229,5.1498,5.1768,5.1768,5.2276,5.2845,5.3234,5.373,5.4944,5.7828,6.0017,6.1635,6.2302,6.2381,6.2381,6.2381,6.2736,6.3277,6.4148,6.5068,6.5966,6.6881,6.7405,6.7687,6.7687,6.6795,6.6612,6.7535,6.6657,6.6512,6.742,6.7451,6.7914,6.8764,6.8531,6.8568,6.9045,6.9412,6.9559,6.9596,7.0403,7.0954,2.609,2.8512,3.0633,3.3673,0.0,0.0,0.0,0.0,0.0,0.0,0.0,0.0,0.0,0.0,0.0,0.0,0.0,0.0,0.0,0.0,0.0,0.0,0.0,0.0,0.0,0.0,0.0,0.0,3.6405,3.6405,3.6405,3.6405,3.6405,3.6405,3.8002,3.8257,3.7008,3.8475,3.912,3.8868,3.9295,3.9572,3.9749,4.1019,4.2641,4.4489,4.6121,4.7019,4.7309,4.7309,4.7309,4.7429,4.8566,4.9179,4.9449,5.0541,5.1079,5.1229,5.1229,5.1229,5.1229,5.1229,5.1229,5.1229,5.1229,5.1229,5.1229,5.1229,5.1229,5.1259,5.1439,5.1828,5.2247,5.2396,5.2965,5.3593,5.4102,5.4559,5.5572,5.7898,5.9566,6.087,6.1797,6.2223,6.2381,6.2381,6.2381,6.2702,6.3574,6.4253,6.4999,6.5935,6.6786,6.7287,6.7287,6.6521,6.6452,6.7374,6.6497,6.6342,6.7233,6.7302,6.7716,6.8622,6.8742,6.9237,7.011,7.0293,7.0403,7.0403,7.1248,7.1615,2.4132,2.5977,0.0,3.1276,0.0,0.0,0.0,0.0,0.0,0.0,0.0,0.0,0.0,0.0,0.0,0.0,0.0,0.0,0.0,0.0,0.0,0.0,0.0,0.0,0.0,0.0,0.0,0.0,3.6405,3.6405,3.6405,3.6405,3.6405,3.6405,3.752,3.7592,3.6455,3.7031,3.7862,3.8919,3.8944,3.9195,3.9749,4.1019,4.164,4.1936,4.4396,4.6166,4.7309,4.7309,4.7309,4.7369,4.8057,4.876,4.9389,5.0032,5.0644,5.1229,5.1229,5.1229,5.1229,5.1229,5.1229,5.1229,5.1229,5.1229,5.1229,5.1229,5.1229,5.1379,5.1977,5.2187,5.2366,5.2995,5.3653,5.4162,5.4192,5.5597,5.6881,5.7055,5.8959,6.0628,6.067,6.1635,6.2381,6.2381,6.2381,6.2702,6.3574,6.3755,6.4113,6.4966,6.5738,6.6164,6.6164,6.6001,6.6309,6.7267,6.6417,6.6342,6.7233,6.7302,6.7691,6.8468,6.8537,6.9049,7.011,7.0881,7.1248,7.1284,7.2055,7.2459,2.3947,2.5531,0.0,0.0,0.0,0.0,0.0,0.0,0.0,0.0,0.0,0.0,0.0,0.0,0.0,0.0,0.0,0.0,0.0,0.0,0.0,0.0,0.0,0.0,0.0,0.0,0.0,0.0,0.0,3.6405,3.6405,3.6405,3.6405,3.6405,3.6803,3.715,3.7494,3.8018,3.851,3.8877,3.8891,3.8969,3.9221,4.0007,4.0844,4.169,4.3456,4.4886,4.6166,4.6975,4.7309,4.7429,4.8506,4.912,4.9449,5.0481,5.0973,5.1229,5.1229,5.1229,5.1229,5.1229,5.1229,5.1229,5.1229,5.1229,5.1229,5.1229,5.1528,5.1917,5.2127,5.2845,5.3653,5.4311,5.467,5.485,5.485,5.537,5.6085,5.6848,5.8282,5.9697,6.0459,6.1635,6.2381,6.2381,6.2381,6.2537,6.2817,6.3764,6.4521,6.4846,6.6075,6.6878,6.6878,6.6696,6.6774,6.7076,6.6681,6.6627,6.6991,6.6991,6.7372,6.8304,6.8304,6.9106,7.0738,7.1028,7.1484,7.2092,7.2386,7.2496,2.2906,0.0,0.0,0.0,0.0,0.0,0.0,0.0,0.0,0.0,0.0,0.0,0.0,0.0,0.0,0.0,0.0,0.0,0.0,0.0,0.0,0.0,0.0,0.0,0.0,0.0,0.0,0.0,0.0,0.0,3.6405,3.6405,3.6405,3.6405,3.6405,3.6943,3.8107,3.8431,3.8905,3.9505,3.9288,3.9292,3.9446,3.9625,4.0185,4.1069,4.2738,4.421,4.5508,4.677,4.7309,4.7429,4.8506,4.912,4.9449,5.0481,5.0973,5.1229,5.1229,5.1229,5.1229,5.1229,5.1229,5.1229,5.1229,5.1229,5.1259,5.1498,5.1858,5.2306,5.2755,5.3713,5.464,5.5089,5.5179,5.5179,5.5179,5.5179,5.5431,5.6232,5.7339,5.8587,5.9784,6.0995,6.2018,6.268,6.2753,6.2854,6.3091,6.4054,6.4717,6.4717,6.5939,6.6762,6.6762,6.6889,6.6946,6.6946,6.6848,6.6812,6.6812,6.6812,6.7078,6.7708,6.7708,6.8534,7.016,7.08,7.1573,7.2496,7.2496,7.2496,0.0,0.0,0.0,0.0,0.0,0.0,0.0,0.0,0.0,0.0,0.0,0.0,0.0,0.0,0.0,0.0,0.0,0.0,0.0,0.0,0.0,0.0,0.0,0.0,0.0,0.0,0.0,0.0,3.6405,3.6405,3.6405,3.6405,3.6405,3.6405,3.6452,3.6964,3.8107,3.8153,3.9006,4.0697,4.0074,4.007,4.0552,3.9956,3.9697,3.9826,4.2398,4.421,4.5434,4.677,4.7309,4.7369,4.8057,4.876,4.9389,5.0032,5.0614,5.1229,5.1229,5.1229,5.1229,5.1229,5.1229,5.1229,5.1229,5.1229,5.1349,5.2007,5.2217,5.2546,5.3892,5.47,5.5179,5.5179,5.5179,5.5179,5.5179,5.5179,5.5179,5.5179,5.6183,5.7386,5.8619,5.9816,6.1293,6.3269,6.3531,6.3802,6.4512,6.4613,6.4647,6.4647,6.529,6.573,6.573,6.6406,6.6812,6.6812,6.6812,6.6812,6.6812,6.6812,6.6812,6.6812,6.6812,6.7284,6.8297,7.0126,7.1511,7.2438,7.2438,7.2467,2.1308,0.0,0.0,0.0,0.0,0.0,0.0,0.0,0.0,0.0,0.0,0.0,0.0,0.0,0.0,0.0,0.0,0.0,0.0,0.0,0.0,0.0,0.0,0.0,0.0,0.0,0.0,0.0,3.6405,3.6405,3.6405,3.6405,3.6405,3.6405,3.7196,3.7769,3.8107,3.8961,3.9618,4.0118,3.9887,3.9886,4.0022,3.9778,3.9697,3.9826,4.2398,4.3693,4.421,4.6388,4.7309,4.7429,4.8566,4.9149,4.9449,5.0541,5.105,5.1229,5.1229,5.1229,5.1229,5.1229,5.1229,5.1229,5.1229,5.1229,5.1349,5.2007,5.2546,5.3204,5.4581,5.5059,5.5179,5.5179,5.5179,5.5179,5.5179,5.5179,5.5179,5.5179,5.6183,5.7543,5.927,6.0608,6.2065,6.4011,6.4309,6.4377,6.458,6.5053,6.5392,6.5392,6.6068,6.6508,6.6508,6.6677,6.6812,6.6812,6.6812,6.6812,6.6812,6.6812,6.6812,6.6812,6.6812,6.7284,6.8223,6.876,6.9494,7.0501,7.1159,7.1854,0.0,0.0,0.0,0.0,0.0,0.0,0.0,2.833,0.0,0.0,0.0,0.0,0.0,0.0,0.0,0.0,0.0,0.0,0.0,0.0,0.0,0.0,0.0,0.0,0.0,3.5357,3.5633,3.6006,3.6279,3.6405,3.6405,3.6405,3.6405,3.6405,3.701,3.7632,3.8107,3.8783,3.9623,4.0603,4.0314,4.0314,4.0489,4.0216,3.9956,3.98,4.1838,4.3026,4.3646,4.5689,4.6814,4.7429,4.879,4.9299,4.9479,5.075,5.1229,5.1229,5.1229,5.1229,5.1229,5.1229,5.1229,5.1229,5.1229,5.1229,5.1409,5.2336,5.3294,5.4192,5.4999,5.5179,5.5179,5.5179,5.5179,5.5179,5.5179,5.5179,5.5179,5.5179,5.6012,5.7356,5.9543,6.0728,6.2201,6.4713,6.5053,6.5155,6.5493,6.5899,6.617,6.617,6.6542,6.6812,6.6812,6.6812,6.6812,6.6812,6.6812,6.6812,6.6812,6.6812,6.6812,6.6812,6.6812,6.7037,6.7622,6.8029,6.8723,6.9743,7.0668,7.1381,2.3233,2.3777,0.0,0.0,0.0,0.0,2.9478,2.9388,0.0,0.0,0.0,0.0,0.0,0.0,0.0,0.0,0.0,0.0,0.0,0.0,0.0,0.0,0.0,0.0,3.4625,3.5031,3.5332,3.5408,3.5956,3.6355,3.6405,3.6405,3.6405,3.6405,3.6405,3.6896,3.788,3.8153,3.9332,4.142,4.1163,4.1173,4.1498,4.0941,4.0352,3.98,4.1019,4.223,4.3409,4.484,4.6166,4.7429,4.879,4.9299,4.9479,5.075,5.1229,5.1229,5.1229,5.1229,5.1229,5.1229,5.1229,5.1229,5.1229,5.1229,5.1498,5.2815,5.4162,5.5179,5.5179,5.5179,5.5179,5.5179,5.5179,5.5179,5.5179,5.5179,5.5209,5.5299,5.5777,5.697,5.9378,6.0494,6.2074,6.5127,6.5714,6.6068,6.6745,6.6812,6.6812,6.6812,6.6812,6.6812,6.6812,6.6812,6.6812,6.6812,6.6812,6.6812,6.6812,6.6812,6.6812,6.6812,6.6812,6.6812,6.6812,6.7662,6.8534,6.953,7.0364,7.0832,2.4196,2.4542,2.4994,0.0,0.0,0.0,0.0,2.5674,0.0,0.0,0.0,0.0,0.0,0.0,0.0,0.0,0.0,0.0,0.0,0.0,0.0,0.0,0.0,0.0,3.4022,3.4148,3.4399,3.4806,3.5357,3.5906,3.638,3.6405,3.6405,3.6405,3.6405,3.6499,3.6709,3.863,3.9754,4.026,4.2049,4.2394,4.1498,4.1416,4.0791,3.98,4.1019,4.1739,4.2181,4.4442,4.6166,4.7429,4.879,4.9299,4.9479,5.075,5.1229,5.1229,5.1229,5.1229,5.1229,5.1229,5.1229,5.1229,5.1229,5.1229,5.1498,5.2815,5.4162,5.5179,5.5179,5.5179,5.5179,5.5179,5.5179,5.5179,5.5179,5.5179,5.5359,5.5867,5.6077,5.6849,5.8923,6.0662,6.2543,6.4751,6.5914,6.6643,6.6779,6.6812,6.6812,6.6812,6.6812,6.6812,6.6812,6.6812,6.6812,6.6812,6.6812,6.6812,6.6812,6.6812,6.6812,6.6812,6.6812,6.6812,6.6812,6.6988,6.7541,6.8496,6.8685,6.9205,2.5595,2.5532,2.5657,2.5241,0.0,0.0,0.0,0.0,2.6452,0.0,0.0,0.0,0.0,0.0,0.0,0.0,0.0,0.0,0.0,0.0,0.0,0.0,0.0,0.0,3.3043,3.3571,3.4123,3.4675,3.4931,3.5332,3.5931,3.5956,3.6081,3.6405,3.6405,3.6405,3.6405,3.7566,3.8765,3.9913,4.1063,4.1943,4.2446,4.1824,4.1232,4.0642,4.0642,4.1019,4.169,4.2978,4.4627,4.6535,4.8522,4.9299,4.9479,5.075,5.1229,5.1229,5.1229,5.1229,5.1229,5.1229,5.1229,5.1229,5.1229,5.1678,5.2336,5.2995,5.4162,5.5179,5.5179,5.5179,5.5179,5.5179,5.5179,5.5179,5.5179,5.5179,5.5388,5.6047,5.6406,5.726,5.929,6.0657,6.2268,6.4531,6.547,6.6072,6.6728,6.6812,6.6812,6.6812,6.6812,6.6812,6.6812,6.6812,6.6812,6.6812,6.6812,6.6812,6.6812,6.6812,6.6812,6.6812,6.6812,6.6812,6.6812,6.6812,6.7071,6.7501,6.799,6.8458,0.0,0.0,0.0,0.0,0.0,2.6379,0.0,0.0,0.0,2.9047,0.0,0.0,0.0,0.0,0.0,0.0,0.0,0.0,0.0,0.0,0.0,0.0,0.0,0.0,3.2064,3.2692,3.352,3.45,3.4274,3.443,3.5282,3.5433,3.5708,3.6182,3.6355,3.6405,3.6405,3.6615,3.7769,3.9913,4.0396,4.1577,4.3401,4.2356,4.1768,4.1541,4.0262,4.0262,4.1269,4.1518,4.2786,4.4954,4.7829,4.9073,4.9479,5.075,5.1229,5.1229,5.1229,5.1229,5.1229,5.1229,5.1229,5.1229,5.1229,5.2127,5.3174,5.3174,5.4162,5.5179,5.5179,5.5179,5.5179,5.5179,5.5179,5.5179,5.5179,5.5299,5.5568,5.6226,5.6855,5.779,5.941,6.0637,6.2112,6.4197,6.4914,6.5646,6.6686,6.6812,6.6812,6.6812,6.6812,6.6812,6.6812,6.6812,6.6812,6.6812,6.6812,6.6812,6.6812,6.6812,6.6812,6.6812,6.6812,6.6812,6.6812,6.6812,6.6812,6.6812,6.7582,6.7911,0.0,0.0,0.0,0.0,2.7696,0.0,0.0,0.0,2.7033,2.6252,0.0,0.0,0.0,0.0,0.0,0.0,0.0,0.0,0.0,0.0,0.0,0.0,0.0,0.0,0.0,3.0733,3.1311,3.3796,3.2616,3.2667,3.4655,3.5232,3.5533,3.5583,3.6107,3.6405,3.6405,3.7402,3.8559,3.9913,4.2136,4.3286,4.3429,4.3296,4.265,4.1541,4.0262,3.98,3.9981,4.1119,4.1789,4.2387,4.6158,4.8328,4.9479,5.075,5.1229,5.1229,5.1229,5.1229,5.1229,5.1229,5.1229,5.1229,5.1229,5.2127,5.3174,5.3174,5.4162,5.5179,5.5179,5.5179,5.5179,5.5179,5.5179,5.5179,5.5179,5.5658,5.6256,5.6885,5.7543,5.8075,5.8294,6.0788,6.2876,6.3196,6.5126,6.661,6.677,6.6812,6.6812,6.6812,6.6812,6.6812,6.6812,6.6812,6.6812,6.6812,6.6812,6.6812,6.6812,6.6812,6.6812,6.6812,6.6812,6.6812,6.6812,6.6812,6.6812,6.6812,6.6904,6.6946,0.0,0.0,0.0,0.0,0.0,0.0,0.0,0.0,2.5873,0.0,0.0,0.0,0.0,0.0,0.0,0.0,0.0,0.0,0.0,0.0,0.0,0.0,0.0,0.0,0.0,0.0,0.0,0.0,3.1687,3.1913,3.4123,3.4731,3.5182,3.5483,3.6081,3.6709,3.7356,3.7196,3.8379,4.0873,4.162,4.2854,4.4448,4.3392,4.2841,4.2593,4.0541,3.9697,3.9749,4.0262,4.1369,4.2943,4.5364,4.7071,4.8429,5.0488,5.1229,5.1229,5.1229,5.1229,5.1229,5.1229,5.1229,5.1229,5.1229,5.2127,5.3174,5.3174,5.4162,5.5179,5.5179,5.5179,5.5179,5.5179,5.5179,5.5179,5.5179,5.5718,5.6346,5.6974,5.7663,5.8231,5.862,5.984,6.1255,6.2763,6.3905,6.5126,6.661,6.6812,6.6812,6.6812,6.6812,6.6812,6.6812,6.6812,6.6812,6.6812,6.6812,6.6812,6.6812,6.6812,6.6812,6.6812,6.6812,6.6812,6.6812,6.6812,6.6812,6.6812,6.6812,6.6812,3.1114,0.0,0.0,0.0,0.0,0.0,0.0,0.0,0.0,0.0,0.0,0.0,0.0,0.0,0.0,0.0,0.0,0.0,0.0,0.0,0.0,0.0,0.0,0.0,0.0,0.0,0.0,0.0,0.0,3.1035,3.3545,3.4198,3.4751,3.5257,3.5855,3.665,3.7632,3.7103,3.8289,4.1127,4.1449,4.2898,4.5221,4.3922,4.337,4.3409,4.1541,4.0567,4.0262,4.0592,4.1944,4.391,4.542,4.6679,4.793,5.033,5.1229,5.1229,5.1229,5.1229,5.1229,5.1229,5.1229,5.1259,5.1439,5.2276,5.3204,5.3414,5.4311,5.5179,5.5179,5.5179,5.5179,5.5179,5.5179,5.5239,5.5418,5.5957,5.6615,5.7244,5.7932,5.853,5.9009,5.9392,6.0411,6.2665,6.3292,6.4322,6.6525,6.6812,6.6812,6.6812,6.6812,6.6812,6.6812,6.6812,6.6812,6.6812,6.6812,6.6812,6.6812,6.6812,6.6812,6.6812,6.6812,6.6812,6.6812,6.6812,6.6812,6.6812,6.6812,6.6812,0.0,0.0,0.0,2.8853,0.0,0.0,0.0,0.0,2.6512,0.0,0.0,0.0,0.0,0.0,0.0,0.0,0.0,0.0,0.0,0.0,0.0,0.0,0.0,0.0,0.0,0.0,0.0,0.0,2.9402,2.9628,3.296,3.3621,3.4173,3.4726,3.5232,3.583,3.6452,3.7494,3.8693,4.0,4.2365,4.412,4.5293,4.5302,4.4674,4.3504,4.3409,4.2689,4.164,4.2882,4.3787,4.4684,4.6576,4.7711,4.8509,5.0461,5.1229,5.1229,5.1229,5.1229,5.1229,5.1229,5.1229,5.1349,5.1977,5.2636,5.3324,5.3982,5.467,5.5179,5.5179,5.5179,5.5179,5.5179,5.5179,5.5359,5.6068,5.6615,5.7274,5.7962,5.862,5.9069,5.9099,6.0097,6.1395,6.2779,6.4045,6.5304,6.661,6.6812,6.6812,6.6812,6.6812,6.6812,6.6812,6.6812,6.6812,6.6812,6.6812,6.6812,6.6812,6.6812,6.6812,6.6812,6.6812,6.6812,6.6812,6.6812,6.6812,6.6812,6.6812,6.6812,0.0,0.0,3.427,3.2106,0.0,0.0,0.0,0.0,0.0,0.0,0.0,0.0,0.0,0.0,0.0,0.0,0.0,0.0,0.0,0.0,0.0,0.0,0.0,0.0,0.0,0.0,0.0,0.0,2.9424,0.0,3.3353,3.3428,3.3771,3.47,3.5974,3.6968,3.754,3.8693,3.9885,4.1071,4.2783,4.4192,4.5293,4.5375,4.5161,4.4627,4.2978,4.2496,4.2834,4.2398,4.3623,4.5855,4.6983,4.826,4.9715,5.0773,5.1229,5.1229,5.1229,5.1229,5.1229,5.1229,5.1498,5.1917,5.2127,5.2965,5.3922,5.4132,5.467,5.5179,5.5179,5.5179,5.5179,5.5179,5.5538,5.5897,5.6188,5.7004,5.7842,5.8082,5.865,5.9099,5.9099,6.015,6.1445,6.2779,6.3387,6.4414,6.6525,6.6812,6.6812,6.6812,6.6812,6.6812,6.6812,6.6812,6.6812,6.6812,6.6812,6.6812,6.6812,6.6812,6.6812,6.6812,6.6812,6.6812,6.6812,6.6812,6.6812,6.6812,6.7454,6.7414,3.6921,3.6656,0.0,3.4216,3.292,0.0,2.8329,0.0,0.0,0.0,0.0,0.0,0.0,0.0,0.0,0.0,0.0,0.0,0.0,0.0,0.0,0.0,0.0,0.0,0.0,0.0,2.7509,3.0046,2.9045,0.0,0.0,3.3027,3.3269,3.4399,3.5667,3.6715,3.7494,3.9094,4.0386,4.1312,4.3255,4.4693,4.5651,4.5962,4.5824,4.5343,4.4116,4.3834,4.4163,4.3787,4.5137,4.7483,4.7921,4.909,5.0584,5.105,5.1229,5.1229,5.1229,5.1229,5.1259,5.1498,5.1858,5.2306,5.2785,5.3533,5.4251,5.4491,5.485,5.5179,5.5179,5.5179,5.5179,5.5179,5.5688,5.6278,5.6436,5.7363,5.8201,5.8441,5.88,5.9231,5.9736,6.0484,6.1445,6.2779,6.3387,6.4414,6.6525,6.6812,6.6812,6.6812,6.6812,6.6812,6.6812,6.6812,6.6812,6.6812,6.6812,6.6812,6.6812,6.6812,6.6812,6.6812,6.6812,6.6812,6.6812,6.6812,6.6812,6.6854,6.8107,6.8063]}]]